ECMWFNIL_850_thetae_000.txt.gz
Theta_e
305 305 305 305 305 305 305 304 304 305 305 305 304 304 304 304 304 305 306 308 310 310 310 311 312 314 315 315 315 314 314 314 317 320 323 324 325 325 326 327 325 322
305 305 304 305 305 305 305 304 304 304 304 304 304 304 304 304 303 303 304 305 307 309 311 311 311 312 314 315 316 316 315 314 314 315 318 321 323 323 324 324 324 322
305 304 305 305 305 305 305 304 304 304 304 304 304 303 303 303 303 303 303 304 304 306 309 311 311 312 313 314 316 317 317 317 316 314 315 317 320 322 322 322 322 323
305 305 305 305 305 305 304 304 304 304 304 303 303 303 302 302 303 303 303 303 304 305 307 309 310 311 312 313 314 316 317 318 318 317 316 316 318 320 321 322 322 323
305 304 304 304 304 304 304 304 304 304 303 303 302 302 302 302 303 303 303 304 304 305 306 308 310 311 311 312 313 315 316 317 318 319 318 317 317 318 320 321 322 323
305 304 304 304 304 304 303 303 303 303 303 303 303 303 302 302 303 303 303 303 304 305 306 307 309 310 311 311 311 313 315 316 317 318 319 318 317 317 318 319 321 322
305 304 304 304 303 303 302 302 303 304 303 303 303 303 302 302 302 303 303 303 303 304 305 306 307 309 310 311 311 312 313 315 316 317 318 319 318 318 318 319 319 320
305 304 304 303 303 302 301 302 304 304 303 303 303 302 302 302 302 302 303 302 303 303 305 305 306 307 309 310 310 311 313 314 315 317 317 318 318 318 318 319 319 319
305 304 303 303 302 301 301 303 304 304 304 303 303 302 302 302 302 302 302 302 302 303 304 305 305 306 307 309 309 310 312 313 314 315 316 317 318 319 318 319 320 320
304 303 303 302 301 301 303 304 304 304 303 303 303 302 302 302 302 302 302 302 302 302 303 304 305 305 306 307 308 310 311 312 313 314 315 316 317 318 319 319 319 320
303 303 302 301 301 303 304 304 303 303 303 303 302 302 302 302 302 302 302 302 302 302 302 303 304 305 305 306 307 308 310 311 312 313 313 314 316 317 318 319 319 319
303 302 302 302 303 303 303 303 303 303 303 303 303 303 302 302 302 302 302 302 302 302 302 303 304 305 306 306 307 308 309 310 311 312 312 313 315 316 317 318 319 319
302 302 302 302 303 303 303 303 303 303 302 302 303 303 303 302 302 301 301 301 302 302 302 303 304 305 306 307 307 308 308 309 309 310 311 311 313 315 316 317 318 319
302 301 302 303 302 302 302 302 302 302 302 302 302 302 302 302 301 301 300 300 301 302 303 302 302 303 304 306 307 308 308 309 308 309 310 310 312 314 316 316 317 318
301 302 302 302 302 302 302 302 301 302 302 302 302 302 301 301 301 300 300 300 300 301 302 302 302 303 304 305 306 307 308 308 307 307 308 309 310 313 315 316 317 318
301 302 302 302 302 302 302 301 301 301 301 301 302 301 301 301 301 300 300 300 299 300 300 301 301 303 305 306 306 306 306 305 305 305 306 307 309 312 314 316 316 317
301 302 303 302 302 301 301 301 301 301 301 301 301 301 301 301 300 300 300 299 299 299 299 299 300 302 304 305 306 306 305 303 303 304 305 306 308 311 313 315 316 317
302 302 302 302 301 301 301 301 301 301 301 301 300 300 300 300 300 299 299 299 299 299 298 298 299 300 301 303 304 304 303 302 302 303 304 306 308 311 313 315 316 317
302 302 302 301 301 301 300 300 300 300 300 300 299 299 299 299 299 299 299 298 298 298 298 298 298 299 299 300 301 302 301 301 300 301 302 304 307 310 313 315 316 317
302 302 301 301 301 300 300 299 299 299 299 299 298 298 298 298 298 298 298 298 298 298 298 298 298 298 298 298 299 300 299 299 299 300 301 302 304 308 312 315 316 317
302 301 300 300 300 300 299 299 299 299 298 298 297 297 297 297 297 297 297 297 297 297 297 297 297 297 298 298 298 298 298 298 299 299 300 301 303 305 309 313 315 316
301 301 300 300 300 299 299 299 299 298 298 297 297 296 296 296 296 296 296 296 297 297 297 297 297 297 297 298 298 298 298 298 298 299 299 301 303 304 307 311 314 316
301 300 300 300 299 299 299 299 298 298 297 297 296 296 296 296 295 295 295 296 296 296 296 296 297 297 298 298 298 298 299 298 299 299 300 301 302 304 306 308 312 316
300 300 299 299 299 299 298 298 298 297 297 297 297 296 296 295 295 295 295 295 295 295 295 296 296 297 297 298 298 299 300 300 299 299 300 301 302 304 305 307 310 314
300 300 299 299 299 298 298 297 297 297 297 297 296 296 296 295 295 294 294 294 294 295 295 295 296 297 298 298 299 299 300 300 300 300 301 302 303 305 306 308 309 312
299 299 299 299 298 298 297 297 297 297 296 296 296 295 295 295 294 294 294 294 294 295 295 295 296 297 298 298 299 300 300 300 300 300 301 302 304 306 307 308 310 312

ECMWFNIL_850_thetae_003.txt.gz
Theta_e
309 308 307 306 306 306 306 306 306 306 305 305 305 305 305 305 305 305 305 304 304 304 303 303 305 307 310 311 312 313 316 318 319 319 320 321 324 324 324 325 326 326
310 308 306 306 306 306 306 306 305 306 305 305 305 305 305 304 305 305 304 304 304 303 303 303 303 304 307 309 310 311 314 316 318 318 319 319 321 323 324 324 325 325
310 308 306 306 305 305 305 305 306 305 305 305 305 304 304 304 304 304 303 304 303 302 303 304 304 305 304 307 310 312 313 314 316 318 319 319 319 321 322 323 324 324
309 307 306 306 306 305 305 305 305 305 305 305 304 304 304 304 305 304 304 305 304 304 305 306 306 307 307 306 308 311 312 313 315 317 319 320 320 320 320 321 322 324
308 307 306 306 305 305 305 305 305 305 305 304 304 304 305 306 308 306 305 306 306 305 306 307 307 307 307 307 308 309 311 312 313 316 318 319 320 321 321 320 320 321
308 307 306 306 306 306 305 305 305 305 304 304 305 306 306 307 307 306 306 306 306 306 306 306 306 306 306 307 307 308 310 311 312 314 316 318 319 320 321 321 320 320
308 306 306 306 306 306 306 305 305 305 304 305 306 307 307 306 306 305 306 306 306 305 306 305 305 306 306 306 307 307 309 310 312 313 314 317 318 320 320 321 321 321
307 306 306 306 306 306 305 305 305 304 305 306 307 307 306 306 305 305 305 305 305 305 305 305 305 305 305 306 306 306 307 309 310 312 313 315 317 319 319 320 321 321
307 307 306 306 306 305 305 305 305 305 306 307 306 306 306 306 305 305 305 304 304 304 304 305 305 305 305 305 305 306 306 307 309 310 312 313 315 317 319 319 320 321
307 307 306 306 305 305 305 305 305 306 307 307 306 306 306 305 305 305 305 304 304 304 304 304 304 305 304 304 305 305 306 306 307 309 311 312 313 315 317 318 319 320
308 307 306 306 305 304 304 305 306 306 306 306 306 306 305 305 305 304 304 304 304 304 304 304 304 304 304 304 304 305 305 306 306 307 309 311 313 314 315 316 318 319
308 307 306 305 304 305 305 305 305 305 306 306 305 305 305 305 304 304 305 304 304 304 304 304 304 304 304 304 304 304 305 305 306 306 308 309 312 314 315 315 316 317
309 307 306 304 304 304 304 305 305 305 305 305 305 305 304 304 304 304 305 304 304 304 304 304 304 304 303 303 303 304 304 304 305 306 307 308 310 312 314 315 316 316
307 306 305 304 304 304 304 305 305 305 305 304 304 304 304 304 304 304 304 304 304 304 304 304 303 303 303 303 303 303 303 304 304 305 305 306 308 310 311 314 315 316
307 306 305 305 305 305 305 305 305 304 304 303 303 303 303 304 304 304 304 303 303 303 303 303 303 303 303 303 303 303 303 304 304 304 304 305 305 307 309 311 313 314
307 307 306 306 306 305 305 305 304 303 303 303 303 303 303 303 303 303 303 303 303 303 303 303 303 303 303 303 303 303 303 303 303 304 304 304 304 305 307 309 311 313
307 306 306 306 306 305 304 304 303 303 303 303 303 302 302 303 302 303 302 303 303 303 303 302 302 302 302 302 303 302 302 302 302 302 303 303 304 305 306 307 308 310
306 306 306 306 305 305 304 303 303 302 302 302 302 302 301 301 301 301 301 302 302 302 302 302 302 302 301 301 301 301 301 300 300 301 301 302 302 304 305 306 307 309
306 306 305 305 304 304 303 303 302 302 301 301 301 301 300 300 300 300 300 300 300 300 301 301 301 301 301 300 300 300 300 299 299 299 299 300 300 302 303 305 307 308
305 305 305 304 304 303 302 302 301 301 301 301 300 300 300 300 300 299 299 299 299 299 299 299 299 300 300 300 299 299 299 299 299 299 299 299 299 300 301 303 305 307
305 305 304 304 303 302 302 302 301 301 301 300 300 299 299 299 299 299 299 298 298 298 298 298 298 299 299 299 299 298 298 298 298 298 298 298 299 299 300 301 302 305
305 304 304 303 303 302 302 301 301 301 300 300 299 299 299 299 299 299 298 298 298 298 298 298 298 298 298 298 298 298 298 298 298 298 298 298 298 298 299 300 301 302
304 304 303 303 302 302 301 301 301 300 299 299 299 299 299 299 298 298 298 298 298 298 298 297 297 297 297 297 297 297 297 297 297 297 298 298 298 298 299 299 300 301
303 303 303 302 302 301 301 301 300 300 299 299 299 299 298 298 298 298 298 297 297 297 297 297 297 297 296 296 296 296 296 297 297 297 297 297 298 298 299 299 299 300
303 303 302 302 301 301 301 300 300 299 299 298 298 298 298 297 297 297 297 297 296 296 296 296 296 296 296 296 296 295 295 296 296 297 297 297 298 298 299 299 299 300
303 302 302 301 301 301 300 300 299 298 298 298 298 297 297 297 297 296 296 296 296 295 295 295 295 295 295 295 296 296 296 296 296 296 297 297 297 298 299 299 300 300

ECMWFNIL_850_thetae_006.txt.gz
Theta_e
313 313 312 312 311 309 308 308 307 307 306 306 306 306 306 306 306 306 305 305 305 305 305 304 304 303 303 303 303 303 306 311 314 315 315 316 318 319 321 323 324 325
312 313 312 312 310 309 308 308 307 307 306 306 306 306 306 306 306 306 305 305 305 305 306 306 305 305 303 302 302 303 303 305 310 312 312 313 316 318 319 320 322 323
312 312 312 311 310 309 308 308 307 307 307 307 306 306 306 306 306 306 305 305 305 306 307 307 306 306 305 303 303 304 303 304 306 309 311 311 313 317 318 319 320 321
311 312 312 311 309 309 308 308 307 307 306 307 306 306 306 306 305 305 305 306 306 306 307 307 307 307 306 305 305 306 305 305 306 308 310 310 311 314 317 319 319 320
310 311 311 311 309 308 308 308 307 307 307 306 306 306 306 306 305 306 306 306 306 306 307 307 308 308 307 306 305 306 306 305 305 306 309 310 310 312 314 317 319 319
310 311 310 310 310 309 308 308 307 307 307 306 306 306 306 306 305 306 306 306 306 305 306 307 307 307 307 306 306 306 306 305 304 304 306 308 310 311 313 315 318 319
310 310 310 310 309 309 308 307 307 307 307 307 306 306 306 306 306 306 305 305 306 305 305 306 306 306 306 306 306 306 306 306 306 305 304 305 308 311 312 314 316 319
309 310 310 310 309 308 308 307 307 307 306 306 306 305 306 306 306 306 306 305 306 306 305 305 306 306 305 306 306 305 306 306 306 306 305 305 306 309 311 313 315 317
310 310 310 309 309 308 307 307 307 307 306 306 306 306 306 307 307 307 306 306 306 306 306 306 305 305 305 305 305 305 305 305 305 305 306 306 306 306 308 311 313 315
310 310 310 310 308 308 307 307 307 306 305 306 306 306 307 307 307 307 306 306 306 305 306 305 305 305 305 305 305 305 305 305 305 305 305 306 306 306 307 309 311 312
311 311 310 309 309 308 307 306 306 306 306 307 307 307 307 307 307 306 306 306 306 305 305 305 305 305 305 305 305 305 305 305 305 305 305 306 306 306 307 308 310 311
311 311 310 310 309 308 307 306 306 306 306 307 307 306 306 306 306 306 306 305 305 305 305 305 305 305 305 305 305 305 305 305 305 304 305 305 306 307 307 307 308 310
311 311 310 310 309 308 307 307 306 306 306 306 306 306 306 306 305 305 305 305 305 305 305 305 305 305 305 305 305 305 305 304 304 304 304 304 305 306 307 307 307 308
312 311 310 309 309 308 307 307 306 306 307 306 306 305 305 305 304 304 304 304 304 304 304 304 304 304 304 304 304 304 304 304 304 304 304 304 304 305 306 307 307 307
312 311 311 309 308 307 306 306 306 306 306 305 304 304 304 304 304 304 304 304 304 304 304 304 304 304 304 304 304 304 304 304 304 304 304 304 304 304 304 305 306 307
311 310 309 308 307 306 306 307 306 306 305 304 304 304 304 303 303 303 303 303 303 303 303 303 303 304 303 303 303 303 303 303 303 303 303 303 304 304 304 304 304 305
310 309 309 307 306 307 307 306 305 305 304 304 304 304 303 303 303 302 302 302 302 302 302 302 302 303 303 303 303 303 303 303 303 303 302 302 302 302 303 303 303 304
310 309 308 307 307 307 306 306 305 304 304 303 303 303 302 302 302 301 301 301 301 301 301 301 301 301 301 301 302 302 302 302 302 302 302 302 301 301 301 301 301 302
310 309 308 308 307 307 306 305 304 303 303 303 303 302 302 302 301 301 301 300 300 300 300 300 300 300 300 300 300 301 301 301 301 301 301 301 301 301 300 300 300 300
309 308 308 307 306 306 305 304 303 302 302 302 302 302 302 301 301 300 300 300 299 299 299 299 299 299 299 299 299 299 299 299 300 300 300 300 300 300 300 300 300 300
308 307 307 306 305 305 304 303 303 302 302 302 302 302 301 301 301 300 299 299 299 299 299 299 299 299 298 298 298 298 298 298 298 298 299 299 299 299 299 299 299 299
307 306 306 305 305 304 304 303 303 303 302 302 302 301 301 300 300 299 299 299 299 299 299 299 299 299 298 298 298 298 298 298 298 298 298 298 298 298 298 298 298 298
306 306 305 305 304 304 304 303 303 302 302 302 301 301 300 300 299 299 298 299 299 298 298 298 298 298 298 297 297 297 297 297 297 297 297 297 297 297 297 297 297 298
306 305 305 304 304 304 303 303 302 302 301 301 300 300 299 299 299 298 298 298 298 298 298 297 297 297 297 296 296 296 296 296 296 296 296 296 296 296 296 296 297 297
304 304 303 303 303 303 303 302 302 301 300 300 299 299 299 298 298 298 297 297 297 297 297 296 296 296 296 296 295 295 295 295 295 295 295 296 296 296 296 296 296 297
303 304 304 303 303 302 302 301 301 300 299 299 299 299 298 297 297 297 297 297 296 296 296 295 295 295 295 295 295 294 294 294 294 295 295 295 295 296 296 296 296 296

ECMWFNIL_850_thetae_009.txt.gz
Theta_e
314 313 313 314 313 311 310 310 309 308 308 307 307 307 307 306 306 306 306 306 306 306 305 305 305 305 305 305 304 304 303 303 303 302 304 309 312 314 315 317 318 319
313 312 312 312 313 312 311 310 309 309 308 308 307 307 307 306 306 306 306 306 306 306 305 305 305 305 306 306 305 304 303 302 302 302 302 305 309 312 313 314 315 316
311 311 311 311 311 312 311 310 310 309 309 308 307 307 307 306 306 306 306 306 306 305 305 305 305 305 306 306 306 305 304 303 303 302 302 303 305 309 311 312 312 312
310 310 310 310 310 311 311 310 310 309 309 308 307 307 307 307 307 306 306 306 305 305 305 305 305 305 305 306 307 306 305 305 304 303 303 303 303 305 307 309 310 310
310 310 310 310 309 310 310 310 310 310 309 308 307 307 307 306 306 306 306 305 305 305 305 305 305 305 305 305 306 306 306 305 305 304 304 303 303 303 304 306 308 309
310 310 310 310 309 309 309 309 310 309 309 308 307 307 307 307 306 305 305 305 305 305 305 305 305 305 305 305 305 305 305 305 305 305 305 304 303 303 303 304 306 308
310 310 310 310 309 309 309 309 309 309 308 308 307 307 307 306 305 305 305 305 306 306 305 305 305 305 305 305 305 305 305 305 305 305 305 304 304 303 303 303 304 306
310 310 310 310 309 309 309 309 309 309 308 307 307 307 306 305 305 304 305 305 305 306 306 305 305 305 305 306 305 305 305 305 304 304 304 304 304 304 304 304 304 304
310 310 310 310 309 309 309 309 309 308 308 307 307 306 306 305 304 304 305 305 305 305 306 306 305 305 305 305 305 305 305 304 304 304 304 304 304 304 305 305 305 305
310 310 310 310 309 309 309 308 308 308 308 307 306 305 305 304 304 304 305 305 305 306 306 306 305 305 305 305 305 305 305 304 304 304 304 304 304 304 305 305 305 306
310 310 310 309 309 309 309 308 308 308 307 306 305 304 304 304 304 304 304 305 305 305 305 305 305 305 305 305 305 304 304 304 304 304 304 304 304 304 304 304 304 304
311 310 310 310 309 309 309 309 308 307 306 305 304 304 304 304 304 304 304 304 304 304 305 305 305 305 305 305 304 304 304 304 304 304 304 304 304 304 303 304 303 303
311 310 310 310 310 309 309 308 308 306 305 304 304 304 304 304 304 304 304 303 303 304 304 304 304 304 304 304 304 304 304 304 304 304 304 303 303 303 303 303 303 303
311 311 311 310 310 309 309 308 306 305 304 304 304 304 303 304 303 303 303 303 303 303 303 303 303 303 303 303 303 303 303 303 303 303 303 303 303 303 303 303 303 303
312 312 311 311 310 310 309 307 305 304 304 304 304 303 303 303 303 303 303 303 303 303 302 302 302 302 302 302 302 302 302 303 303 303 303 303 303 303 302 303 303 303
313 312 312 311 310 309 308 307 305 304 304 304 304 303 303 303 303 303 303 303 302 302 302 302 302 301 300 300 300 301 301 302 302 302 302 302 303 302 302 302 302 302
313 313 312 311 310 310 308 306 305 304 304 304 304 303 303 303 303 303 303 302 302 302 302 301 301 301 300 299 299 299 300 300 301 301 301 301 302 302 301 302 301 301
313 313 312 311 310 309 308 305 305 305 304 304 304 304 303 303 302 302 302 302 302 302 301 301 301 300 299 298 299 299 299 299 299 299 299 299 300 300 300 300 300 300
313 312 311 310 309 308 306 306 305 305 304 304 304 303 302 302 302 302 302 302 301 301 301 301 300 299 298 298 299 299 298 298 298 298 298 298 298 299 299 299 299 299
312 311 310 309 308 307 306 306 305 305 304 304 303 302 302 302 302 302 302 301 301 301 300 300 299 298 298 298 298 298 298 298 298 298 298 297 297 297 297 297 297 297
311 310 309 309 308 306 306 305 305 305 304 304 303 303 302 302 302 302 301 301 300 300 299 299 298 297 298 298 298 298 298 298 298 298 297 297 297 297 297 297 296 297
310 309 309 308 306 305 305 305 305 304 304 303 303 303 302 302 301 301 300 300 299 299 298 297 297 297 297 297 297 297 297 297 297 297 296 296 296 296 296 295 295 295
310 309 308 306 305 304 305 305 304 304 303 303 303 302 302 301 300 299 299 299 298 297 296 296 296 296 296 296 296 296 296 296 296 296 295 295 295 295 294 294 294 294
309 308 306 304 304 305 305 304 304 303 303 303 302 301 300 299 298 298 298 297 296 296 295 295 295 295 295 295 295 295 294 295 295 295 294 294 294 294 294 294 294 294
308 306 304 304 304 304 304 303 303 302 302 301 300 299 298 298 298 297 296 295 294 294 294 294 294 294 294 294 294 294 294 294 294 294 294 293 294 294 294 294 294 294
306 304 303 303 303 303 302 302 301 300 300 299 299 298 298 298 297 295 294 294 294 294 293 294 294 294 294 294 294 293 293 293 293 293 293 293 293 293 293 294 294 294

ECMWFNIL_850_thetae_012.txt.gz
Theta_e
313 314 314 314 314 314 313 312 311 310 309 309 308 308 308 307 307 307 306 306 306 306 306 305 305 305 305 305 305 305 304 304 304 303 303 302 302 302 303 305 310 314
313 314 314 314 313 313 313 312 311 311 309 309 308 308 307 307 307 306 306 306 306 306 306 305 305 305 305 305 305 305 305 304 304 303 302 302 302 302 302 303 305 310
314 314 313 312 312 313 313 312 312 310 309 309 308 308 307 306 306 306 306 306 306 306 305 305 305 305 305 305 305 305 305 304 304 304 303 303 303 302 302 302 302 305
314 313 312 311 311 311 312 312 311 310 310 309 309 308 307 306 306 306 306 306 306 305 305 305 305 305 305 305 305 304 304 304 304 304 304 303 303 303 303 302 302 302
313 312 311 310 311 310 311 311 311 310 310 309 309 308 307 306 306 306 306 306 305 305 305 305 305 305 305 305 304 304 304 304 304 304 304 304 303 303 303 303 303 302
313 311 310 310 310 310 310 310 310 310 310 310 309 308 307 306 306 306 306 306 305 304 305 305 305 305 305 305 304 305 304 304 304 304 304 304 303 303 303 303 303 303
313 311 310 310 310 310 309 309 309 309 309 309 309 308 307 306 306 306 306 305 304 304 305 305 305 305 305 305 305 305 305 305 305 305 305 304 304 303 303 303 303 303
312 310 310 310 310 310 310 309 309 309 309 309 309 308 307 306 306 306 305 304 304 305 305 305 305 305 305 305 305 305 305 305 305 305 305 304 304 303 303 303 303 304
312 311 310 310 310 310 310 309 309 309 308 308 308 308 307 307 306 305 304 304 304 305 305 306 305 305 305 305 305 305 304 304 305 304 304 304 303 303 303 303 303 303
312 311 311 310 310 310 310 309 309 309 308 308 308 307 307 307 305 304 304 304 304 305 305 305 305 305 305 305 304 304 304 304 304 304 304 303 303 302 303 303 303 303
312 312 311 311 310 310 310 309 309 309 308 308 308 308 307 306 304 303 304 304 304 304 304 305 305 304 304 304 304 304 304 304 304 304 304 303 303 302 303 303 303 303
312 312 312 311 310 310 310 309 309 309 309 308 308 307 306 304 303 303 304 304 304 304 304 304 304 303 303 303 303 303 303 303 303 303 303 303 302 302 302 302 302 302
313 312 312 311 310 310 310 309 309 309 308 308 307 306 304 303 303 303 303 303 303 303 303 303 303 302 302 302 302 302 302 302 301 301 302 301 301 302 302 302 302 302
314 312 313 312 311 310 310 310 309 308 308 308 306 305 304 303 303 302 302 302 302 302 302 302 302 302 302 301 301 301 301 301 300 300 300 300 300 301 301 301 302 301
313 314 315 313 312 311 311 310 309 308 308 306 305 304 303 303 303 302 302 302 301 302 302 302 302 301 301 301 301 301 301 301 300 299 298 298 299 299 300 301 301 301
318 317 316 315 312 311 311 310 309 309 307 305 304 304 304 303 303 302 302 301 301 302 302 302 302 301 301 301 301 301 300 300 299 298 297 298 298 299 299 300 300 300
320 320 318 315 313 312 311 310 309 308 306 304 304 304 304 303 303 303 302 302 302 302 302 302 301 301 301 301 301 300 299 298 298 297 297 298 298 298 298 298 298 298
320 320 318 315 313 312 312 311 309 307 305 304 304 304 304 304 304 303 302 302 301 302 302 302 301 301 301 300 299 298 297 297 297 297 297 298 298 298 298 298 298 298
319 318 317 315 313 312 311 310 308 306 304 304 304 304 305 305 304 304 302 301 302 302 302 301 300 300 299 298 297 296 296 297 297 297 297 297 297 297 297 297 297 297
318 316 315 314 313 312 311 309 307 305 304 305 305 305 305 305 304 303 302 302 302 301 300 299 298 297 296 296 296 296 296 296 297 297 297 297 297 297 297 297 297 297
317 315 314 313 312 312 311 308 305 304 305 306 306 305 305 304 303 303 302 302 301 299 297 297 296 295 296 296 296 296 296 296 296 296 297 297 297 296 296 296 296 296
316 314 313 313 312 311 309 306 305 306 306 306 306 305 304 304 303 303 301 299 297 296 295 295 295 295 295 295 296 296 296 296 295 295 296 296 295 295 295 295 295 295
314 312 311 311 310 308 307 306 306 306 306 305 305 304 304 303 303 301 298 296 295 295 294 294 294 294 294 294 294 295 295 295 295 295 295 294 294 294 294 294 294 294
312 311 309 309 308 307 306 306 306 306 305 305 304 304 303 301 299 297 296 296 297 295 294 293 293 293 293 293 293 294 295 295 295 294 294 294 294 294 294 294 293 294
309 309 309 307 306 305 305 305 305 305 304 303 302 301 299 298 297 297 297 298 297 295 294 293 293 293 293 293 292 293 294 295 294 294 293 293 293 293 293 293 293 293
307 308 308 306 304 303 304 305 304 303 302 300 299 298 297 297 297 298 298 298 296 295 294 293 293 293 293 293 292 293 294 294 294 293 293 293 293 292 292 292 292 292

ECMWFNIL_850_thetae_015.txt.gz
Theta_e
312 312 312 312 312 312 312 312 312 311 310 310 309 309 308 308 307 307 307 307 306 306 306 306 305 305 305 305 305 305 305 305 304 304 303 303 303 303 303 302 302 302
313 313 312 312 312 312 312 312 312 311 311 310 310 309 308 308 308 307 307 307 306 306 306 306 305 305 305 305 305 305 305 305 304 304 304 304 303 303 303 302 302 302
313 313 312 312 312 311 311 311 311 311 311 311 310 309 309 308 308 307 307 307 306 306 306 305 305 304 304 305 305 305 305 304 304 304 304 304 303 303 303 303 303 302
314 314 313 312 311 311 311 311 311 311 311 310 310 309 309 308 308 307 307 307 306 306 306 305 304 305 305 305 305 305 304 304 304 303 303 304 303 303 303 303 303 303
315 315 314 312 312 311 311 310 310 310 310 310 310 309 309 309 308 307 307 306 306 306 306 305 304 304 305 305 305 304 304 304 303 303 303 303 303 303 303 303 303 303
316 316 315 313 312 311 310 310 310 310 310 310 310 309 309 309 308 307 307 306 306 306 305 304 304 304 304 304 304 304 303 303 303 303 303 303 303 303 303 303 302 302
317 316 316 314 312 311 310 310 310 310 310 311 310 309 309 309 308 307 306 306 306 306 304 304 304 304 304 304 303 303 303 303 303 303 303 303 303 303 303 303 302 302
317 316 315 314 313 311 310 310 310 310 310 310 310 310 309 309 308 307 306 306 306 305 304 304 304 303 303 303 303 303 303 303 303 303 303 303 303 302 302 302 302 301
318 316 315 315 313 311 310 310 310 310 309 310 310 310 309 309 308 307 306 306 306 304 303 303 303 303 303 303 303 303 303 303 303 303 302 302 302 302 302 302 302 302
319 317 316 315 314 312 311 310 310 310 309 309 310 310 310 309 308 306 306 306 305 303 303 303 303 303 303 303 303 303 302 302 302 302 302 301 301 301 301 301 301 301
319 318 317 316 315 315 313 310 310 310 309 309 310 310 310 309 307 307 306 305 303 303 303 303 303 303 303 302 302 302 302 301 301 301 300 300 300 300 300 300 300 300
320 319 318 316 316 317 316 312 310 310 310 310 310 311 310 309 307 307 306 304 303 303 303 302 302 302 302 302 301 301 300 300 300 300 300 300 299 299 299 299 299 299
319 319 319 318 316 318 319 316 311 310 310 310 311 311 310 308 307 306 304 303 302 302 302 302 302 302 302 301 301 300 300 300 300 300 300 299 299 298 298 298 298 298
320 318 319 319 318 318 320 319 314 311 311 311 311 310 309 308 307 305 303 302 302 302 301 301 301 301 301 301 300 300 300 300 300 300 300 299 298 296 296 296 297 296
322 321 321 321 321 320 321 321 315 312 312 312 311 310 309 308 305 303 303 302 302 301 301 301 301 301 301 301 301 300 300 300 300 300 299 298 296 296 295 296 296 296
323 323 322 322 323 321 321 320 316 313 313 312 310 310 308 306 304 303 303 302 302 302 301 301 301 301 301 301 301 301 301 301 300 299 298 296 295 295 295 296 297 297
323 323 323 322 321 319 317 317 316 314 313 311 310 309 307 305 304 304 303 302 302 302 302 302 301 301 301 301 301 301 300 299 297 296 295 295 295 296 296 296 297 297
320 321 322 321 319 318 316 315 314 313 312 311 309 307 305 305 304 303 303 302 303 303 303 302 301 301 301 301 301 299 297 296 295 295 295 296 296 297 297 297 297 297
317 320 321 321 319 317 317 315 313 312 312 310 308 306 305 305 304 303 303 303 304 303 303 302 301 301 301 300 298 296 295 295 295 295 295 296 296 297 297 297 297 297
312 318 320 320 318 317 316 315 313 312 311 309 307 306 306 305 304 304 304 304 304 303 303 302 301 300 298 296 295 294 294 294 295 294 295 295 295 296 296 297 297 297
311 317 320 319 317 317 315 314 312 311 309 307 305 305 305 304 304 305 305 304 304 303 302 301 299 297 295 294 293 293 293 293 294 294 294 294 294 295 296 296 297 297
312 316 319 318 317 317 315 313 312 310 308 306 304 304 304 305 305 305 304 304 303 302 300 298 297 296 295 294 293 292 292 292 293 293 293 293 294 295 296 296 296 296
313 315 318 318 317 316 313 311 310 309 307 305 304 304 305 305 305 304 304 303 301 299 297 296 297 296 295 294 293 293 292 293 293 293 293 294 294 295 295 296 296 296
313 315 317 317 316 314 311 310 309 308 306 305 305 305 305 305 304 303 302 299 298 297 297 297 297 296 294 293 293 293 293 293 293 293 293 294 295 295 295 295 295 295
314 315 316 315 314 312 311 310 308 306 306 306 305 305 304 303 302 300 298 297 296 297 297 297 296 294 294 293 293 293 292 292 293 293 294 294 295 295 295 295 295 295
314 314 314 314 312 311 309 308 305 305 305 305 304 304 302 300 298 297 296 296 296 296 296 295 294 293 293 293 292 292 292 293 293 294 294 294 295 294 295 295 295 295

ECMWFNIL_850_thetae_018.txt.gz
Theta_e
310 310 311 311 311 311 310 310 310 309 309 310 310 309 308 308 307 307 307 307 306 306 306 306 305 305 304 304 304 304 304 304 304 304 304 304 303 303 303 303 303 302
311 310 311 311 311 311 311 310 310 309 310 310 310 310 309 308 308 308 307 307 306 306 306 306 306 305 304 304 304 304 304 304 304 304 303 303 303 303 303 303 303 303
312 311 312 312 312 311 311 311 310 309 310 310 310 310 310 309 308 308 308 307 307 306 306 306 306 305 304 304 304 304 304 304 304 303 303 303 303 303 303 303 303 303
313 313 313 313 313 312 311 311 310 309 309 309 310 311 310 309 309 308 308 307 307 307 306 306 306 305 304 304 304 304 304 304 303 303 303 303 302 302 303 302 302 302
316 315 314 313 314 313 312 311 310 309 309 309 310 311 310 310 309 309 308 308 307 307 306 306 306 305 304 304 304 304 304 304 303 303 302 302 302 302 302 302 302 302
318 317 316 314 314 314 312 311 310 309 309 309 310 310 310 310 309 309 308 308 307 307 307 306 306 305 304 304 304 304 304 303 303 302 302 302 302 302 302 302 302 301
319 319 318 316 315 314 313 312 311 310 309 310 310 311 310 310 309 309 309 308 307 306 306 306 306 304 304 304 304 304 303 303 302 302 302 302 302 301 301 301 301 301
320 320 320 319 318 316 314 312 311 310 310 311 311 311 311 311 310 309 309 308 307 307 306 306 305 304 304 304 304 304 303 303 302 302 301 301 301 301 300 300 300 300
319 320 320 321 320 318 316 313 312 311 311 311 312 313 312 312 311 310 309 309 308 307 306 306 305 304 303 303 304 304 303 303 302 302 301 301 300 300 300 299 299 299
319 320 320 321 321 320 318 315 314 313 312 312 312 313 314 313 312 310 309 309 308 307 306 306 305 303 303 303 303 303 303 302 302 301 301 300 299 299 299 298 298 298
319 319 319 320 321 321 320 318 316 315 314 313 313 313 314 314 312 310 309 309 308 307 306 305 304 303 303 303 303 303 302 302 302 301 300 299 299 299 298 298 298 297
321 320 319 320 320 321 320 320 319 318 317 315 313 313 314 314 312 311 310 309 308 307 306 305 303 302 302 302 302 302 302 301 301 300 300 299 299 299 298 298 298 297
322 322 321 321 321 321 320 320 320 320 320 318 315 314 313 313 312 311 310 310 308 307 305 304 302 302 302 301 301 301 301 301 300 300 299 299 299 299 299 298 297 296
322 323 323 322 322 321 320 320 320 320 319 318 318 316 314 313 312 311 311 310 308 306 304 303 302 302 301 301 301 301 301 300 300 299 299 299 299 299 297 296 295 294
320 322 323 323 323 322 322 321 320 319 318 316 317 317 315 312 312 312 311 309 307 306 304 302 302 301 301 301 301 301 300 300 300 300 300 299 298 297 295 295 295 295
313 316 319 321 323 323 323 321 319 318 318 316 316 316 315 313 312 311 310 308 307 305 303 302 302 302 302 301 301 300 300 300 300 300 299 297 296 295 294 295 295 295
307 308 311 315 318 321 322 322 320 319 318 317 315 314 313 313 312 311 310 308 306 304 302 302 302 302 302 302 301 301 300 300 299 298 297 295 294 294 294 295 295 295
305 305 306 307 311 314 318 321 321 320 319 317 315 313 313 312 311 310 309 307 305 303 303 302 302 303 303 302 301 301 300 299 297 296 294 294 293 293 294 294 294 294
305 304 304 304 306 309 314 318 320 321 319 317 315 314 313 312 311 310 308 306 304 303 303 303 303 303 303 302 302 301 299 297 295 294 293 293 293 293 293 293 293 294
303 303 303 304 304 307 312 316 319 320 319 316 315 314 312 311 310 308 306 304 303 303 303 304 304 303 303 302 301 299 298 296 295 294 293 292 292 292 292 293 293 294
303 303 303 304 305 308 312 315 317 319 318 316 315 313 312 311 309 307 304 303 303 303 304 304 304 303 302 301 299 297 296 295 294 293 292 292 292 292 293 294 294 294
303 303 303 303 305 309 313 315 317 317 317 316 314 312 311 310 307 305 304 304 304 304 304 304 303 302 300 298 297 296 295 294 293 292 292 292 293 293 294 294 295 295
305 305 304 304 306 310 313 315 316 317 316 315 313 312 311 308 306 304 305 305 305 305 304 302 301 299 298 297 296 295 294 293 292 292 293 293 294 294 294 295 295 295
306 307 307 306 308 311 313 314 315 316 316 314 313 311 309 307 306 305 305 305 304 303 302 300 298 297 296 296 295 293 292 292 292 292 293 293 294 294 295 295 295 295
307 308 308 308 309 311 313 314 315 315 314 313 311 309 307 306 306 306 305 304 303 301 299 297 296 296 295 294 293 292 292 292 292 292 293 293 294 294 295 295 295 295
307 309 309 309 310 311 312 314 314 313 313 311 309 307 305 305 306 305 303 302 300 298 296 295 295 294 293 292 291 291 291 291 292 292 293 293 293 294 294 294 294 294

ECMWFNIL_850_thetae_021.txt.gz
Theta_e
309 309 309 310 310 311 311 311 311 311 311 311 311 310 308 308 307 307 307 306 306 306 306 306 305 305 305 305 305 305 305 305 305 305 304 304 304 304 303 303 303 303
310 310 309 309 310 311 311 312 312 312 311 311 311 311 310 309 308 307 307 307 307 307 306 306 306 305 305 305 305 305 304 304 305 305 304 304 303 303 303 303 303 303
312 311 310 310 310 310 311 311 312 312 312 312 312 312 312 310 309 308 308 307 307 307 306 306 306 306 305 305 304 304 304 304 304 304 304 303 303 303 303 302 302 302
313 312 312 311 310 310 311 311 312 312 312 312 312 313 313 312 311 309 309 308 307 307 307 306 306 306 305 305 304 304 304 304 304 304 304 303 303 303 302 302 302 302
313 314 314 313 312 311 311 311 312 312 312 312 312 313 313 313 312 311 310 308 308 307 307 306 306 306 306 305 304 304 304 304 304 304 303 303 303 302 302 302 302 301
313 314 315 315 315 314 313 313 313 313 313 313 313 313 313 313 314 312 311 310 308 308 307 307 306 306 306 306 305 304 304 304 304 304 304 303 303 302 302 302 301 301
313 314 315 317 317 317 316 315 315 315 314 314 313 313 313 314 314 314 313 311 309 308 308 307 306 306 306 306 305 304 303 304 304 304 304 303 303 303 302 302 301 301
314 315 315 317 317 318 318 318 317 316 316 316 315 314 314 314 314 314 314 312 310 309 309 308 307 306 306 306 305 304 303 303 303 303 303 303 303 303 302 302 301 301
316 315 316 317 318 318 318 319 319 318 317 317 317 317 315 314 314 313 314 313 312 310 309 309 308 306 306 306 305 304 303 303 303 303 303 303 302 302 301 301 301 300
318 317 317 317 318 318 318 319 319 320 320 319 319 319 318 316 314 314 314 313 312 311 309 309 308 307 306 306 305 304 303 303 303 303 303 302 302 301 301 300 300 300
321 320 319 319 318 318 319 319 319 320 320 321 320 320 320 319 317 315 314 313 312 311 310 309 309 308 307 306 305 304 303 303 303 303 303 302 302 301 301 300 300 300
321 321 321 321 320 320 320 320 320 320 320 321 321 321 321 320 318 316 315 314 313 312 310 309 309 308 307 307 306 304 303 303 303 303 302 302 301 301 301 300 300 300
320 321 321 321 321 321 322 322 322 322 321 321 320 320 320 319 318 317 316 315 314 313 311 310 309 308 307 307 306 304 303 303 302 302 302 302 301 301 301 300 300 299
315 318 320 321 322 322 322 322 322 322 322 321 320 320 319 319 317 316 316 315 314 314 312 310 310 309 307 307 305 303 302 302 302 302 301 301 301 301 300 300 299 298
308 309 312 315 317 319 321 322 322 322 322 321 320 318 318 317 316 315 315 315 315 314 311 310 309 309 308 306 304 302 302 302 302 302 301 301 301 300 300 299 298 296
306 306 307 307 309 311 314 316 319 320 321 321 320 319 317 316 315 315 315 315 315 313 311 309 308 308 307 305 303 302 302 302 302 302 301 301 300 300 299 298 296 295
305 306 306 306 306 305 306 307 309 312 315 318 320 320 319 317 316 315 315 315 314 313 311 310 309 308 306 304 302 302 302 302 302 302 301 301 300 299 298 296 295 294
304 304 305 305 305 305 305 304 304 306 310 315 318 319 320 318 316 316 315 314 313 313 311 310 308 307 305 303 302 302 303 302 302 301 301 300 299 298 296 295 294 293
302 302 303 303 304 304 304 304 303 304 307 311 314 316 319 318 316 316 315 314 313 312 311 309 307 305 304 303 303 303 303 303 302 301 300 299 297 296 295 294 293 293
301 301 301 302 302 303 303 303 303 303 305 310 314 316 318 318 316 315 314 313 313 312 310 308 306 304 303 303 303 303 303 302 301 300 299 297 296 295 294 293 293 293
301 301 301 301 302 302 302 303 303 303 305 309 313 316 317 317 317 315 313 313 312 311 308 306 305 304 304 303 303 303 302 301 300 299 297 296 294 293 293 293 293 294
300 301 301 301 302 302 302 303 303 303 304 308 312 315 317 317 316 315 313 312 311 309 307 305 305 304 304 304 303 302 301 299 298 297 295 294 293 293 293 293 294 294
301 302 302 302 302 302 302 302 302 303 305 308 312 315 316 316 315 313 312 311 310 308 306 305 305 304 304 303 302 300 299 297 296 294 293 293 293 293 293 293 294 294
303 303 303 303 303 303 303 303 303 304 306 310 313 314 315 315 314 312 311 310 308 306 305 305 304 303 301 300 299 298 296 295 293 293 292 293 293 293 293 294 294 294
303 304 305 304 304 304 304 305 305 306 308 311 313 314 314 314 312 311 310 308 306 305 304 303 301 300 298 297 296 295 293 292 292 292 292 292 292 293 293 294 294 295
304 305 305 305 305 306 306 306 307 307 309 311 313 314 313 311 311 310 308 306 304 303 301 299 298 297 296 295 293 292 292 292 292 292 292 292 292 293 293 294 294 295

ECMWFNIL_850_thetae_024.txt.gz
Theta_e
309 309 310 309 310 314 313 312 314 313 312 313 314 313 312 309 308 307 307 307 307 307 307 306 306 305 305 305 305 305 305 305 305 305 305 305 304 304 304 304 304 304
309 309 309 309 310 312 312 311 312 313 312 313 313 315 314 310 308 308 307 307 307 307 307 307 307 306 306 305 305 305 305 305 305 305 305 304 304 304 303 303 303 303
310 309 309 309 309 310 310 310 311 312 313 313 313 314 314 311 309 309 308 307 307 307 307 307 307 307 306 306 305 305 305 305 305 305 305 304 304 304 303 303 303 302
311 311 310 309 309 309 309 310 311 312 312 313 313 313 313 312 312 311 309 308 308 308 308 307 307 307 307 306 305 305 304 304 304 304 305 304 304 304 303 303 303 303
311 311 311 311 310 310 310 310 310 310 311 312 313 313 313 313 313 312 312 311 309 308 308 308 308 307 307 306 306 305 305 305 304 304 304 304 304 304 303 303 303 303
311 311 311 311 311 311 311 311 311 310 311 312 313 313 313 313 313 313 313 313 312 310 309 308 308 308 307 307 306 306 305 305 305 304 304 305 304 304 303 303 303 302
310 310 311 311 311 312 312 313 313 313 312 312 313 314 314 314 313 313 314 314 313 312 311 309 309 308 308 307 307 307 306 305 305 304 304 305 304 304 304 303 302 302
311 310 310 310 311 311 312 313 314 315 315 315 315 315 316 316 315 314 314 314 314 314 313 311 310 309 308 308 307 307 306 306 305 304 304 304 304 304 304 303 302 302
315 313 312 311 311 311 311 311 312 314 316 317 317 317 318 318 318 317 316 315 314 314 314 313 312 310 309 308 307 307 307 306 305 304 304 304 304 304 304 303 303 302
318 318 316 316 315 314 313 312 312 312 313 314 317 318 319 319 319 318 318 316 315 315 314 314 313 312 310 309 308 307 307 307 306 305 304 304 304 303 303 303 303 303
320 320 320 320 319 318 317 315 315 314 314 315 316 318 318 319 319 318 318 317 316 316 315 315 314 313 311 310 309 308 307 307 306 305 304 303 303 303 303 303 303 303
321 322 322 321 320 320 320 320 319 319 319 318 319 319 319 319 319 319 318 317 316 315 315 315 314 314 313 311 310 309 308 307 306 305 304 303 303 303 303 303 303 302
321 322 323 322 322 322 322 321 322 322 322 321 321 321 320 320 320 320 320 319 317 316 315 315 315 314 313 312 311 310 309 308 307 306 304 303 303 303 302 302 302 302
314 316 318 319 321 323 323 323 323 322 322 321 321 321 321 322 322 321 321 320 319 317 316 315 315 314 313 313 312 310 309 308 307 306 305 303 303 302 302 303 303 302
307 308 309 310 312 314 316 319 321 322 322 321 321 321 321 321 322 321 321 320 319 317 316 316 315 314 314 314 313 310 309 308 307 306 304 303 302 302 302 303 303 302
304 305 306 306 307 307 308 310 312 314 316 318 319 320 321 320 320 320 319 319 318 317 316 315 315 315 315 314 313 310 309 308 307 306 304 302 302 302 302 302 302 302
302 302 303 304 304 305 306 306 306 307 307 309 312 315 317 319 319 319 319 317 316 316 316 315 315 315 314 314 313 311 308 307 306 304 303 302 302 302 302 302 302 301
303 303 303 304 303 303 304 304 305 305 305 305 305 306 311 316 319 319 319 318 316 315 315 315 314 314 314 313 312 310 308 306 305 303 303 302 302 302 302 301 301 300
301 303 304 305 305 303 303 302 303 303 303 304 305 303 306 312 317 319 319 318 317 316 315 315 314 314 314 313 311 310 308 305 303 303 303 302 302 302 301 301 300 299
302 303 304 304 304 303 302 301 302 303 302 302 303 304 304 306 311 316 318 317 317 316 315 314 314 314 313 312 311 309 307 304 303 303 303 302 302 302 301 300 298 296
302 304 305 304 303 302 301 301 301 302 302 302 304 307 309 309 311 314 316 317 317 316 314 314 314 313 312 311 310 308 306 304 303 303 303 302 302 301 300 297 296 294
302 303 305 305 305 305 304 303 302 301 301 302 304 309 312 313 313 314 316 317 317 316 314 314 313 312 311 311 308 306 305 303 303 302 302 301 300 299 297 295 294 294
301 303 305 306 307 308 308 307 304 303 303 303 305 310 312 313 314 314 315 316 317 315 314 314 312 311 310 308 306 305 303 302 301 300 299 298 297 296 294 293 293 293
303 304 306 307 308 308 309 309 307 306 307 308 309 311 312 312 313 313 314 316 316 315 314 313 311 310 308 306 305 304 303 301 299 298 296 295 295 294 294 294 293 293
305 306 306 307 308 308 308 309 309 308 309 310 310 312 312 312 312 313 314 315 314 313 312 311 310 308 306 305 303 302 302 301 299 296 294 294 294 294 295 295 294 294
306 307 307 307 308 308 309 309 309 309 309 309 310 311 311 311 311 313 314 314 312 311 310 309 308 306 304 302 301 300 300 299 297 294 293 293 293 293 294 294 295 295

ECMWFNIL_850_thetae_027.txt.gz
Theta_e
320 320 320 317 316 319 319 318 319 320 319 318 319 319 318 318 313 309 312 312 310 309 308 307 308 306 307 305 307 312 310 306 306 306 306 306 305 305 304 304 304 304
321 321 321 319 318 318 319 319 319 319 320 318 318 319 319 319 315 309 310 311 310 310 308 308 308 307 308 307 305 309 309 306 306 306 306 306 305 305 304 304 303 303
318 321 321 321 319 318 319 320 319 319 320 318 318 318 319 319 316 311 310 311 311 311 309 308 309 307 308 308 306 308 308 306 306 306 306 306 305 305 304 304 304 303
314 318 320 321 320 320 320 321 320 319 319 319 318 317 319 319 316 312 312 311 311 312 310 309 309 308 309 308 307 309 308 306 306 305 306 306 305 305 304 304 304 303
315 315 317 319 320 321 321 322 321 320 319 320 320 318 318 318 315 313 313 312 312 313 312 310 310 309 309 308 309 311 310 308 307 305 306 307 305 305 305 304 305 303
321 320 318 318 320 321 321 322 322 321 320 320 320 319 319 318 315 314 314 313 313 314 313 312 311 310 310 309 309 311 310 311 311 306 307 309 307 306 305 304 305 305
323 323 321 320 320 321 322 322 322 322 321 321 321 321 320 319 317 316 316 315 315 315 315 314 312 311 311 309 310 311 310 312 312 307 308 311 310 307 306 305 305 306
321 322 322 320 320 321 322 322 322 323 323 322 322 321 320 320 319 318 318 318 317 317 317 316 314 313 312 311 311 311 310 310 310 307 309 312 311 308 308 307 305 305
318 319 319 319 319 319 320 321 321 322 323 323 323 322 322 321 320 319 319 319 318 319 318 318 316 315 314 313 312 311 310 309 309 308 308 310 308 307 310 310 307 305
320 319 319 318 318 319 318 319 318 319 320 322 322 322 322 322 321 320 320 320 320 320 320 319 319 317 316 314 313 312 311 311 310 309 308 308 307 307 309 309 307 306
322 322 321 320 319 319 319 319 319 318 318 319 320 320 320 322 322 321 320 320 320 320 320 320 319 318 317 316 314 313 313 311 311 310 309 308 308 307 307 307 305 304
323 323 323 323 322 321 321 320 319 319 318 317 319 321 322 321 322 321 320 321 321 321 320 320 319 319 318 317 315 314 314 313 312 311 310 309 309 308 307 306 305 304
321 322 323 324 324 323 323 322 321 320 320 318 319 322 323 323 322 322 321 321 321 321 321 320 320 319 318 317 316 316 315 314 313 312 311 310 309 308 307 306 305 304
315 317 318 320 321 322 323 324 324 323 322 321 322 323 323 323 323 322 322 321 321 321 321 321 320 319 318 317 317 316 315 315 313 312 312 311 310 308 307 306 305 304
310 311 311 312 316 318 319 321 321 321 322 322 322 323 323 323 323 322 322 321 321 321 321 321 320 319 318 318 317 316 315 315 314 313 312 310 310 308 307 306 305 304
307 308 308 309 311 313 315 317 318 319 320 320 320 321 321 322 322 322 322 322 322 321 321 320 320 319 318 318 317 316 315 315 314 313 312 311 309 308 307 306 305 303
308 308 308 309 309 310 311 313 315 316 319 319 318 318 318 319 319 320 321 322 322 320 320 319 318 318 318 317 316 315 315 314 314 313 312 311 309 308 306 305 304 303
308 308 308 309 309 310 310 311 312 313 316 318 318 318 317 317 317 317 316 319 320 320 320 319 318 318 317 316 316 315 314 314 313 313 312 311 309 307 305 304 303 303
308 308 309 309 309 310 310 311 311 312 313 315 316 316 316 317 317 316 313 313 316 318 319 319 318 317 316 316 316 315 314 313 313 312 312 310 308 307 305 304 303 303
308 308 309 309 309 310 310 311 312 312 312 313 314 315 316 316 316 316 315 314 315 316 316 317 317 317 317 316 316 314 314 313 312 311 310 309 308 307 306 305 304 303
309 309 309 309 309 309 310 310 311 312 312 313 313 314 315 315 315 315 315 316 315 314 315 317 317 317 317 316 315 314 313 313 312 310 309 309 307 306 305 304 304 303
309 310 310 309 309 309 310 310 311 312 312 312 312 313 314 314 315 315 315 315 314 313 315 317 316 316 316 316 315 314 313 312 311 310 309 308 306 304 304 303 303 302
309 309 310 310 310 310 310 310 311 311 312 313 313 312 313 313 314 315 315 315 314 314 315 316 315 315 315 315 314 313 312 311 309 308 307 305 304 303 302 302 301 300
308 309 309 309 310 310 310 311 311 311 312 313 313 313 313 313 313 313 314 314 314 314 315 315 315 314 314 313 312 311 310 309 306 304 303 302 301 301 301 300 300 299
308 308 309 309 309 310 310 310 311 311 312 313 313 313 313 312 312 313 313 314 314 314 314 314 314 314 312 310 309 308 308 307 305 303 302 301 300 299 299 299 299 298
307 308 309 309 309 310 310 310 311 311 311 312 312 312 312 312 312 312 312 313 314 313 312 312 313 312 310 308 307 307 306 305 304 303 302 300 298 296 296 296 296 297

ECMWFNIL_850_thetae_030.txt.gz
Theta_e
320 320 317 314 317 318 314 315 319 319 318 319 320 319 318 315 311 309 309 309 309 308 308 308 308 308 307 307 310 310 307 306 306 306 307 306 305 305 304 304 304 305
319 320 318 314 316 320 318 317 319 320 319 319 319 320 319 317 314 311 310 309 309 309 308 309 309 308 308 307 307 308 307 307 306 306 306 306 306 305 304 304 303 305
319 321 321 317 316 319 320 319 319 320 320 319 318 319 319 318 316 312 311 310 310 310 309 309 309 308 308 308 307 308 307 307 306 306 306 306 306 305 304 304 303 304
319 321 322 321 319 319 319 320 320 320 321 321 319 318 319 318 316 314 312 312 311 311 310 309 309 309 309 308 308 308 308 308 307 306 306 306 306 306 305 304 304 304
319 322 322 322 322 320 319 320 321 321 320 321 320 318 319 318 317 315 313 312 312 312 311 310 309 309 309 309 309 309 308 308 307 307 307 306 306 306 306 305 305 304
321 323 324 324 323 322 321 321 321 321 320 320 320 320 319 319 318 317 315 314 313 313 313 312 311 310 310 310 309 309 309 309 308 307 307 307 307 306 306 306 306 305
324 324 325 324 322 321 320 321 321 321 320 319 320 320 320 320 319 319 318 317 316 315 315 314 314 313 312 311 310 310 309 309 309 308 308 308 308 308 307 307 306 306
323 324 323 321 319 319 319 319 320 319 318 318 319 320 321 321 320 320 321 319 319 318 318 317 317 316 315 314 312 311 310 310 310 309 309 309 309 308 307 307 307 307
320 320 320 319 318 319 319 320 320 320 318 317 319 320 320 321 321 321 321 320 320 320 320 320 320 319 318 317 315 314 312 312 311 310 309 309 309 309 308 308 308 307
319 319 319 320 320 319 320 320 320 320 318 318 319 318 319 320 321 321 321 320 321 320 320 320 320 320 320 319 318 316 315 314 313 312 311 310 310 310 309 310 310 308
320 321 321 321 320 320 319 320 321 321 320 319 319 319 320 321 321 321 321 320 320 320 320 320 320 320 320 319 318 317 316 315 315 314 313 312 312 311 310 311 311 309
323 324 323 322 321 320 319 319 320 321 321 320 319 318 319 321 322 322 321 321 321 320 320 321 320 320 320 320 319 318 317 316 316 316 315 313 313 312 311 311 311 309
322 322 322 322 321 320 320 320 319 319 320 321 320 318 318 320 321 320 319 319 320 320 320 320 320 320 320 319 319 318 318 317 317 316 315 315 314 313 312 312 310 309
315 315 315 316 316 317 318 319 319 318 319 320 320 319 319 320 321 320 318 318 319 319 319 320 320 320 320 320 319 319 318 318 317 317 316 315 314 313 313 312 311 309
311 312 311 310 311 313 316 317 317 318 318 317 317 318 318 319 320 320 319 318 318 318 318 319 319 318 319 319 320 319 319 318 318 317 316 315 314 314 313 312 311 310
308 309 309 309 310 312 314 314 315 316 317 316 315 315 315 316 317 318 319 319 319 319 319 319 318 317 318 319 320 320 319 318 318 317 316 316 314 313 312 312 311 310
308 309 309 309 309 310 310 311 312 313 314 314 315 315 315 315 314 313 313 314 316 319 320 320 320 320 320 319 319 320 319 318 318 317 317 316 314 313 312 311 311 310
308 309 309 309 309 309 310 310 311 311 311 312 314 315 316 316 315 314 312 311 312 315 317 320 320 320 321 320 319 319 319 318 318 317 317 315 313 313 312 311 310 310
308 308 308 309 309 309 309 309 310 311 311 311 313 313 314 316 317 317 317 316 315 314 315 318 318 317 318 320 320 319 319 318 317 316 316 315 313 312 312 311 310 310
308 308 309 309 309 309 309 309 309 310 311 311 312 312 313 314 315 316 317 317 317 315 313 316 317 315 314 317 318 319 319 318 317 316 315 314 313 312 312 311 310 310
308 309 309 310 309 309 309 309 309 309 309 310 311 311 311 312 313 314 315 315 316 315 315 316 318 317 315 315 317 318 318 317 316 316 315 314 313 312 312 311 310 309
308 309 310 310 310 310 310 309 309 309 310 310 311 311 311 311 312 312 313 314 314 315 316 317 317 317 317 316 317 317 317 316 316 315 315 314 312 312 311 309 308 307
307 308 309 309 309 310 310 310 310 310 310 310 310 311 312 312 312 312 313 313 314 314 315 316 316 316 317 317 317 317 317 316 315 314 314 313 311 310 309 307 306 306
307 307 308 308 309 309 309 309 309 309 310 310 310 310 312 312 312 312 312 313 313 314 314 315 315 315 315 316 316 317 316 315 314 313 313 311 309 307 306 305 304 303
307 307 307 308 308 309 309 309 309 309 309 309 310 310 311 311 312 312 312 312 312 313 313 314 314 314 314 315 316 316 315 314 313 313 311 308 306 305 303 302 301 301
307 307 307 307 308 308 309 309 309 310 310 310 310 311 311 311 312 311 312 312 312 312 313 313 314 314 313 314 315 315 314 313 313 312 309 307 305 303 302 302 302 301

ECMWFNIL_850_thetae_033.txt.gz
Theta_e
318 316 314 312 312 311 310 310 311 311 311 311 312 313 312 311 310 309 308 308 308 308 308 307 307 307 307 307 307 306 306 306 306 306 306 306 306 305 305 305 305 305
319 318 314 313 315 314 312 311 313 313 312 313 313 313 313 313 313 311 310 309 309 308 308 308 308 308 307 307 307 307 306 306 306 306 306 306 305 305 304 304 304 304
319 319 315 314 317 318 316 315 317 317 317 316 315 314 314 314 314 313 311 311 310 310 309 309 308 308 308 307 307 307 307 306 306 306 306 306 305 305 304 304 304 304
319 320 318 314 317 319 319 318 319 319 320 319 317 316 315 314 314 313 313 312 311 311 311 310 309 309 308 308 308 307 307 307 306 306 306 306 305 305 305 304 304 304
321 320 320 317 316 319 320 319 319 320 320 320 319 318 316 316 315 315 315 314 313 313 312 312 311 310 309 309 308 308 308 307 307 307 306 306 306 306 305 305 305 305
322 321 321 320 318 319 319 319 319 320 320 320 320 319 318 318 318 318 317 317 316 316 315 314 313 313 312 311 309 309 309 308 308 308 307 307 307 306 306 306 305 305
323 322 322 322 321 320 320 319 320 320 320 320 320 320 320 320 320 320 319 319 319 319 318 317 316 315 315 314 313 311 310 309 309 309 309 308 308 307 307 306 306 306
322 323 322 322 322 321 321 320 320 320 321 320 319 319 320 320 320 320 320 320 320 320 320 319 318 318 318 317 317 315 313 311 310 310 310 309 308 308 308 308 307 307
322 324 324 324 323 323 322 321 321 321 321 319 318 317 318 319 320 321 321 320 321 320 320 320 320 319 319 319 319 318 317 315 313 312 312 311 310 309 309 309 308 308
323 324 324 323 322 320 320 322 321 321 320 319 318 317 318 319 320 321 321 321 320 319 319 319 320 320 320 320 320 320 319 318 316 315 314 313 312 311 310 311 309 308
323 323 322 322 320 319 320 322 321 320 320 320 319 318 318 318 319 320 320 321 320 318 318 319 320 320 320 319 320 320 320 319 318 317 316 315 314 313 312 312 311 310
321 321 320 320 320 320 321 322 322 321 320 320 319 318 317 317 317 318 318 318 317 317 317 318 319 319 319 318 319 318 319 320 319 318 317 316 316 315 313 313 312 312
322 321 322 322 322 322 321 321 321 321 320 319 319 319 319 318 318 318 318 317 317 318 318 318 318 317 317 317 318 317 317 319 319 319 318 318 317 316 315 314 313 312
318 318 318 318 319 319 319 319 319 319 319 319 319 319 319 319 319 319 319 318 318 319 319 319 318 317 316 317 319 317 316 318 319 319 318 318 317 317 316 315 314 313
312 313 311 311 313 315 315 315 315 315 316 317 317 317 317 318 319 319 320 320 319 320 320 319 319 318 318 318 319 319 317 318 319 319 318 318 318 317 316 315 314 313
309 309 309 308 310 311 312 312 311 311 312 313 314 314 314 315 316 316 317 318 319 320 320 320 318 318 318 318 318 319 318 318 319 319 318 318 318 317 316 316 315 314
308 308 309 309 309 310 310 310 310 310 311 311 312 312 313 314 315 315 314 314 315 317 319 319 319 318 319 319 319 319 318 317 318 319 318 317 317 317 317 316 315 315
309 309 309 308 309 309 309 310 310 311 311 311 311 312 313 314 314 315 314 313 313 313 314 316 316 315 317 319 320 320 320 319 318 319 318 317 317 317 317 316 315 315
307 307 308 308 308 309 308 308 309 310 310 311 311 311 312 313 313 314 314 314 314 313 313 314 314 313 314 315 316 317 319 319 319 319 318 317 316 316 316 316 315 315
307 307 308 308 308 308 308 307 307 306 306 307 307 306 307 308 309 311 312 313 314 314 314 314 315 315 314 313 311 312 316 319 319 318 317 316 316 316 316 315 314 314
307 308 308 309 309 309 308 308 307 306 306 306 306 305 304 303 304 305 307 310 313 314 315 315 315 315 314 313 313 314 316 317 318 319 317 315 315 315 315 314 313 312
307 308 308 309 309 309 308 308 307 307 307 307 307 307 307 306 305 305 305 307 310 311 312 313 314 314 314 313 314 316 316 316 317 318 317 315 314 314 314 313 312 311
307 307 307 308 308 308 309 309 308 308 308 308 308 307 308 308 308 309 309 308 309 310 311 312 312 313 313 313 314 316 316 316 316 316 316 315 314 313 312 311 310 310
307 307 307 307 307 307 307 308 308 308 308 308 308 308 308 309 309 310 311 310 310 311 311 312 312 312 313 313 313 314 315 316 316 316 315 313 313 312 311 310 310 310
306 306 306 305 305 305 305 306 306 307 307 307 308 307 308 308 309 309 310 310 310 310 311 312 312 312 313 313 313 314 314 315 315 315 314 312 311 311 311 311 310 309
306 306 305 306 306 306 306 306 307 308 308 308 308 308 309 309 309 309 310 310 310 311 311 311 311 312 313 313 314 313 313 314 314 314 313 312 311 310 311 310 308 307

ECMWFNIL_850_thetae_036.txt.gz
Theta_e
318 318 317 313 309 309 309 309 310 310 310 309 308 308 308 308 307 307 307 307 307 307 307 307 307 307 306 306 306 306 306 306 306 306 306 306 305 305 305 305 305 305
320 320 320 317 312 310 310 309 311 311 311 312 311 310 309 309 309 308 308 308 307 307 307 307 307 306 306 306 306 306 305 305 306 306 305 305 304 304 304 304 304 304
320 319 320 319 315 313 312 311 313 314 314 315 314 313 312 311 311 310 310 309 309 309 308 308 308 307 307 307 306 306 306 306 306 305 305 304 304 304 303 304 304 303
319 318 319 320 317 316 315 313 314 316 316 316 316 316 315 313 312 312 311 311 311 311 311 310 309 309 308 307 307 306 306 306 306 306 305 305 304 304 304 303 303 303
319 318 319 320 319 319 317 316 316 318 318 317 317 317 317 315 314 314 314 314 313 313 312 312 311 311 310 309 308 308 307 307 307 306 306 305 305 305 305 304 304 304
320 319 320 320 320 320 320 318 318 319 319 319 318 317 317 317 317 317 318 317 317 316 315 314 313 313 313 312 311 310 309 308 308 308 307 307 306 306 306 306 305 304
320 320 321 320 319 320 321 320 319 319 319 320 319 318 318 318 318 319 319 319 318 318 318 318 317 316 316 315 314 313 311 310 309 308 308 308 307 307 307 306 306 305
321 321 321 319 318 319 320 320 320 319 319 320 320 319 319 319 319 320 319 320 319 319 319 319 319 319 319 318 317 316 314 313 312 311 310 309 309 309 308 308 307 307
322 321 321 321 321 320 320 320 321 320 320 320 320 320 320 320 320 320 320 320 320 320 320 320 319 319 319 319 319 319 318 317 317 316 314 313 311 310 310 310 309 308
322 322 322 322 322 322 320 321 321 320 320 321 320 320 320 320 320 320 320 321 320 320 320 320 319 318 319 319 319 319 319 319 319 319 319 317 315 314 313 313 312 311
322 323 322 322 323 322 321 321 320 320 320 321 320 320 320 320 320 320 320 321 321 321 321 320 319 318 318 319 319 319 319 319 319 319 319 319 319 318 317 316 315 314
322 322 322 322 323 322 321 321 319 318 319 320 319 319 320 320 320 319 320 321 321 321 321 321 319 317 317 318 318 319 318 317 318 318 318 319 319 319 318 317 317 316
320 320 321 322 322 322 321 321 320 320 321 320 319 319 320 320 319 319 319 319 319 320 320 320 319 317 317 317 318 318 316 314 316 317 317 318 318 318 318 317 317 316
319 319 321 321 321 320 320 321 321 321 321 320 319 320 320 320 320 320 320 319 319 319 319 319 318 318 319 319 318 317 315 313 315 317 317 317 318 318 318 318 317 316
318 318 318 319 319 319 319 320 320 319 319 319 319 319 319 319 319 319 320 319 319 320 319 319 319 319 320 320 319 318 316 316 317 317 318 318 318 318 318 317 317 317
313 313 312 312 314 315 316 316 315 315 316 316 316 316 315 316 317 316 316 316 317 317 318 319 320 320 320 320 320 319 318 318 318 319 320 319 319 318 318 318 317 317
309 309 309 309 310 311 311 311 311 312 312 312 312 312 313 315 316 316 315 315 315 315 315 315 317 318 320 320 320 320 319 319 319 319 320 319 319 319 319 318 317 317
308 309 309 309 309 309 309 310 310 310 310 310 311 311 311 313 314 314 315 315 315 315 315 314 313 314 315 318 319 320 320 320 320 320 320 319 319 319 319 318 317 317
308 308 308 308 308 308 309 309 309 310 310 310 310 310 311 311 311 312 312 313 314 314 315 315 314 313 312 313 314 316 318 319 319 319 319 319 319 319 318 318 317 316
307 307 307 307 308 308 308 308 307 307 307 307 307 307 308 307 308 308 309 311 312 312 313 313 314 314 314 312 311 312 314 315 316 316 316 317 318 318 318 317 316 316
306 306 307 307 308 308 308 307 307 306 304 303 303 304 304 304 304 304 304 306 307 309 310 311 312 313 314 314 313 313 313 313 314 315 315 315 316 317 317 316 316 316
307 307 307 308 308 308 308 307 307 305 303 302 302 302 302 303 303 303 302 302 303 304 305 307 309 311 312 312 313 313 313 312 313 314 314 314 314 315 315 315 315 315
306 306 307 307 308 308 308 307 307 306 305 305 304 303 303 303 303 303 302 302 302 302 302 303 305 308 310 311 311 312 313 313 312 313 314 315 315 315 315 315 314 314
306 306 306 307 307 307 307 307 307 307 307 307 306 306 306 306 305 303 302 302 302 302 302 302 303 306 309 311 311 312 313 313 313 313 314 315 315 315 314 314 313 313
306 306 306 306 306 305 305 305 305 305 306 306 306 306 306 307 306 304 303 303 303 303 303 304 304 306 308 310 311 312 313 314 314 314 314 314 314 313 313 312 312 311
305 306 306 305 305 305 305 305 305 306 306 307 308 308 308 308 307 306 306 305 305 305 306 306 307 308 309 310 311 311 312 313 314 314 314 313 313 312 312 311 310 310

ECMWFNIL_850_thetae_039.txt.gz
Theta_e
322 316 310 308 309 309 309 309 308 308 307 307 307 307 307 307 306 306 306 306 306 306 306 306 306 306 306 306 306 306 306 306 306 306 306 306 305 305 305 305 305 305
318 313 310 309 308 309 309 309 309 308 307 307 307 307 307 307 307 307 307 307 306 306 306 305 305 306 305 305 305 305 305 305 305 305 305 304 304 304 304 304 304 303
312 313 314 313 311 310 308 309 309 309 309 308 307 308 307 308 307 307 307 307 308 307 307 307 306 306 306 306 305 305 305 305 305 305 304 304 304 303 303 303 303 303
311 315 318 318 318 314 310 309 310 311 312 311 310 310 309 309 309 309 309 308 308 308 308 308 308 307 307 307 307 306 306 305 305 305 305 304 304 303 303 303 303 303
313 317 318 320 321 318 314 311 311 313 314 314 314 314 313 312 311 311 311 311 311 311 310 310 309 309 308 308 308 307 307 307 307 306 306 306 305 305 304 304 304 304
314 317 318 320 322 319 317 315 314 315 316 316 316 316 316 316 315 314 314 315 315 315 314 313 312 311 310 309 309 308 308 308 308 308 307 307 307 306 306 305 305 305
316 319 319 321 321 320 319 318 315 317 318 318 318 318 318 318 317 317 317 318 318 318 317 316 315 314 313 312 312 311 310 309 308 308 308 308 308 307 307 306 306 305
318 321 321 321 321 320 320 318 315 317 319 319 319 319 319 318 318 318 317 318 318 318 318 318 318 317 317 317 316 315 314 312 311 310 309 309 308 308 308 308 307 307
318 321 321 321 321 320 318 317 316 319 320 320 320 319 319 319 319 319 318 318 318 318 318 319 319 319 319 318 318 318 317 316 316 315 314 313 311 310 310 309 309 309
319 321 321 321 320 320 317 314 315 319 320 320 320 320 319 319 319 319 319 319 319 318 319 319 320 320 319 319 318 319 319 319 319 318 318 318 317 316 315 314 313 313
321 322 321 321 320 320 317 314 315 318 319 319 319 320 320 319 319 319 319 319 319 319 319 320 320 320 319 318 318 318 318 319 319 319 319 319 319 319 318 317 317 316
321 321 321 321 320 320 320 318 318 318 319 320 320 320 320 319 319 318 319 319 318 318 318 318 319 319 319 319 318 318 318 318 319 319 318 318 318 319 319 319 318 318
318 320 321 322 321 322 321 319 319 319 319 319 318 319 319 319 319 318 318 317 317 317 318 318 318 319 320 319 319 319 318 318 318 318 316 316 317 318 318 318 318 318
317 319 321 321 320 320 319 319 318 317 317 317 318 319 320 320 319 318 317 317 316 317 318 319 319 320 319 319 318 318 319 319 319 318 315 314 315 317 317 317 318 318
320 321 321 320 318 318 318 318 317 316 317 318 319 319 319 319 319 318 317 316 317 318 319 320 320 319 319 319 319 319 320 320 319 318 317 316 316 317 318 318 318 318
320 319 318 316 316 316 316 317 318 318 318 318 318 318 318 318 318 317 317 317 317 318 319 319 319 319 319 320 320 320 320 320 320 319 319 318 318 319 319 319 319 318
314 312 311 311 311 312 313 314 314 314 315 315 315 315 315 315 316 317 318 318 318 317 317 316 315 316 316 317 318 319 320 320 320 320 320 319 319 320 319 319 319 319
309 308 308 309 309 310 310 310 310 310 311 311 312 312 312 313 314 316 316 316 317 316 316 315 314 314 314 314 315 316 317 318 319 319 320 320 320 320 319 319 319 319
307 308 308 308 308 309 309 309 309 310 310 310 311 310 311 311 311 312 312 312 313 313 313 313 312 312 312 312 312 313 314 314 315 315 316 316 317 317 317 318 318 318
308 308 308 308 308 308 308 308 308 308 308 308 308 308 308 308 308 307 307 307 308 309 309 310 311 311 311 311 312 313 314 314 313 312 312 313 313 314 314 315 316 317
307 307 307 307 307 308 308 308 308 307 307 306 305 304 304 304 304 303 303 303 303 303 304 305 306 307 309 310 311 312 313 314 313 313 312 312 312 312 312 312 313 315
306 306 306 307 307 308 308 308 308 307 306 305 303 303 303 303 303 303 302 302 302 301 301 302 302 302 304 306 309 310 311 311 312 312 312 312 312 311 311 311 311 313
306 306 306 307 308 308 308 308 307 307 306 305 305 305 306 306 305 305 304 303 302 302 301 301 301 301 301 302 304 307 309 310 311 312 313 313 312 312 311 311 312 313
306 306 306 307 307 307 307 307 307 307 307 306 306 306 307 306 306 305 305 304 303 302 301 302 302 302 302 302 303 304 307 309 310 311 313 314 313 313 312 311 312 313
306 306 306 306 306 306 306 306 306 306 305 305 305 305 305 305 306 305 305 305 305 303 301 302 302 303 303 303 304 305 307 308 310 311 312 313 313 313 313 312 312 312
305 305 305 305 305 305 305 304 304 304 304 305 305 306 306 306 307 307 307 307 307 306 304 304 304 304 304 304 304 306 307 308 309 310 311 313 313 313 313 312 312 312

ECMWFNIL_850_thetae_042.txt.gz
Theta_e
322 321 321 317 310 308 308 307 307 306 306 306 306 306 306 306 306 306 306 306 306 307 306 306 306 306 306 305 305 305 305 305 305 305 305 305 304 304 304 304 303 303
322 321 322 319 311 308 309 308 307 307 307 307 306 307 306 306 306 306 306 306 306 306 306 306 306 305 305 305 305 305 305 304 305 304 304 304 304 304 303 303 303 303
320 319 319 316 310 308 309 309 308 307 307 307 307 307 307 307 307 307 307 307 306 306 306 306 306 306 306 305 305 305 305 304 304 304 304 304 303 303 303 303 303 302
319 316 314 313 309 308 309 309 309 308 307 307 307 307 307 307 307 307 307 307 307 307 307 307 306 306 306 306 305 305 305 305 305 305 305 305 304 304 304 303 303 303
322 317 312 311 311 310 311 310 309 309 309 308 308 307 308 308 308 309 309 309 309 310 309 309 308 308 307 307 306 306 306 306 306 306 306 306 306 306 306 305 305 305
324 319 312 312 314 316 317 313 310 310 310 310 310 309 311 312 312 312 312 312 313 313 314 313 312 311 310 309 308 307 307 306 306 306 306 306 306 307 307 307 307 306
326 321 314 313 316 319 320 318 313 312 312 312 312 313 315 316 316 317 316 316 317 317 317 317 316 315 314 313 312 311 310 308 307 307 307 307 307 307 307 307 307 307
326 323 316 313 317 320 321 320 317 316 316 314 313 315 317 318 318 319 318 318 318 318 318 318 318 317 316 316 315 315 315 314 312 311 310 309 309 308 308 308 307 307
325 323 317 314 317 320 321 320 319 318 318 316 315 317 318 318 319 319 319 318 317 318 318 319 318 318 317 317 317 317 317 317 316 315 315 314 314 312 311 310 309 309
325 323 319 316 318 320 321 321 319 318 317 316 316 318 319 319 319 318 318 318 318 318 318 318 319 318 318 317 317 318 318 318 318 318 318 318 317 316 315 314 312 312
324 322 319 317 319 321 321 321 320 318 316 314 315 318 319 318 318 318 317 317 318 319 319 319 319 318 318 317 317 317 318 318 319 319 319 319 319 319 318 317 316 314
324 322 319 317 318 321 321 321 320 319 317 315 314 315 316 316 317 317 316 317 318 318 318 318 318 318 317 317 317 317 317 317 318 318 318 319 319 319 318 318 318 317
323 321 319 318 319 321 321 320 320 320 319 317 315 314 315 317 317 316 316 317 318 318 318 317 317 317 317 317 317 317 316 317 318 319 318 318 319 318 317 317 317 317
322 322 321 321 321 320 320 320 320 320 320 319 318 317 317 318 317 317 317 317 317 318 318 317 317 316 317 317 318 319 318 319 319 319 319 319 319 318 316 315 316 317
322 321 320 320 321 319 319 320 320 319 319 318 317 317 316 316 317 317 318 317 317 318 318 317 317 317 318 319 319 319 319 319 319 319 319 320 320 319 317 316 317 317
321 320 319 320 321 320 320 319 319 318 317 317 317 317 317 317 317 318 318 318 318 318 318 317 317 317 317 318 318 318 319 320 320 320 320 320 319 319 319 318 318 319
321 320 320 320 319 319 318 318 318 317 317 316 317 317 317 316 316 316 317 317 317 317 316 316 316 315 315 314 315 316 317 318 319 319 319 320 320 320 319 319 319 319
316 316 316 315 315 315 315 315 314 314 314 314 314 313 313 313 313 314 315 316 316 315 315 315 315 314 314 313 313 314 314 315 315 316 316 317 317 318 318 318 318 318
310 310 310 310 310 311 311 311 311 310 311 311 311 311 311 311 311 312 312 313 313 313 313 314 313 313 313 313 313 313 313 314 314 314 314 314 313 313 313 313 313 313
307 308 308 308 308 308 309 309 309 309 309 309 309 310 309 309 309 309 309 309 309 309 309 309 309 309 310 310 311 311 312 313 314 314 314 314 313 312 311 311 311 311
307 307 307 308 308 308 308 308 308 308 308 308 308 307 306 306 306 305 305 305 304 304 304 304 303 304 304 304 305 306 307 309 311 312 312 312 312 311 312 311 311 310
307 307 307 307 308 308 308 308 308 308 307 306 305 304 303 303 304 304 304 303 303 302 302 302 301 301 302 302 302 302 303 304 306 308 309 309 310 311 312 312 312 311
307 306 306 307 308 308 308 308 308 308 307 306 306 305 305 305 305 305 304 304 304 303 303 302 302 301 301 302 303 302 302 303 304 305 307 309 310 311 312 312 312 312
306 306 306 307 307 308 308 308 308 307 307 307 306 307 306 306 306 305 305 304 304 303 303 303 302 301 301 302 302 302 302 303 303 304 307 308 310 310 311 312 312 312
306 306 306 306 307 307 307 307 307 307 307 306 306 306 305 305 305 305 305 305 304 304 303 303 303 302 302 302 302 302 302 302 302 303 304 307 308 310 311 311 311 311
306 306 306 306 306 306 306 306 306 306 306 305 305 304 304 304 305 305 305 305 305 304 304 304 304 304 303 303 303 303 303 302 302 301 302 305 307 309 310 310 310 309

ECMWFNIL_850_thetae_045.txt.gz
Theta_e
318 316 314 311 309 308 308 307 306 306 306 306 306 306 306 306 306 306 306 306 306 306 306 306 306 305 305 305 305 305 304 304 304 304 304 304 304 304 304 303 303 303
320 319 317 316 311 308 308 307 307 306 306 306 306 306 306 306 306 306 306 307 306 306 306 306 306 306 305 305 305 305 305 304 303 303 303 303 303 303 303 303 303 303
322 320 319 318 313 308 308 308 307 307 307 307 307 306 307 306 307 307 307 307 307 307 307 306 306 306 306 306 305 305 305 304 304 303 303 303 302 302 302 303 303 302
322 320 319 318 313 309 308 308 307 307 307 307 307 307 307 307 307 307 307 307 308 308 308 308 308 307 307 307 306 305 305 305 305 304 304 303 303 303 303 303 303 303
322 320 317 316 313 309 308 309 308 308 307 307 307 307 307 307 307 308 308 309 310 311 311 311 310 309 309 308 307 307 307 306 306 306 305 305 304 304 304 303 303 304
323 321 317 314 312 310 308 309 308 308 308 307 307 307 308 308 309 310 311 312 313 314 315 315 314 313 312 311 310 309 309 309 308 308 307 307 306 305 305 304 304 304
322 321 319 316 313 311 312 312 310 309 309 309 309 309 308 309 311 313 314 315 316 316 317 317 317 317 316 315 314 314 313 312 311 311 310 309 308 307 307 306 305 305
322 323 322 320 316 314 317 318 313 310 310 311 311 312 312 312 314 316 317 318 318 318 317 318 318 318 318 317 317 317 316 316 315 314 313 312 311 311 310 309 309 308
322 324 324 324 319 315 318 321 316 312 312 313 312 313 314 315 316 318 319 318 318 318 318 318 318 318 318 318 318 318 318 318 318 317 316 316 315 314 314 313 312 311
322 323 324 325 322 318 318 321 319 316 315 315 314 312 314 317 318 318 319 318 318 318 318 319 319 319 318 318 318 317 316 318 318 318 318 317 317 317 317 317 316 314
324 324 324 324 322 319 318 321 321 319 318 317 316 314 315 318 319 319 319 318 317 316 316 317 319 318 318 318 318 316 316 316 317 318 318 318 318 318 319 319 318 317
325 325 324 324 322 319 318 320 321 320 320 318 317 315 315 316 318 318 318 317 316 315 315 316 317 318 317 317 317 317 316 316 317 317 317 318 318 319 319 319 319 319
325 325 324 323 322 320 319 320 321 321 321 320 318 316 315 314 315 315 315 315 315 314 314 315 316 316 316 316 316 317 317 317 317 317 317 317 318 319 319 319 319 318
325 324 323 322 320 319 319 320 321 321 321 320 319 319 317 316 316 315 315 315 316 316 315 315 316 317 317 318 317 317 317 317 318 318 317 318 319 319 319 319 319 318
323 322 322 321 321 320 320 320 321 321 320 320 320 320 319 319 318 317 317 317 317 317 317 317 317 318 318 318 317 317 317 319 319 319 319 319 319 319 319 319 319 318
323 322 321 321 320 320 320 320 320 320 319 319 319 319 318 317 317 317 316 316 317 317 317 318 317 318 318 317 317 317 317 316 316 317 318 319 319 319 319 319 319 318
322 322 321 320 319 320 320 320 319 319 319 319 318 317 317 317 317 317 316 316 317 317 317 317 317 317 316 316 315 314 313 313 312 313 314 316 317 318 318 318 317 316
322 321 321 320 320 319 320 319 319 319 318 318 317 316 316 315 315 316 316 317 317 317 316 316 316 316 315 314 314 313 313 312 312 312 312 313 314 314 314 314 314 313
317 317 317 317 317 317 317 317 317 317 316 315 314 314 313 312 313 314 315 315 315 315 315 315 314 314 313 313 313 312 312 312 311 312 313 313 313 313 312 312 311 311
310 310 311 311 312 312 313 313 312 312 312 312 311 311 311 310 310 311 311 311 311 311 311 311 310 310 310 309 308 308 307 307 308 309 310 311 312 313 312 312 311 311
308 308 308 309 309 309 310 310 310 309 310 309 309 309 309 308 308 308 307 307 306 306 305 305 304 304 303 303 303 303 303 303 303 303 305 306 309 310 311 310 311 312
307 308 308 308 308 308 308 308 308 308 308 307 307 306 306 305 305 304 304 304 304 303 303 303 302 302 302 301 301 301 301 302 302 302 302 303 304 307 308 309 311 312
307 307 308 308 308 308 308 308 308 307 307 307 306 305 304 304 304 304 304 304 304 304 303 303 303 303 302 302 301 301 301 301 301 302 302 302 302 304 307 309 311 312
306 306 306 306 306 307 307 308 308 308 307 307 306 305 305 305 305 305 305 304 304 303 304 303 303 303 302 302 301 301 301 301 301 301 301 301 302 303 305 308 310 311
305 305 305 305 305 305 307 308 308 308 307 307 307 306 306 305 306 305 305 304 304 304 303 303 303 302 302 302 302 302 301 301 301 301 301 301 301 301 303 306 308 309
306 306 306 306 306 306 306 307 307 307 306 306 306 306 305 305 305 304 304 303 303 303 303 303 302 302 302 302 302 302 301 301 301 302 303 303 302 300 302 304 305 305

ECMWFNIL_850_thetae_048.txt.gz
Theta_e
315 315 313 308 308 307 306 308 307 306 307 307 307 308 307 306 306 306 306 306 306 305 305 305 305 305 305 304 306 307 306 304 304 304 304 304 304 304 304 303 304 306
317 319 317 310 308 307 306 306 306 306 306 306 306 306 306 306 306 306 306 306 306 306 306 306 305 305 305 305 304 305 304 303 303 303 303 303 303 303 303 303 302 304
320 320 320 315 309 307 307 306 306 306 306 306 306 306 306 306 306 306 307 307 307 307 306 306 306 306 306 305 305 305 305 304 304 303 303 303 303 303 303 303 303 304
321 321 322 320 314 308 307 307 307 307 306 306 307 307 306 307 307 307 307 307 307 308 308 308 307 307 307 307 307 306 305 305 305 305 305 304 304 304 303 304 304 304
322 322 322 322 318 310 307 307 307 307 307 307 307 307 307 307 307 307 308 309 309 310 310 310 310 310 309 308 309 309 309 309 306 306 307 305 305 305 305 305 305 305
323 324 323 322 321 314 308 307 307 307 307 307 307 307 307 308 308 308 309 311 312 313 313 313 313 313 312 312 312 312 314 313 308 308 312 310 308 307 306 307 307 306
323 324 323 322 322 317 310 307 307 307 307 307 308 307 308 308 308 310 311 313 315 316 316 316 316 316 316 316 316 315 315 314 310 311 315 314 311 310 309 309 309 309
323 325 323 322 322 320 313 308 308 307 308 308 307 307 308 309 310 311 313 315 316 317 318 318 318 318 318 318 318 318 317 317 315 314 315 314 313 314 314 311 310 312
324 324 323 322 322 320 315 311 309 308 309 309 308 308 308 309 312 313 315 317 318 317 318 318 318 318 318 318 318 319 318 318 318 317 317 317 316 317 317 315 314 314
325 325 324 323 323 321 317 314 313 310 310 310 310 310 311 311 314 315 316 318 318 318 318 317 317 317 318 319 319 318 318 317 318 318 318 318 318 318 318 318 317 317
326 325 323 323 323 322 318 317 318 315 311 312 313 313 313 314 315 316 317 318 319 318 318 317 317 317 318 319 319 319 318 317 316 317 317 318 318 318 319 319 319 318
326 323 323 324 323 322 320 318 320 319 315 313 314 314 314 314 315 317 318 319 319 319 318 316 316 315 316 317 318 318 317 316 316 317 317 317 318 318 319 319 319 319
325 323 323 323 322 322 320 318 320 321 319 316 316 316 315 315 316 318 318 319 319 318 317 316 315 315 315 316 317 317 317 317 317 318 317 317 317 318 318 319 320 319
325 323 324 324 323 322 320 318 319 321 321 320 318 318 317 316 316 316 316 317 317 316 315 315 315 315 315 315 316 317 318 318 318 318 318 318 318 318 318 319 319 319
324 323 323 323 323 322 320 319 320 321 322 321 320 319 318 318 317 316 316 317 316 316 316 317 317 316 316 316 317 318 318 318 318 318 318 319 320 320 320 319 319 319
324 323 322 321 320 320 320 320 320 322 323 321 320 320 319 319 319 319 319 319 319 318 318 318 317 317 317 317 317 317 317 317 317 317 318 318 319 320 319 318 318 318
324 323 322 322 321 321 321 321 320 321 321 319 319 319 319 318 319 319 318 318 318 318 318 318 318 318 317 317 316 315 314 314 314 313 313 313 314 317 317 316 315 315
323 322 321 321 321 321 321 321 320 320 320 319 319 319 319 319 318 318 318 318 318 319 319 318 318 317 316 315 314 313 311 311 311 311 312 312 312 314 316 315 315 314
321 321 321 320 321 320 320 320 320 320 320 319 320 319 318 317 317 317 317 317 318 318 318 317 316 316 315 313 313 312 311 310 308 308 309 310 310 311 313 314 313 312
317 318 317 317 318 318 318 319 318 318 318 317 316 315 314 314 315 316 316 316 316 316 315 315 315 314 313 312 311 309 307 305 304 303 304 304 304 305 308 310 311 311
314 314 313 313 314 314 315 315 315 315 314 313 313 313 312 312 313 313 313 313 312 312 311 310 309 307 306 305 304 303 302 302 301 301 302 302 302 302 304 306 308 309
311 311 311 312 312 312 313 312 311 311 311 311 312 312 312 312 311 310 309 308 308 309 308 305 303 303 302 302 302 301 301 302 303 303 302 302 302 302 302 304 306 308
310 310 310 310 310 311 311 310 309 309 309 310 310 310 310 309 308 308 308 306 306 308 308 305 303 303 303 302 302 301 302 304 307 307 304 301 301 301 302 303 304 306
309 309 309 310 310 310 309 308 308 308 309 309 310 310 309 309 308 307 307 306 305 306 307 306 304 303 302 302 302 301 301 305 309 309 305 302 301 301 301 301 303 305
308 308 308 309 309 308 308 307 307 308 308 308 310 310 310 309 308 308 307 306 305 304 304 305 304 302 302 301 301 301 301 304 309 310 308 306 305 304 302 301 301 303
308 308 308 308 308 308 307 307 307 307 306 307 308 310 310 309 309 309 308 306 305 303 303 303 303 302 301 301 301 301 301 302 307 309 308 308 308 307 305 303 301 301

ECMWFNIL_850_thetae_051.txt.gz
Theta_e
322 323 322 318 316 316 319 320 319 319 319 319 318 316 312 311 311 310 307 305 305 305 305 305 306 307 309 312 314 314 311 308 308 307 306 307 306 305 305 305 309 314
326 326 325 323 321 319 320 320 319 319 319 319 317 313 307 305 306 306 305 305 305 305 305 305 305 308 309 309 310 311 307 306 308 307 305 306 306 305 304 303 307 313
324 325 325 324 320 315 313 313 312 316 320 320 315 308 304 305 305 305 305 306 306 305 305 305 305 307 308 306 307 308 306 305 306 305 304 305 305 305 305 305 309 314
322 322 319 315 312 308 307 307 307 311 317 317 311 306 306 307 306 306 306 306 306 306 306 306 307 308 308 308 308 307 307 306 306 307 306 305 305 306 306 307 310 313
321 322 317 309 307 308 307 306 306 307 309 309 307 306 307 307 307 308 307 307 307 307 307 307 307 308 308 310 311 310 309 308 308 310 309 307 308 308 308 307 308 312
320 323 320 313 308 307 307 307 307 307 306 306 306 306 307 308 309 308 308 309 309 308 309 308 308 308 309 312 316 317 317 314 311 313 314 312 311 311 312 312 312 311
321 323 323 319 314 309 307 306 306 307 307 307 306 307 307 308 309 309 308 310 313 315 315 313 310 310 311 315 318 319 319 317 315 318 319 316 314 313 314 314 314 314
321 324 324 322 321 315 310 307 307 307 307 307 307 307 308 308 309 309 308 311 317 320 321 319 318 316 317 320 320 318 318 318 318 320 320 318 317 317 316 313 312 315
322 324 324 324 324 321 316 313 311 309 307 307 308 307 308 310 311 309 308 313 319 322 322 322 322 320 320 321 320 319 319 319 319 319 319 319 320 320 319 318 316 316
322 322 325 326 324 322 320 317 315 313 311 310 311 310 310 312 314 312 313 317 320 321 321 322 323 322 321 321 321 321 321 321 320 320 320 320 321 321 320 321 320 320
322 323 326 326 324 322 321 318 316 317 317 316 316 316 315 315 315 316 319 320 321 321 321 322 322 322 322 322 322 321 321 322 321 321 322 322 322 322 321 321 321 321
325 325 325 326 324 324 324 322 319 319 318 318 319 320 319 319 318 319 321 321 321 322 322 322 322 321 320 322 323 322 321 321 320 320 321 321 322 322 320 320 320 320
327 327 326 326 326 325 325 323 322 321 319 319 321 321 321 321 320 321 322 321 322 322 322 322 322 321 321 322 322 321 322 322 321 319 319 320 321 322 321 321 321 320
325 327 327 326 325 325 323 321 321 321 321 321 321 321 321 322 321 322 322 322 322 322 322 322 322 322 322 322 322 322 322 323 322 320 319 320 320 321 321 321 321 320
324 326 326 325 324 324 322 321 320 319 321 322 321 321 321 321 321 321 322 322 322 323 322 322 323 322 320 320 321 322 322 322 321 320 320 320 319 318 319 320 320 320
326 326 324 323 324 322 321 322 321 319 320 320 321 321 320 319 319 319 320 321 320 321 322 322 321 320 318 318 319 319 318 319 319 319 319 319 317 317 317 318 318 318
326 325 323 323 323 322 321 322 321 320 320 319 319 321 320 320 320 319 319 319 317 318 321 321 320 319 318 318 318 318 317 317 319 319 318 318 318 316 316 316 317 318
325 324 323 322 323 323 322 321 321 321 321 320 320 320 319 319 319 318 319 318 316 318 320 319 318 318 318 318 317 316 315 315 317 319 318 318 318 316 316 316 317 318
324 324 323 322 323 322 322 321 321 321 320 319 318 318 317 318 318 318 319 318 318 319 319 318 318 318 317 316 314 314 312 311 315 317 316 317 317 316 316 316 316 316
323 323 323 322 321 321 321 321 320 320 320 319 319 319 318 318 318 318 318 317 318 319 318 317 317 316 315 314 313 312 308 307 308 309 311 313 311 311 313 314 313 314
319 319 320 320 320 320 320 319 319 319 319 318 318 318 317 317 317 316 315 316 317 317 316 316 316 315 314 312 309 306 303 303 303 305 309 311 308 305 308 309 309 310
314 315 315 316 317 317 318 318 317 317 317 316 316 315 315 316 315 314 313 315 316 314 313 312 311 310 308 305 304 302 301 305 309 310 313 313 310 307 307 306 304 305
313 313 313 314 314 314 315 315 315 316 315 315 315 315 314 315 314 313 313 313 313 313 311 308 305 304 303 301 302 302 302 307 312 312 313 313 312 310 307 303 300 302
312 312 312 313 313 313 314 313 313 313 313 313 314 314 313 314 313 313 312 311 311 312 312 308 303 302 303 302 302 302 301 305 310 312 312 311 312 312 309 303 299 300
311 312 312 312 312 312 313 312 312 312 312 312 312 311 312 312 312 311 311 311 311 312 311 310 307 303 302 302 302 302 301 304 309 311 310 310 311 311 310 306 301 301
310 311 311 311 311 311 312 311 311 311 312 312 311 311 311 311 310 311 310 311 312 310 308 309 309 304 302 302 302 302 301 302 307 310 309 309 310 309 310 309 305 303

ECMWFNIL_850_thetae_054.txt.gz
Theta_e
321 323 323 321 319 317 319 320 317 316 316 314 313 310 307 307 308 306 305 306 305 305 306 305 307 309 312 314 311 307 305 306 306 306 305 305 305 307 310 313 314 314
318 323 322 321 320 318 319 316 314 317 317 314 312 308 305 305 305 305 305 305 305 305 305 304 305 306 307 307 306 305 305 305 305 305 305 305 304 305 309 313 316 313
319 324 323 321 320 318 317 316 316 318 317 314 311 305 305 305 304 305 305 304 305 305 305 305 304 305 305 304 304 304 304 304 304 304 304 304 304 305 309 312 314 311
321 325 324 322 320 317 315 315 318 318 316 314 310 305 305 305 305 306 306 306 306 305 306 306 305 305 305 305 305 305 306 305 305 305 305 306 306 307 309 310 310 309
322 324 325 324 319 314 313 312 314 316 316 313 308 305 306 305 306 307 307 307 307 307 308 307 307 307 307 307 307 307 307 308 307 308 307 308 309 308 309 309 309 309
321 322 324 324 318 312 310 309 310 312 314 313 307 305 306 306 306 307 308 309 309 308 309 308 308 309 308 308 309 309 309 308 309 310 309 309 309 310 310 311 310 309
318 319 321 320 315 310 308 307 307 309 311 310 307 306 306 306 308 308 308 309 309 309 309 308 309 309 308 310 311 312 310 308 310 315 315 311 309 311 310 310 312 312
318 320 322 320 313 308 307 307 307 307 308 308 307 307 306 307 308 308 308 309 309 309 309 309 309 309 309 313 314 312 311 311 313 318 319 315 314 315 314 311 312 313
321 323 324 324 317 309 307 307 307 307 307 307 307 307 307 310 312 311 312 314 312 312 313 313 315 314 315 319 318 315 316 317 317 319 319 317 317 319 319 317 315 314
321 322 323 325 323 317 310 307 307 307 307 306 307 307 307 312 316 314 312 315 317 318 319 320 321 319 319 321 321 319 320 319 318 318 318 317 318 320 321 321 319 318
318 319 321 324 326 323 317 311 308 306 307 306 308 310 310 315 320 316 312 314 318 321 322 321 322 321 320 321 321 321 321 320 319 320 319 319 320 321 321 321 320 320
321 321 322 323 323 321 320 318 314 310 310 309 310 314 315 318 321 320 317 318 320 321 321 321 322 322 321 321 320 319 320 320 321 322 321 321 321 321 320 321 321 320
324 323 321 320 319 320 321 322 320 318 318 316 316 318 317 318 319 320 320 321 320 320 320 321 321 321 321 322 320 318 319 321 321 321 320 320 319 318 318 319 320 319
323 321 320 320 320 321 322 323 322 321 321 319 319 320 320 319 320 320 320 320 320 320 320 321 320 318 319 320 319 318 318 320 320 319 318 317 317 317 317 318 318 317
324 323 322 321 320 320 322 324 323 322 321 319 318 320 320 320 320 320 320 321 321 321 320 320 319 318 318 320 320 319 319 319 318 318 317 316 317 317 317 318 317 315
325 325 324 322 322 321 322 322 322 322 322 319 319 319 319 319 320 320 320 321 321 320 319 318 318 318 319 320 320 319 319 320 319 317 316 315 316 317 316 317 317 315
325 325 324 323 324 324 322 321 320 321 322 321 320 320 319 319 319 320 320 320 319 318 318 317 317 317 317 317 318 318 318 319 318 317 316 315 316 316 315 316 318 317
324 324 324 323 323 323 322 322 321 321 321 321 321 320 319 319 319 319 319 318 318 318 318 317 316 316 316 316 318 318 317 317 317 317 317 316 316 316 316 316 317 317
323 324 323 323 323 322 321 322 321 321 321 321 320 320 319 319 319 320 319 319 319 318 317 316 316 317 317 317 317 317 315 316 318 317 316 317 316 316 316 316 316 316
321 322 322 321 322 320 320 320 320 321 321 320 320 320 319 319 319 319 319 318 318 317 316 316 316 317 317 316 315 314 313 313 315 315 316 316 316 316 316 315 316 316
320 320 320 320 320 319 319 319 319 319 319 319 319 318 318 318 318 317 317 317 316 316 316 316 316 316 315 314 313 311 309 306 307 312 314 314 312 313 313 313 313 314
317 318 318 318 319 318 318 318 318 318 318 318 318 317 317 317 316 316 316 316 317 317 315 315 315 314 313 312 310 306 304 302 305 312 314 313 312 310 308 308 308 310
314 315 315 316 316 317 317 316 315 315 316 315 316 316 315 316 316 315 316 317 316 315 313 312 312 312 311 308 304 302 302 303 308 313 314 314 312 309 307 306 305 306
313 313 314 314 314 315 315 315 314 315 314 314 314 314 314 315 314 313 315 316 315 313 311 309 308 307 305 302 301 302 302 304 310 313 313 313 312 310 308 306 302 302
312 313 313 313 313 313 314 313 313 314 314 313 313 313 314 314 313 313 314 314 314 314 312 308 304 302 302 302 302 302 302 304 309 312 311 311 312 311 310 308 304 303
311 311 312 312 312 312 313 312 312 312 312 312 312 312 312 313 312 312 312 312 312 313 313 311 306 303 303 303 302 303 302 302 307 311 311 310 311 310 310 310 308 307

ECMWFNIL_850_thetae_057.txt.gz
Theta_e
322 318 310 307 308 308 312 317 318 318 315 311 310 309 309 308 307 306 305 306 306 308 312 315 316 316 312 309 307 306 306 306 306 309 314 314 313 313 313 314 316 317
323 318 311 308 309 311 315 318 319 317 313 312 312 309 308 308 307 305 305 305 305 305 307 310 312 311 308 306 305 305 305 305 305 306 308 310 310 309 309 312 316 318
323 317 311 310 311 314 319 320 318 316 314 314 313 309 307 306 305 304 305 304 304 304 305 305 306 306 305 304 304 304 304 304 304 304 305 307 308 306 306 308 312 316
324 317 314 313 314 319 321 319 318 317 315 313 311 308 306 305 305 305 305 305 304 304 305 304 305 305 305 305 305 305 305 305 306 306 307 308 307 307 306 306 307 309
323 320 319 319 319 322 322 318 318 318 314 312 309 306 305 305 305 306 305 305 306 306 306 306 306 307 307 307 307 307 307 307 308 308 309 309 309 309 309 309 309 308
323 322 322 322 322 322 322 319 319 319 316 313 309 305 305 306 306 306 306 306 307 307 308 307 307 308 308 308 308 308 308 309 310 310 309 309 310 310 309 310 310 310
325 324 323 323 323 322 321 320 320 320 318 314 309 305 306 307 307 307 307 307 308 308 308 309 309 309 310 311 311 310 312 314 315 314 312 311 312 311 310 310 309 310
326 326 325 323 323 323 322 320 319 319 318 315 308 305 306 307 307 308 307 308 308 308 308 308 309 309 311 314 314 313 315 318 320 319 317 316 317 315 312 310 310 310
327 327 326 325 324 323 321 319 315 313 315 314 308 306 307 307 308 308 308 309 309 310 311 310 311 312 313 317 317 316 318 320 320 320 319 318 319 319 317 315 314 313
326 324 325 324 321 318 316 314 311 309 313 314 309 306 306 307 308 308 311 314 315 316 317 316 317 318 319 321 321 318 318 319 319 319 318 319 320 320 320 319 318 317
323 320 320 320 316 314 311 309 309 309 310 310 308 307 307 308 309 310 315 319 319 319 319 319 319 320 321 322 322 319 318 318 318 318 318 318 320 320 320 320 319 319
320 317 318 319 317 315 312 309 309 308 307 307 307 307 307 309 312 313 315 319 319 319 320 319 320 321 320 320 320 319 319 318 318 318 318 318 319 320 320 320 320 319
319 316 318 321 320 319 317 315 313 309 307 306 307 307 307 311 316 317 316 317 317 318 320 319 319 320 320 318 318 319 319 318 317 317 318 318 318 318 319 319 319 319
319 318 321 323 323 321 319 319 318 315 312 308 307 309 311 314 318 320 318 317 318 319 319 319 319 319 319 318 319 320 319 318 317 317 317 317 317 317 317 316 317 318
320 321 322 323 323 321 320 320 320 320 317 314 312 312 315 317 319 319 319 319 319 320 320 320 319 319 318 318 318 319 319 318 317 317 317 316 316 316 317 317 317 318
323 323 323 323 322 320 319 319 320 321 320 319 318 318 318 318 318 318 318 319 320 320 319 320 320 319 318 318 318 318 319 319 317 316 317 316 316 316 316 317 317 317
324 323 323 323 321 320 320 319 319 321 321 321 321 320 320 320 319 319 319 318 319 319 320 320 319 318 317 317 317 318 319 318 317 317 316 316 315 315 316 317 317 317
324 323 322 321 320 320 320 319 319 321 322 322 321 320 320 320 320 320 320 319 319 319 320 320 318 317 317 316 316 317 317 317 317 317 316 315 315 315 315 316 316 315
321 321 320 319 320 321 321 320 319 320 321 322 321 320 320 320 320 320 319 319 319 319 319 318 317 317 317 316 316 316 316 317 317 317 316 315 316 315 315 316 316 315
318 318 319 320 322 322 322 322 321 321 320 320 320 321 321 321 321 319 319 319 319 319 319 318 318 318 317 316 317 317 317 317 317 316 316 316 316 316 316 315 315 315
318 318 319 321 321 321 321 321 321 320 320 319 320 320 321 321 320 319 319 319 319 319 319 318 318 317 316 317 317 316 316 316 317 316 316 316 316 316 316 316 315 315
319 319 320 319 319 319 319 319 319 319 319 319 320 320 320 320 319 319 319 318 318 317 317 317 316 316 316 316 314 313 313 314 315 316 316 316 316 316 316 316 315 314
316 318 318 318 317 317 317 317 318 319 319 319 319 318 318 317 317 317 317 316 316 316 316 316 316 315 314 313 312 311 309 308 311 314 315 315 315 315 315 315 314 314
312 314 315 316 316 316 315 314 315 316 316 316 316 316 315 315 315 315 315 314 315 316 315 314 313 313 313 312 310 307 303 305 311 314 314 313 311 310 310 310 310 310
312 312 312 313 314 314 314 314 314 314 313 313 313 313 313 314 313 313 312 312 313 314 313 311 310 311 311 309 306 302 302 308 313 315 314 313 311 309 308 307 306 304
311 312 311 312 312 312 313 314 314 313 313 313 313 313 313 313 312 312 312 311 311 312 311 310 309 308 307 304 302 301 304 309 313 313 314 314 312 310 309 308 306 304

ECMWFNIL_850_thetae_060.txt.gz
Theta_e
325 325 323 318 314 312 311 314 318 319 318 317 314 312 308 307 311 316 316 314 312 310 309 308 306 306 306 306 307 310 315 318 317 317 318 318 318 319 319 320 320 321
328 328 324 317 311 310 314 317 319 319 317 315 313 309 307 306 307 309 311 310 310 309 308 307 307 306 306 306 306 306 309 311 311 310 311 313 315 316 317 318 320 321
329 327 321 313 309 311 316 319 319 319 316 312 310 307 306 306 305 306 307 308 308 307 307 307 306 305 305 305 305 305 306 306 305 306 306 307 310 312 315 318 320 321
327 324 318 312 309 311 315 320 321 320 316 311 309 308 307 306 305 305 305 306 306 306 306 305 304 304 304 304 304 304 304 305 305 305 305 305 306 311 317 319 320 321
325 323 320 314 311 312 318 322 321 319 316 313 311 308 306 304 304 305 304 305 305 305 305 304 304 304 304 304 305 305 306 307 308 307 307 306 306 309 315 319 320 320
324 324 321 316 314 317 321 322 320 319 317 315 312 309 306 304 304 304 304 305 305 304 305 304 305 305 305 306 307 308 309 309 309 309 309 309 308 308 310 313 315 317
325 324 321 318 319 322 323 321 319 319 319 316 313 310 307 304 304 306 306 307 306 306 306 306 307 307 307 308 308 309 309 309 309 309 309 309 310 309 309 309 310 313
325 323 322 321 322 322 321 320 320 320 319 318 314 311 309 308 307 308 310 309 309 309 309 309 309 308 309 308 309 310 311 311 310 309 310 309 309 309 309 309 309 311
324 323 323 323 322 320 319 320 321 319 318 317 313 310 312 313 310 309 311 310 309 310 311 313 314 312 312 311 309 310 313 315 314 314 313 313 311 310 309 310 310 311
325 323 323 323 322 321 320 320 320 319 318 317 313 309 311 315 312 310 310 308 309 311 313 316 318 316 314 314 312 313 315 317 318 318 317 316 316 314 312 311 311 311
325 323 322 321 322 322 322 321 320 321 320 317 313 309 308 312 312 310 310 308 309 312 313 316 316 314 313 314 315 315 316 317 318 318 317 317 318 317 316 315 315 313
323 322 319 319 321 321 321 320 318 319 319 318 316 311 307 309 311 310 310 310 311 314 316 316 315 314 314 315 316 316 316 317 318 318 317 317 318 318 319 319 318 317
322 322 319 320 321 317 316 315 314 314 314 315 317 313 307 308 310 310 311 311 312 315 317 318 318 318 318 318 317 317 317 318 318 318 318 317 318 319 320 320 320 319
323 322 321 321 320 316 314 314 315 313 311 312 315 313 308 309 309 309 310 311 313 316 318 319 320 320 320 320 319 318 318 319 318 317 318 318 318 319 320 321 321 320
321 321 321 319 318 317 317 317 315 311 310 312 314 311 309 310 311 311 311 311 312 315 318 320 320 319 320 320 320 319 318 319 319 318 317 317 318 318 318 319 319 319
321 320 320 317 317 317 318 318 316 313 312 312 311 311 311 311 313 315 315 313 312 315 319 320 320 319 319 319 319 318 318 319 319 318 318 317 317 317 317 317 317 317
320 319 319 318 317 317 317 319 319 318 317 314 312 313 315 315 315 317 318 317 315 316 319 320 320 320 319 319 319 318 317 318 319 319 318 317 317 317 316 316 317 317
320 319 319 319 319 318 318 320 320 320 319 318 317 317 318 318 318 318 318 318 318 319 320 320 320 320 320 319 319 318 317 317 318 319 319 317 316 316 316 316 317 318
322 321 321 322 322 321 320 320 321 321 321 321 320 320 320 320 319 319 319 319 319 320 320 319 319 320 320 319 318 317 317 317 317 318 318 317 316 315 315 316 318 318
324 323 323 323 323 322 321 320 320 321 322 321 322 321 321 321 320 320 320 319 320 320 320 319 319 320 320 319 318 317 317 316 316 317 316 316 316 315 316 317 318 318
323 323 323 322 321 321 321 321 321 322 322 321 322 322 321 321 321 320 320 320 320 320 319 319 319 319 319 318 318 318 317 316 316 317 316 316 315 315 316 317 317 316
321 322 321 321 321 321 321 322 322 322 321 321 321 321 321 321 321 321 321 321 320 320 319 318 319 319 319 318 318 317 317 317 317 317 316 315 315 315 316 316 316 315
320 321 321 321 320 320 320 320 320 320 320 321 320 320 321 320 320 320 321 321 320 319 319 318 318 318 318 318 317 317 317 317 317 316 316 316 315 315 315 316 315 315
317 317 318 320 319 319 318 317 317 318 318 319 319 319 319 319 319 319 319 319 318 318 317 317 317 317 317 316 316 316 317 317 316 316 316 315 315 315 315 315 315 315
312 313 314 315 315 316 317 317 317 316 316 316 316 316 316 317 316 316 316 316 316 316 316 316 316 316 316 315 315 315 315 315 315 315 314 315 316 316 315 315 315 315
311 311 311 312 312 313 315 316 316 315 314 314 314 314 314 314 314 313 313 313 313 313 315 315 315 314 314 314 313 313 312 312 311 311 312 314 315 315 315 315 314 313

ECMWFNIL_850_thetae_063.txt.gz
Theta_e
328 326 319 314 315 315 314 315 317 318 313 311 312 311 310 314 318 319 318 318 316 313 308 305 306 308 311 315 320 322 323 322 321 320 320 321 321 321 322 321 322 322
328 324 318 317 318 319 319 318 318 319 315 311 311 310 309 312 316 318 318 318 316 312 309 307 306 306 308 312 318 321 322 321 320 318 318 318 319 320 320 320 321 322
326 322 321 321 320 321 322 319 318 319 317 311 308 307 307 309 314 317 318 317 315 312 310 309 307 305 305 307 312 317 318 319 319 317 317 317 318 318 318 318 320 322
324 324 325 324 323 322 320 318 319 321 320 314 308 306 307 308 310 313 316 316 314 312 311 310 307 305 305 305 307 310 312 312 312 312 314 316 316 316 317 318 319 321
326 326 327 326 325 321 317 318 321 321 318 313 308 307 307 307 307 308 310 312 312 312 311 309 306 304 305 305 305 306 307 306 306 306 308 312 314 316 318 319 319 319
327 327 327 326 323 319 317 320 322 319 314 310 308 308 308 306 306 306 307 309 310 310 309 307 305 304 304 304 304 305 306 305 305 305 306 310 314 317 318 319 319 318
328 327 326 323 321 319 319 320 320 317 312 309 308 307 307 305 305 305 306 307 308 307 306 304 303 304 304 305 306 307 307 307 306 306 306 309 314 317 318 319 319 317
327 326 324 322 321 320 320 320 319 316 312 309 307 307 305 304 304 304 305 306 306 305 304 304 305 306 306 307 308 309 309 309 308 308 308 308 310 314 315 317 319 318
326 325 323 322 321 320 321 321 320 317 315 310 307 306 305 304 304 304 304 305 305 305 305 305 306 307 308 308 309 309 309 309 309 309 309 309 309 309 311 313 315 317
325 324 323 322 321 322 322 320 320 319 316 311 307 306 305 305 305 305 305 305 306 307 307 307 308 308 309 309 309 309 309 309 309 309 310 310 309 309 309 310 312 314
324 324 322 321 322 322 320 319 320 319 315 310 308 307 305 306 307 306 306 307 307 308 308 308 308 308 308 309 309 310 311 312 313 313 314 314 312 311 310 309 310 312
324 324 321 321 323 322 320 319 317 314 312 311 311 310 307 306 307 307 308 308 308 309 309 309 309 309 309 309 309 310 311 314 317 317 317 316 316 315 314 312 311 312
324 323 320 321 322 319 316 315 312 311 313 314 314 312 309 307 307 307 308 308 308 309 310 310 310 310 311 311 312 312 312 314 317 318 317 316 316 317 316 316 316 316
323 322 320 320 319 315 312 312 311 313 317 317 315 313 311 309 308 307 307 308 308 310 311 312 313 313 313 314 316 316 315 315 316 317 318 317 317 317 317 317 317 318
322 321 320 320 318 315 312 312 314 317 317 315 313 312 312 311 309 307 308 309 310 312 314 315 316 317 318 318 319 319 318 317 317 317 318 318 317 317 317 318 318 318
323 322 321 319 316 313 311 314 318 319 315 313 313 313 312 311 309 308 310 312 314 316 317 317 319 320 320 320 320 320 319 319 318 318 319 318 318 318 318 318 318 318
323 322 321 319 317 315 315 318 318 316 313 314 314 313 311 309 308 308 310 313 315 317 317 317 318 319 320 321 320 319 319 319 319 318 319 319 319 319 318 317 317 317
323 322 321 321 321 319 318 318 316 314 313 313 311 310 308 307 307 308 310 313 315 317 316 315 316 318 320 320 320 319 319 319 319 318 318 319 320 320 319 318 317 317
322 321 321 321 320 319 319 318 318 317 315 313 312 310 307 307 308 310 312 315 318 318 317 316 316 318 320 320 320 320 320 319 319 318 317 317 318 319 319 319 318 317
321 321 320 320 320 320 320 320 320 320 318 317 316 314 311 311 312 312 314 317 318 319 319 318 318 318 320 320 320 320 320 319 318 317 316 317 317 317 318 318 317 316
321 321 321 321 321 321 320 321 321 320 319 319 319 318 316 315 316 317 317 318 319 320 320 319 319 319 320 320 320 320 320 319 318 317 317 317 316 316 316 316 316 315
321 322 322 321 322 321 320 320 320 319 319 319 319 320 319 317 318 319 319 320 320 319 319 319 319 319 320 319 320 319 319 319 318 318 318 317 317 316 316 316 316 316
320 321 321 321 321 321 321 321 320 320 320 319 319 320 320 319 318 318 319 319 318 318 317 318 318 319 319 319 319 319 319 319 318 318 317 317 316 316 316 315 316 317
317 318 319 319 320 320 320 320 320 320 320 320 319 320 320 320 319 319 319 319 320 319 319 319 319 319 319 319 319 319 319 318 318 317 317 317 317 316 315 315 317 317
313 314 315 315 316 316 317 318 319 319 319 320 319 319 319 319 319 319 319 319 320 319 319 319 319 318 318 318 318 317 317 317 316 316 316 317 317 316 315 315 316 317
311 312 312 312 313 313 314 315 316 317 317 317 317 317 317 317 317 317 317 317 317 317 317 317 316 316 316 316 316 316 316 316 316 316 316 317 316 316 315 315 315 316

ECMWFNIL_850_thetae_066.txt.gz
Theta_e
326 326 325 320 315 313 312 313 316 318 319 320 318 314 310 309 311 312 314 315 315 313 308 306 310 313 315 317 319 321 322 322 322 322 322 322 322 322 322 322 322 322
327 327 326 322 316 313 314 315 318 320 321 320 317 312 308 309 311 312 313 314 313 311 307 306 307 310 313 316 319 321 322 321 321 321 320 320 320 320 320 321 321 321
329 328 326 322 316 315 318 319 320 322 321 319 317 312 309 309 311 311 312 313 312 310 308 306 306 307 309 313 317 320 322 321 320 319 318 318 318 317 316 317 320 321
329 328 326 321 318 318 320 320 320 322 321 318 316 313 310 308 309 311 312 312 311 310 308 306 305 305 306 309 314 318 320 320 320 319 317 317 316 315 313 315 319 321
328 328 325 321 320 321 322 320 318 320 320 317 315 313 310 307 306 309 311 310 309 308 307 306 305 305 305 307 310 314 317 317 317 317 316 316 315 314 315 317 319 321
328 327 324 322 323 323 323 320 318 319 318 314 311 310 309 307 306 306 307 307 307 306 306 305 305 305 305 305 308 310 312 312 311 311 312 314 315 315 317 317 317 319
327 325 324 324 325 324 323 319 317 317 315 310 308 308 308 306 305 305 305 305 306 306 305 304 304 304 304 305 306 307 308 307 306 307 309 312 314 316 317 317 316 318
326 324 325 326 325 324 322 318 316 315 312 307 306 307 307 305 304 304 304 305 305 305 304 304 304 304 304 305 306 307 306 305 305 307 309 312 314 316 317 317 317 317
324 324 327 326 325 323 319 316 315 314 310 307 306 306 305 305 304 304 305 305 305 305 305 304 304 304 305 307 308 308 307 307 307 307 308 311 313 316 316 316 317 317
324 326 327 326 324 321 317 315 316 315 312 308 305 305 305 304 305 305 305 306 306 306 305 306 305 305 306 308 308 309 308 308 309 309 309 309 310 312 313 314 315 316
325 326 327 325 323 320 317 317 318 317 314 309 305 305 304 304 305 305 306 307 307 307 307 307 307 307 308 309 309 309 309 309 310 310 310 310 310 310 310 310 311 313
326 327 326 324 322 320 319 319 319 318 314 308 306 306 305 305 306 306 306 307 307 308 308 308 308 308 308 309 309 309 309 310 310 311 313 314 314 314 313 312 311 311
326 326 325 323 322 321 321 319 318 319 315 308 307 308 307 308 307 306 306 307 307 308 308 308 309 308 308 308 309 310 310 311 312 314 317 317 317 317 316 316 315 314
325 324 324 323 322 322 322 320 320 320 315 309 310 310 308 308 307 306 307 307 307 308 308 309 309 308 309 309 309 311 312 313 313 315 317 317 317 317 317 317 317 317
324 323 323 323 322 322 321 318 316 316 313 311 312 311 310 309 307 306 307 307 308 308 308 308 308 308 309 310 311 314 316 316 316 315 316 317 317 318 317 317 317 317
323 323 323 322 322 322 319 316 313 312 312 313 313 312 312 311 311 310 308 307 307 308 308 308 308 308 309 311 314 317 319 319 319 318 318 317 318 318 318 318 317 317
323 323 322 321 320 320 319 317 314 312 312 312 312 313 313 313 313 313 311 309 308 307 308 308 308 309 312 315 318 320 320 321 320 320 319 319 318 318 318 318 319 318
322 322 322 321 320 319 319 318 315 313 312 313 314 315 314 314 314 313 312 311 310 308 307 307 308 311 315 318 320 321 321 321 320 319 319 319 318 318 318 318 319 319
321 321 321 321 321 320 320 318 315 312 311 315 318 318 315 314 313 313 313 312 311 310 309 310 313 315 317 319 320 321 321 320 319 319 319 319 319 318 317 317 317 317
320 320 321 320 320 319 317 315 314 313 314 318 320 318 315 314 312 312 312 313 312 311 312 315 317 318 318 319 319 320 320 320 319 319 319 319 319 318 317 317 316 316
321 321 321 319 319 318 316 315 317 318 318 318 318 316 314 313 313 313 314 314 312 311 313 316 317 318 319 319 319 319 320 320 320 319 319 320 319 319 318 317 317 317
321 321 321 319 319 319 319 318 319 319 319 319 318 317 316 315 316 316 316 316 314 314 315 316 317 319 319 319 319 320 320 320 320 319 319 319 319 319 318 317 317 317
319 320 320 320 320 320 320 320 319 319 319 320 320 319 318 318 318 318 318 317 316 317 318 318 319 319 318 317 318 319 320 320 320 320 319 319 319 318 318 318 317 317
316 317 318 319 320 320 320 320 320 320 320 319 319 319 319 320 319 317 316 317 317 318 319 319 319 318 316 316 317 319 319 319 319 319 319 319 318 318 318 318 317 317
312 313 314 315 317 318 319 319 319 319 319 319 319 319 319 319 319 317 316 317 318 317 317 318 318 318 318 318 318 319 319 319 319 319 319 319 318 318 317 317 316 316
310 310 311 311 313 314 314 315 315 316 317 318 318 319 319 319 319 318 318 319 319 317 317 318 319 318 318 318 318 318 318 318 318 318 317 317 317 317 317 316 317 316

ECMWFNIL_850_thetae_069.txt.gz
Theta_e
326 327 326 324 322 319 315 315 319 319 319 319 317 316 315 314 315 316 317 317 316 311 307 308 311 314 317 319 319 320 322 322 322 322 322 322 322 321 321 321 322 322
327 326 325 323 321 320 317 316 318 320 319 317 315 314 313 314 316 317 318 317 314 309 306 307 311 314 316 318 319 321 321 321 321 321 320 320 320 320 320 320 321 322
326 326 326 323 320 318 318 318 320 321 319 316 313 312 313 316 317 318 318 316 312 308 306 306 308 311 314 316 319 321 321 320 320 319 318 318 318 316 316 318 321 321
327 327 327 324 319 317 317 319 321 322 321 317 313 311 313 317 318 317 317 314 310 308 306 305 306 308 312 314 317 320 320 319 318 317 317 316 315 314 314 318 321 321
328 328 327 324 319 317 318 320 321 321 321 319 315 311 312 316 317 317 315 311 309 307 305 305 305 306 309 312 315 318 319 319 318 317 316 314 314 316 317 319 320 320
329 329 328 325 320 319 320 320 320 320 321 318 315 311 310 313 315 314 311 308 307 306 305 305 305 305 307 309 313 315 315 315 314 313 313 312 314 317 317 318 319 320
329 329 328 325 321 321 322 321 320 321 321 317 314 311 308 308 309 309 308 307 306 306 305 305 305 305 306 307 309 309 309 308 307 308 309 311 314 316 315 316 318 319
328 328 328 325 322 322 323 322 320 321 320 316 312 310 307 306 306 306 306 306 305 305 305 305 305 304 305 305 305 305 305 305 305 307 309 312 315 315 315 316 317 318
328 328 327 325 323 323 324 322 321 321 319 314 310 308 306 305 305 305 305 305 305 305 305 304 304 304 304 305 306 306 306 306 307 309 310 313 315 316 316 316 316 317
328 328 327 325 324 324 324 322 320 320 318 312 309 307 305 304 305 304 304 305 305 305 304 304 304 305 306 307 308 308 307 307 308 308 309 311 313 314 315 316 316 316
328 328 327 325 325 325 324 321 320 320 317 312 308 307 305 304 304 304 304 305 305 305 304 304 305 306 308 309 309 309 309 309 309 309 309 310 310 311 311 312 313 315
329 328 326 326 325 325 323 320 320 320 317 313 309 307 305 304 304 304 305 305 305 305 305 305 306 308 309 309 309 309 309 309 309 310 310 311 311 311 311 311 311 312
328 327 326 326 325 324 322 320 321 321 318 315 312 307 305 304 304 304 305 305 306 306 306 307 308 308 309 309 309 309 309 310 311 312 313 315 316 316 316 315 314 314
328 326 325 325 324 323 322 321 321 320 318 317 314 310 307 306 305 305 305 305 306 306 307 308 308 309 309 309 309 309 310 312 313 315 316 318 318 318 317 317 317 316
327 326 325 324 323 323 321 321 322 321 319 318 316 314 312 309 307 306 305 305 306 306 307 308 308 309 308 308 309 309 311 314 316 316 317 318 318 318 318 317 317 317
326 326 325 323 323 322 321 322 322 319 318 317 315 315 315 312 310 309 307 306 306 306 307 308 308 309 308 309 309 310 313 317 319 319 319 319 319 319 318 319 318 318
326 324 323 322 322 321 321 321 319 314 313 314 314 314 314 314 315 314 311 309 308 307 307 308 308 309 310 310 310 311 315 318 320 320 320 320 320 320 319 319 319 319
323 323 322 323 323 322 321 321 319 314 311 312 313 313 313 315 318 318 315 313 311 308 308 308 308 309 310 310 310 312 316 320 320 320 320 320 319 319 319 319 319 318
321 322 323 322 322 322 321 321 320 317 314 313 312 313 315 317 319 319 317 315 313 312 311 311 311 310 310 311 313 315 317 319 320 320 320 319 319 319 319 319 319 318
320 321 322 321 321 321 321 320 320 319 318 315 313 314 318 320 319 318 316 314 313 312 313 314 314 315 315 316 317 318 319 319 320 320 320 320 319 319 319 319 319 318
320 320 320 321 321 321 320 320 320 319 318 314 313 316 320 320 320 318 316 314 313 314 315 315 315 316 317 319 319 319 319 319 319 319 320 320 319 319 319 319 319 318
321 320 320 320 320 319 319 319 319 318 317 315 316 319 321 320 320 318 315 314 314 314 314 314 313 314 317 318 319 319 319 319 319 319 319 320 319 319 319 319 319 319
320 320 321 320 319 318 318 319 318 318 317 318 319 320 320 319 319 317 315 314 314 314 315 315 316 317 317 318 318 319 319 319 319 319 319 320 320 320 320 319 319 318
319 319 319 319 319 319 319 319 319 319 319 319 319 319 319 319 319 318 317 317 317 317 317 317 318 318 319 319 319 319 319 318 317 317 318 319 319 319 319 319 319 318
316 317 318 318 319 319 318 318 318 319 319 319 319 319 319 319 320 320 319 319 318 318 318 317 317 317 318 319 319 318 318 317 316 317 317 318 319 319 319 319 319 318
312 313 314 314 315 316 316 317 317 317 318 318 318 318 319 319 319 319 319 319 318 318 318 317 316 316 316 318 318 318 318 317 318 318 318 318 318 318 318 318 317 317

ECMWFNIL_850_thetae_072.txt.gz
Theta_e
327 327 327 326 324 323 321 319 318 318 319 319 316 315 316 316 314 316 318 316 313 311 310 310 311 312 316 318 320 322 323 323 323 323 323 324 324 323 323 325 327 329
327 328 328 325 323 320 315 313 314 316 319 319 316 316 319 317 316 317 316 312 309 306 306 309 313 316 319 321 321 322 322 322 322 322 321 322 322 321 321 322 323 326
328 328 326 323 321 317 314 315 317 320 321 320 318 318 317 315 316 317 314 310 308 305 306 310 315 318 320 321 321 321 320 321 320 320 320 320 321 320 321 321 322 324
327 326 325 322 319 317 317 318 320 322 322 319 317 316 314 314 317 316 313 311 307 304 306 310 315 318 319 320 321 320 319 319 318 319 319 318 318 317 318 321 321 323
326 326 326 323 320 318 318 319 322 323 322 317 314 312 312 315 318 317 313 310 307 305 305 308 312 316 318 319 320 319 319 319 318 318 318 316 316 317 317 319 320 322
326 327 326 323 320 318 318 319 321 323 322 316 311 310 313 317 319 318 314 309 307 305 305 306 308 313 318 318 318 319 319 318 317 317 317 317 318 319 318 319 319 321
327 328 327 324 319 318 318 318 319 322 322 316 310 310 314 319 321 320 317 313 310 307 305 305 306 311 316 318 318 317 316 315 315 316 317 318 319 319 320 320 320 321
328 328 327 325 320 319 321 320 320 322 321 317 313 310 313 319 321 320 319 318 315 311 307 306 306 309 314 317 316 312 309 310 314 316 317 318 318 319 319 319 319 320
329 329 328 326 321 320 322 323 322 322 321 319 317 314 315 320 321 321 320 319 318 314 309 307 307 307 311 314 312 308 307 309 314 316 317 318 318 318 318 319 320 319
329 329 329 326 323 321 322 323 322 322 321 321 320 318 318 320 320 319 320 319 317 314 309 307 306 305 308 310 310 311 311 312 314 316 317 318 318 317 318 319 319 319
329 329 329 327 324 323 323 323 321 322 322 322 320 319 318 318 317 317 319 319 317 314 310 307 305 305 307 309 310 312 313 313 314 315 316 317 316 316 317 317 318 319
328 328 328 326 324 324 324 323 322 322 322 321 320 319 318 315 313 312 314 316 317 315 311 308 306 307 309 309 309 310 311 311 312 313 314 315 315 315 316 316 316 316
327 326 326 325 324 324 324 323 322 321 322 320 319 318 317 315 312 308 309 313 316 315 311 308 308 309 309 310 310 310 310 310 310 311 313 314 315 317 318 317 317 316
326 326 325 325 324 323 323 323 322 321 321 320 318 318 316 315 312 308 308 313 315 314 310 307 308 309 310 311 312 312 311 311 312 313 315 315 317 318 318 318 319 318
326 325 325 325 324 322 322 323 322 321 320 318 317 317 316 315 313 310 308 309 310 310 308 306 308 311 311 312 315 315 314 314 314 315 317 318 319 319 318 318 319 319
326 325 325 324 323 323 323 322 322 321 319 317 316 316 314 313 312 310 307 306 307 308 307 306 308 310 310 310 312 314 316 317 315 316 318 319 319 319 319 318 319 320
325 325 325 323 322 323 323 322 322 321 320 317 316 317 315 312 311 309 307 307 309 310 307 307 308 308 308 308 309 310 314 318 319 320 319 319 320 321 321 320 320 320
324 324 324 323 322 320 321 322 322 320 319 316 315 317 317 315 313 311 308 308 310 310 309 309 309 309 310 310 310 311 313 317 322 323 321 321 321 321 322 323 322 321
322 322 322 323 322 320 320 322 321 318 316 312 311 315 317 316 315 314 312 310 310 309 309 311 311 311 311 311 312 313 313 316 321 323 323 322 323 322 323 324 324 323
321 321 321 322 321 321 321 321 320 318 316 312 310 311 314 316 318 318 317 315 313 312 313 314 313 313 313 311 311 313 315 317 319 321 322 322 323 323 323 323 324 323
320 320 320 321 320 320 320 320 319 318 317 315 312 311 311 313 317 319 319 317 316 315 315 315 314 314 313 313 313 314 316 318 319 319 319 319 320 321 321 321 322 321
319 320 320 320 320 320 319 320 319 318 316 315 313 312 313 313 315 319 319 318 317 315 315 315 315 315 315 314 314 316 317 319 319 319 318 318 318 319 319 320 320 320
319 320 320 320 319 319 319 319 319 318 317 316 315 315 315 315 316 319 319 319 317 316 317 317 316 316 316 315 316 317 318 319 319 319 319 319 319 319 319 320 320 320
318 318 318 318 318 318 318 319 319 319 318 318 318 318 318 317 318 320 319 319 318 317 318 319 318 317 318 317 317 317 318 318 319 319 319 319 319 319 318 319 320 319
316 316 316 317 317 317 318 319 319 319 319 318 319 319 319 319 319 319 319 319 319 318 318 318 318 318 318 318 318 318 318 319 319 318 319 319 319 319 319 318 319 319
313 314 314 315 315 315 315 316 317 318 318 318 318 318 318 318 317 318 318 318 318 318 318 318 318 317 317 317 317 317 317 318 318 319 319 319 320 320 320 319 319 320

ECMWFNIL_850_thetae_075.txt.gz
Theta_e
324 326 331 331 331 330 329 329 329 329 328 328 328 328 328 327 326 326 324 319 319 321 320 319 319 317 318 318 320 325 324 323 326 325 322 324 325 325 325 325 325 326
325 326 330 330 330 329 329 330 329 328 329 329 328 328 328 326 324 325 324 322 323 322 315 315 317 320 322 320 321 326 325 322 325 325 324 325 325 325 325 325 326 327
326 327 331 331 330 330 329 328 328 328 327 325 323 325 325 322 322 325 325 324 325 318 311 315 320 322 324 323 322 325 325 324 325 325 325 325 324 325 325 324 325 326
329 330 331 329 329 328 325 323 327 328 325 322 320 322 322 318 321 326 324 324 322 312 310 318 322 323 324 323 323 324 324 324 324 324 324 324 324 324 323 324 324 325
330 330 329 329 328 325 321 322 326 326 325 325 322 321 318 315 321 326 323 322 319 313 314 320 323 323 322 322 323 323 323 323 323 322 322 322 323 322 322 324 325 326
329 329 329 328 326 323 322 325 327 325 326 324 319 317 317 317 323 326 323 321 320 319 320 322 323 323 322 322 323 322 322 322 321 320 320 321 321 321 322 324 326 327
329 328 329 328 326 324 325 327 326 326 326 323 318 319 320 321 325 325 322 322 321 320 320 321 322 323 322 322 322 321 321 320 319 319 319 320 321 322 323 324 324 326
329 328 328 328 327 326 326 327 326 326 325 323 322 323 322 323 325 324 322 322 320 319 319 318 321 323 323 321 321 322 320 318 318 318 319 320 321 322 323 323 324 326
330 329 328 327 326 326 326 326 326 325 325 322 323 324 323 324 324 322 321 322 320 319 318 317 320 322 322 322 321 320 318 318 319 319 320 320 320 321 322 323 323 325
329 330 328 326 325 325 325 325 326 325 324 321 322 323 323 324 323 323 322 321 320 319 317 317 319 321 321 321 319 317 317 318 319 320 320 320 320 320 321 322 323 324
328 329 328 326 325 325 325 325 326 325 323 322 322 322 322 324 324 323 323 322 320 319 317 318 319 319 320 319 318 318 319 319 320 320 320 320 320 320 320 322 322 322
325 325 325 326 326 325 325 325 326 325 323 323 323 322 322 323 323 323 322 322 320 318 317 318 318 319 319 319 319 319 319 320 320 320 320 319 319 319 319 320 321 321
324 323 324 325 325 325 325 325 325 325 323 323 323 322 322 322 321 322 322 321 320 318 317 316 317 319 319 319 320 320 320 320 320 320 320 320 320 320 320 320 319 319
323 324 325 325 325 325 325 325 325 324 324 323 322 322 321 320 320 320 320 320 319 318 317 317 318 319 319 319 319 319 320 320 320 320 320 321 322 322 322 322 321 320
323 324 327 326 325 324 324 324 324 324 323 322 322 322 321 320 319 318 318 319 320 319 318 319 319 319 319 319 318 319 320 320 320 321 321 322 322 323 322 322 322 322
325 325 327 326 325 324 324 323 323 324 323 322 321 321 320 319 318 318 319 320 321 321 320 321 321 320 319 318 318 319 320 321 321 321 322 322 323 323 323 323 323 323
326 326 326 325 325 324 324 323 322 322 322 321 321 321 320 320 319 318 319 320 320 321 321 321 321 320 317 317 317 318 319 321 322 322 322 323 323 323 323 323 323 323
326 325 325 325 324 323 323 323 322 321 319 319 319 317 316 318 320 320 320 320 320 321 321 320 319 317 315 314 314 314 315 318 321 323 323 323 323 323 323 324 324 324
325 325 325 324 324 323 322 323 322 321 319 317 317 314 311 313 316 317 316 315 316 317 317 315 312 311 311 310 310 310 311 312 317 322 324 323 323 324 323 323 324 324
323 324 324 323 323 322 322 322 322 321 319 317 317 315 312 313 314 313 311 311 311 312 313 311 309 310 310 309 308 310 310 309 312 318 323 324 324 324 324 324 324 324
322 322 322 322 322 321 321 321 321 321 318 315 314 313 313 314 315 315 314 313 313 312 313 312 311 311 311 310 309 309 310 310 310 312 317 321 323 322 322 323 323 324
321 322 322 322 322 321 320 321 321 320 317 313 310 310 311 311 313 316 317 316 315 315 316 315 314 314 313 311 310 310 311 311 311 312 315 318 319 318 319 322 323 323
320 320 320 321 321 321 320 321 320 320 318 315 312 311 311 311 312 314 316 318 318 317 318 317 316 315 314 312 312 312 313 313 315 317 318 318 318 319 321 322 322 322
319 318 318 318 319 319 320 320 319 319 319 318 316 314 313 313 314 314 315 318 319 318 318 317 316 315 315 314 314 314 314 315 316 318 319 319 319 320 321 322 321 320
318 318 317 317 317 318 319 319 318 319 318 318 318 317 316 316 316 316 316 318 319 319 319 318 318 317 317 316 316 316 316 316 317 318 319 319 320 320 320 320 320 320
316 316 317 317 317 318 319 318 318 319 318 317 317 318 318 318 318 317 318 319 319 319 319 318 319 319 318 318 318 317 317 317 318 318 318 319 319 319 319 319 319 318

ECMWFNIL_850_thetae_078.txt.gz
Theta_e
327 324 325 328 328 330 331 332 332 331 330 330 330 329 329 328 327 328 327 325 326 326 324 323 323 322 322 322 324 327 325 322 324 326 326 325 325 325 324 325 325 326
324 324 326 328 329 330 331 331 331 330 329 330 329 329 329 327 327 327 325 323 323 320 317 316 315 319 320 321 325 326 323 323 324 325 325 324 325 325 325 325 325 326
324 325 328 329 330 330 330 330 330 330 329 329 329 329 328 325 325 326 323 322 319 312 310 310 313 321 323 322 325 323 320 322 324 324 324 324 324 325 325 325 325 326
325 325 327 328 329 330 330 330 329 329 329 328 329 328 325 324 325 326 326 323 316 307 307 309 315 324 324 323 325 323 322 324 324 323 323 324 324 323 323 325 326 327
325 326 328 329 330 330 330 330 329 329 326 325 326 324 322 325 326 326 325 321 311 306 310 315 320 324 323 323 325 324 324 325 323 322 323 324 323 321 322 325 327 327
325 328 330 330 330 330 329 328 327 326 323 322 325 324 322 324 326 324 322 318 311 310 315 321 323 322 322 324 323 322 323 322 321 322 322 322 322 322 323 324 326 328
326 329 330 330 330 328 327 326 325 324 320 320 324 323 320 323 326 323 320 319 318 317 320 323 322 321 323 323 321 321 322 321 319 320 320 321 322 324 324 323 325 328
328 329 329 329 328 326 326 326 326 324 320 320 323 321 320 325 326 322 321 322 321 321 322 322 322 322 323 322 321 322 322 320 318 319 320 320 321 323 324 324 325 328
327 327 327 327 326 326 327 327 327 325 321 322 324 321 322 327 325 322 322 321 320 320 320 321 323 323 322 322 322 321 319 318 319 320 320 320 321 323 323 324 325 327
324 325 326 327 326 327 328 327 326 322 317 318 319 319 324 327 323 322 322 321 319 319 318 320 323 323 322 322 321 318 317 318 320 320 319 320 322 322 323 323 325 327
324 324 325 327 327 327 327 326 323 319 317 319 320 320 324 325 322 322 322 321 319 318 318 320 322 322 322 321 318 316 318 319 320 320 320 321 321 321 322 323 323 325
324 323 324 326 327 327 326 325 324 321 321 323 323 323 323 323 323 323 322 321 319 318 318 320 320 320 320 318 316 317 319 320 320 320 321 321 320 321 322 322 322 323
323 323 325 326 326 327 326 326 326 323 322 322 323 323 323 323 323 323 322 321 319 318 318 319 319 320 319 318 319 319 320 320 321 321 320 320 320 320 320 321 322 322
323 324 325 326 326 326 326 326 325 323 323 322 322 323 322 323 323 322 321 321 319 318 318 318 319 319 319 320 320 320 320 320 320 320 320 320 321 321 320 320 320 320
324 325 326 326 326 326 326 325 324 324 324 322 322 322 321 321 322 321 320 320 319 318 317 318 319 320 320 320 320 320 320 320 320 320 321 321 322 322 322 322 321 321
325 325 326 326 326 326 325 325 324 324 323 322 322 322 320 320 321 320 320 320 319 318 318 318 319 320 320 320 320 320 320 320 320 320 321 321 322 323 322 322 322 322
327 326 326 326 326 325 325 325 324 323 322 322 322 321 320 319 319 318 319 320 320 320 320 320 320 320 320 319 319 319 320 321 321 321 321 322 322 323 323 322 322 323
326 327 327 326 326 326 324 324 324 323 322 321 321 320 319 319 319 319 320 321 321 321 321 321 320 320 319 318 319 319 320 321 321 321 322 322 322 322 322 322 322 322
325 326 326 326 326 325 324 324 323 322 322 321 321 320 319 319 319 319 320 321 321 321 320 320 321 320 319 318 318 318 318 320 322 323 323 322 322 321 321 321 321 321
325 325 325 326 326 325 324 323 323 322 322 321 320 319 319 320 320 320 320 320 321 321 320 318 318 318 318 318 318 317 316 316 318 319 321 322 323 322 320 320 321 321
323 323 323 324 324 324 323 323 322 322 321 320 318 315 316 319 319 318 317 316 317 317 315 313 312 312 312 313 313 312 311 311 311 311 313 316 320 322 321 321 321 321
321 322 322 322 322 322 322 322 322 321 320 318 316 312 312 315 315 314 312 312 313 312 311 310 311 310 309 309 309 310 311 312 312 312 310 310 313 317 319 320 320 320
321 321 321 321 320 320 321 321 321 320 319 317 316 315 315 315 313 312 312 311 311 312 311 309 310 310 311 311 311 312 313 313 313 312 311 310 311 315 317 317 317 317
319 320 320 320 320 320 320 320 320 320 318 316 316 317 316 314 311 310 310 310 313 315 315 313 312 313 313 313 313 313 313 313 313 313 314 314 315 317 318 318 317 316
318 318 319 319 319 319 320 319 319 319 318 315 315 316 314 313 311 311 311 312 314 316 318 317 317 316 315 314 314 314 314 314 314 314 315 316 316 317 317 317 318 318
318 318 318 318 318 319 319 318 318 318 318 317 316 316 315 315 315 314 314 314 314 316 318 318 318 318 317 317 317 316 316 316 316 316 316 317 318 318 318 317 318 318

ECMWFNIL_850_thetae_081.txt.gz
Theta_e
331 331 330 329 329 329 329 328 327 328 328 329 329 328 329 330 328 327 328 328 328 327 328 327 326 327 328 327 326 324 320 319 322 324 323 324 325 325 325 324 325 326
330 330 329 328 328 328 329 329 329 329 329 328 328 327 327 327 326 326 327 328 327 326 328 327 326 326 327 327 326 324 321 319 323 324 323 323 325 325 324 324 325 325
330 329 329 328 328 329 330 330 329 329 329 329 328 327 326 326 327 327 327 327 327 326 325 325 324 323 324 325 325 323 322 323 325 325 323 323 325 325 324 324 325 325
328 329 330 330 330 331 331 330 330 330 331 330 329 329 328 327 328 328 326 324 324 323 320 320 322 321 322 325 323 322 323 324 324 323 323 323 324 325 325 325 326 325
327 329 330 331 331 331 331 330 330 330 330 330 329 329 328 328 327 325 322 321 320 317 315 320 324 323 324 325 322 320 321 323 323 323 324 323 322 323 325 326 326 326
327 329 330 329 329 330 330 330 330 329 329 329 329 328 328 326 322 318 319 319 315 312 316 323 325 323 324 324 323 322 321 321 322 322 324 323 322 322 324 325 326 326
326 329 330 328 327 329 330 329 329 329 328 328 328 327 325 322 319 318 317 314 310 312 319 324 323 323 325 324 323 323 321 320 321 321 321 323 324 323 323 324 326 326
324 327 329 327 326 329 330 329 329 329 327 326 325 322 320 320 319 316 312 308 309 315 320 322 322 323 323 321 322 322 320 319 320 320 321 322 324 324 322 324 327 327
324 327 328 326 326 329 329 328 328 326 324 321 317 318 322 323 320 315 313 313 313 315 318 321 323 322 321 321 322 322 319 318 319 320 320 322 323 323 322 324 327 327
325 327 328 327 327 328 327 326 324 321 321 319 315 320 326 325 320 318 319 320 318 317 318 321 323 321 321 322 321 320 319 319 320 320 320 321 323 323 321 322 326 327
324 326 328 327 326 326 326 326 324 321 322 321 318 323 327 324 320 320 321 319 319 318 320 322 322 321 322 322 319 318 319 320 320 320 321 321 322 322 321 322 325 326
325 326 327 326 326 326 327 328 325 323 322 321 321 325 327 322 319 320 321 319 318 318 321 323 321 321 322 320 317 318 319 320 320 321 321 322 322 322 321 322 324 325
327 327 326 325 326 327 328 327 324 321 320 321 324 326 325 321 319 320 320 319 317 318 321 322 321 321 320 317 317 319 319 319 320 321 321 321 322 322 322 323 323 323
327 327 325 325 327 327 327 325 323 321 322 323 324 324 322 320 320 321 320 318 318 318 319 320 320 320 318 317 319 320 319 320 320 320 320 320 320 321 322 322 322 322
327 327 326 326 327 327 326 324 322 322 324 324 324 323 322 322 321 321 320 318 318 318 319 319 319 319 319 319 320 320 320 320 320 319 320 320 320 320 320 321 321 321
327 326 327 327 326 326 326 324 323 323 323 323 323 323 323 323 321 321 320 319 318 318 318 319 319 319 320 320 320 320 320 320 320 320 320 321 322 322 321 322 321 320
327 326 326 327 326 326 326 325 324 323 322 323 323 322 323 322 321 320 320 318 318 317 317 319 319 320 320 320 320 320 320 320 321 321 321 322 323 323 322 322 322 322
325 326 326 326 326 326 325 325 324 323 323 323 322 321 321 321 320 320 320 319 318 317 317 318 319 320 320 320 320 320 320 321 321 321 322 322 322 323 323 322 322 322
325 326 326 326 326 325 325 324 323 323 323 322 321 320 320 320 319 320 321 320 319 319 319 319 320 320 320 320 320 320 320 321 321 321 322 322 322 322 322 321 320 320
326 326 326 326 325 325 324 324 323 322 322 322 320 319 319 319 319 320 321 321 320 321 320 319 320 319 319 319 320 320 320 321 322 322 321 321 321 321 321 321 319 318
325 326 326 326 325 325 324 323 322 322 321 321 320 319 319 320 319 320 321 321 321 321 320 320 321 320 319 319 318 319 320 319 319 318 315 314 315 315 316 317 316 316
323 323 324 324 325 324 324 323 322 321 321 320 319 318 319 320 320 320 320 318 318 318 317 316 317 317 317 318 318 318 317 314 312 313 313 313 313 313 312 313 313 313
321 322 322 322 323 324 324 323 322 321 320 319 317 316 317 318 320 319 317 314 313 313 312 311 311 311 312 315 315 314 312 310 311 313 313 313 313 314 315 315 315 315
320 321 321 321 321 322 322 322 321 320 319 317 317 316 314 315 316 316 314 312 311 310 309 308 308 309 310 311 311 310 310 310 312 313 313 313 314 316 317 317 317 317
320 320 320 320 320 320 320 320 319 319 318 317 317 315 312 313 314 314 313 313 311 310 311 310 311 311 312 311 311 311 311 312 313 313 314 315 315 316 317 317 317 317
318 319 319 319 319 319 319 319 318 317 317 317 317 316 315 315 314 313 312 312 311 312 315 316 317 316 316 315 314 314 314 315 315 315 316 317 317 317 317 317 317 317

ECMWFNIL_850_thetae_084.txt.gz
Theta_e
329 329 331 331 331 331 330 330 329 328 327 327 327 328 329 330 329 329 330 329 329 329 329 328 328 328 326 326 327 326 325 325 325 325 325 326 326 326 327 327 327 328
328 329 330 330 330 331 331 329 328 328 327 326 328 330 330 329 329 329 329 328 328 328 327 326 326 326 326 326 325 323 322 323 324 324 324 325 325 326 326 326 326 327
328 327 328 330 330 330 330 330 329 328 326 328 330 330 330 329 328 328 328 328 328 328 327 325 326 326 325 325 324 321 319 320 322 323 323 324 325 325 325 325 325 325
329 326 327 329 329 328 329 329 329 328 328 330 331 330 330 329 329 328 328 327 328 328 327 326 326 326 326 325 323 320 319 320 322 324 323 324 325 325 324 324 324 325
328 326 326 328 328 328 327 327 328 329 330 330 330 330 330 330 328 327 327 326 326 327 327 327 326 326 326 325 323 320 321 322 323 324 323 324 325 325 324 324 325 325
326 325 326 327 327 327 327 327 328 330 330 329 328 328 328 328 327 326 326 326 326 326 325 325 325 324 324 323 321 320 322 324 324 324 324 323 324 324 325 325 325 325
325 325 327 328 327 327 327 326 326 329 330 328 327 327 327 326 326 327 326 325 323 321 320 320 321 322 322 322 320 320 322 322 322 322 321 321 322 324 325 326 326 325
326 325 327 328 327 327 327 325 325 328 329 329 328 328 327 327 327 325 323 320 318 319 320 320 321 323 323 322 320 320 320 320 320 321 321 321 322 323 324 326 326 326
326 325 327 328 327 326 327 325 326 328 330 329 329 328 328 327 325 322 319 316 317 321 323 323 323 324 324 321 320 320 320 320 321 321 322 323 323 321 322 325 327 326
325 325 328 329 327 327 327 327 328 329 329 329 329 329 327 324 321 318 314 313 316 321 323 323 324 324 322 321 320 320 320 320 320 321 322 323 323 321 320 324 327 327
325 326 328 328 327 328 328 329 329 329 328 329 328 327 324 320 317 314 310 310 313 318 322 323 323 322 321 321 321 320 319 319 319 320 321 322 322 321 321 323 326 326
327 328 329 328 327 328 329 329 329 329 329 328 325 324 322 319 316 315 313 311 313 318 322 322 321 321 321 321 321 320 319 319 319 320 321 322 322 321 322 324 326 326
328 329 329 328 328 328 329 328 327 327 325 323 322 323 322 320 318 318 317 315 314 318 321 321 321 322 322 321 320 319 320 320 320 321 321 322 322 321 323 325 326 326
328 328 327 328 328 327 327 327 324 322 321 320 323 325 323 320 320 319 317 317 317 319 319 319 321 322 321 319 319 319 320 320 321 321 322 322 322 322 323 324 326 326
328 327 326 327 327 327 326 326 324 321 321 322 325 326 323 321 321 319 317 318 319 320 320 320 321 321 319 318 318 319 320 320 320 321 322 322 322 322 322 322 323 324
328 327 326 326 327 327 326 326 324 322 322 324 325 325 323 321 320 319 318 318 319 320 320 320 320 318 317 318 319 320 320 320 320 320 320 321 321 322 322 322 322 322
327 327 326 326 327 326 324 324 323 322 323 325 325 324 322 321 320 319 318 318 319 319 320 320 319 318 318 319 320 320 320 320 320 321 320 320 320 321 321 321 321 321
327 327 326 326 326 324 322 323 324 323 324 325 324 322 322 321 321 320 319 318 318 319 319 319 318 318 319 320 320 320 320 319 320 321 322 321 321 321 321 321 321 321
326 326 326 326 326 324 322 323 323 323 324 324 323 322 322 322 321 321 319 318 318 318 319 319 319 319 320 320 320 320 320 320 321 321 322 322 322 322 322 321 321 321
326 326 325 325 326 325 323 323 323 323 323 323 323 323 323 322 321 320 319 318 318 318 319 319 319 320 320 320 320 320 320 321 321 321 321 322 321 321 321 321 321 320
326 326 325 325 325 324 323 323 323 322 322 321 321 322 322 321 321 320 319 319 318 318 319 319 320 321 321 321 320 320 321 321 321 320 320 319 318 316 317 317 316 316
324 324 324 324 324 324 323 323 322 321 320 320 321 321 321 321 321 321 321 321 320 320 320 320 320 320 320 321 320 321 321 320 319 317 316 315 314 313 313 313 313 312
322 322 322 322 322 322 323 322 321 320 319 320 321 321 321 321 321 321 321 320 319 319 318 319 320 320 319 319 320 320 319 316 314 313 311 311 312 312 312 313 313 312
320 321 321 321 320 320 320 320 320 320 319 320 320 321 321 321 321 321 320 317 315 314 314 315 318 318 318 318 318 318 317 315 313 311 310 312 313 312 312 313 313 313
319 320 320 320 320 319 320 320 320 319 319 318 318 318 318 319 318 318 317 315 312 311 311 312 313 313 313 314 315 314 313 313 312 311 310 312 313 313 313 314 314 314
319 319 319 319 320 320 320 320 320 319 319 317 317 317 316 316 316 316 316 314 312 312 313 312 311 310 311 312 313 313 313 313 313 312 313 314 314 314 315 316 316 316

ECMWFNIL_850_thetae_087.txt.gz
Theta_e
329 331 333 332 332 331 331 331 330 330 329 328 329 329 329 328 328 328 328 329 329 329 329 329 328 328 328 327 327 328 328 329 330 330 328 328 329 329 328 328 328 329
328 330 331 331 332 332 331 330 330 330 329 328 328 328 327 328 329 330 330 329 329 329 330 329 329 329 328 327 327 328 328 328 328 329 327 327 328 328 327 327 328 328
329 330 329 330 331 331 331 330 330 330 329 328 327 327 328 329 329 330 330 329 329 330 330 329 329 329 328 327 327 327 327 326 326 326 325 325 327 326 326 326 327 327
329 329 327 329 331 331 331 330 330 329 329 327 326 327 328 329 329 330 330 329 329 329 329 328 328 328 327 326 326 325 323 323 324 324 324 324 325 325 325 325 326 326
328 327 327 328 330 330 330 330 329 328 328 327 326 328 329 329 329 329 329 329 329 329 328 327 326 326 326 325 324 322 320 320 321 323 324 323 324 324 324 324 324 324
328 327 328 328 329 329 330 330 328 327 328 327 327 329 330 330 329 328 328 328 328 328 327 325 325 325 325 325 324 321 320 319 319 322 324 323 323 323 323 324 324 324
330 328 329 329 328 329 330 329 328 327 326 326 327 329 330 329 328 327 326 327 327 327 327 325 325 325 325 325 324 321 320 321 321 322 324 323 323 323 323 323 324 324
331 330 330 329 329 329 329 329 327 326 326 326 327 328 326 328 328 327 327 327 327 327 328 327 326 326 325 325 323 320 321 323 323 324 324 323 322 323 324 324 324 325
331 330 330 329 328 328 328 328 327 326 326 327 327 325 323 326 328 327 327 327 327 327 327 327 327 326 324 323 321 320 322 323 323 322 321 321 322 323 323 324 325 325
331 330 330 329 328 328 327 327 327 326 327 327 325 324 323 326 328 327 327 327 326 326 326 324 324 323 322 322 321 320 321 321 321 320 321 322 322 321 322 323 325 326
329 329 329 329 329 329 329 329 328 328 327 325 324 324 325 327 328 327 327 325 322 321 321 320 321 322 322 322 321 320 320 320 320 321 321 322 321 320 320 323 325 326
328 327 327 327 328 329 329 329 329 328 328 326 325 326 326 327 327 326 324 320 318 319 320 321 323 323 322 322 321 320 320 320 320 321 321 321 321 321 321 323 326 327
329 327 326 326 326 327 327 328 328 328 328 328 328 327 327 327 326 322 319 318 320 322 323 323 324 323 322 322 321 319 319 319 319 320 321 321 321 322 323 324 326 327
329 328 326 326 327 328 327 326 327 327 327 326 327 327 327 325 321 315 314 318 323 324 323 323 323 322 322 321 320 319 319 319 319 320 321 321 321 323 325 326 327 327
328 328 326 326 327 329 328 327 328 327 325 324 326 327 324 320 317 314 315 319 323 323 323 322 322 321 321 321 320 319 319 320 320 320 321 321 321 323 326 327 327 327
327 327 327 326 327 328 328 327 327 327 325 325 326 325 321 318 318 318 318 319 321 322 322 321 321 321 320 320 319 319 319 321 321 320 321 321 321 323 325 326 326 326
326 326 327 327 327 327 327 326 326 325 325 325 325 324 321 320 320 320 319 319 320 321 322 321 321 321 319 319 319 319 320 320 321 321 321 321 321 321 323 324 324 324
326 326 326 327 327 327 326 325 324 324 324 324 325 324 322 321 320 319 319 320 320 320 320 321 321 319 318 318 319 319 320 320 320 321 321 322 322 322 322 322 322 322
326 326 326 326 326 326 326 325 324 324 324 324 324 324 322 321 320 319 318 319 320 320 320 320 319 318 317 319 319 320 320 319 320 320 320 321 322 322 322 321 321 321
326 326 326 326 326 326 326 325 324 324 324 323 324 324 322 321 321 319 318 318 319 320 320 319 318 317 318 320 320 320 319 319 321 321 321 321 321 321 321 321 321 321
324 325 326 326 326 326 325 324 324 324 324 323 323 324 322 321 321 320 319 318 319 319 319 318 318 318 319 320 320 320 320 319 320 321 322 322 321 320 318 317 317 317
323 324 324 325 325 324 323 322 322 324 324 322 322 323 322 321 321 321 319 318 319 319 319 318 319 319 320 320 320 320 320 320 320 321 322 320 317 316 314 313 313 313
321 322 323 324 324 323 322 322 322 323 323 321 321 322 322 321 320 319 319 319 319 319 319 319 320 320 320 321 320 320 320 320 320 321 320 318 315 313 312 312 312 313
320 321 322 322 322 322 322 322 321 322 322 320 320 320 320 320 319 319 319 319 319 319 319 319 319 319 319 319 319 320 320 320 321 320 318 316 314 313 312 312 312 312
319 319 320 320 320 319 320 320 320 320 320 320 319 318 318 318 318 318 318 318 318 317 316 317 316 316 316 317 318 318 319 319 319 318 315 313 312 312 312 312 312 311
319 319 318 319 319 318 318 319 320 320 320 319 318 318 318 317 316 316 316 316 316 315 314 314 314 313 314 315 316 317 317 316 316 315 313 312 311 311 311 312 312 312

ECMWFNIL_850_thetae_090.txt.gz
Theta_e
326 326 328 331 332 331 330 329 329 330 331 329 330 331 331 331 329 329 330 330 329 329 328 328 328 329 330 330 329 328 328 329 329 329 329 329 329 329 330 329 329 328
328 328 328 331 333 332 331 330 329 330 330 329 329 331 331 330 329 329 329 328 327 327 328 328 329 329 329 329 329 328 329 329 329 329 329 329 329 329 329 329 328 328
331 331 331 332 332 332 332 331 330 330 330 329 329 330 330 329 328 328 328 327 327 327 328 329 329 329 329 329 329 329 328 329 329 329 329 329 328 328 329 329 328 328
331 331 331 332 332 332 332 332 331 330 330 328 328 330 330 328 327 327 327 327 328 328 329 329 329 328 329 329 329 328 328 328 328 328 328 328 327 327 328 328 327 327
330 330 330 332 332 331 332 332 331 330 329 328 328 329 328 327 327 327 328 328 328 329 329 329 329 329 329 329 328 327 327 326 326 325 325 325 325 326 326 326 326 326
328 327 328 330 331 331 331 331 331 330 329 328 328 328 327 327 328 328 329 328 328 329 329 329 329 329 329 328 327 325 324 323 322 323 324 324 324 325 324 325 325 325
327 327 327 329 330 330 331 330 330 330 329 328 327 327 327 328 328 329 328 328 328 329 329 328 328 328 327 326 325 323 321 321 320 321 323 324 324 323 323 324 324 324
327 327 327 327 328 330 330 330 330 330 329 329 326 325 327 329 328 328 327 327 328 328 328 327 326 326 326 325 325 324 321 321 320 320 322 324 323 323 323 323 323 324
326 327 326 327 328 329 329 329 330 330 329 329 327 325 328 329 328 328 326 326 326 327 328 327 325 325 325 324 324 324 322 321 321 322 323 324 323 323 323 324 324 324
324 326 327 326 327 328 328 327 328 328 328 328 327 327 329 329 328 327 325 324 324 325 326 326 325 325 325 324 324 322 321 321 323 324 323 323 322 322 323 324 325 325
325 326 326 325 326 327 327 327 327 327 326 326 326 327 329 329 327 326 325 324 323 324 325 326 326 326 326 325 323 321 321 323 324 323 322 322 322 321 322 324 326 326
328 328 326 325 325 327 327 326 326 326 326 326 325 327 329 328 327 326 326 325 325 325 326 326 326 326 325 323 321 321 322 323 322 321 321 322 321 321 322 324 326 326
328 328 327 326 325 326 327 326 326 326 326 326 326 326 327 327 327 327 327 327 327 327 326 325 324 324 322 321 321 321 321 321 321 321 321 321 322 322 323 324 326 326
327 328 328 327 325 325 326 326 326 326 326 327 327 326 326 326 327 328 328 327 327 324 321 321 322 322 321 322 322 321 320 320 320 321 321 321 322 322 323 325 326 326
327 327 328 327 326 325 325 326 326 326 327 327 327 326 326 326 327 327 327 326 323 320 319 321 322 322 322 322 321 320 319 319 319 320 320 321 322 322 324 326 326 326
326 326 326 327 327 325 325 326 327 327 327 326 326 326 326 326 326 326 324 322 319 320 322 323 323 323 323 322 321 319 319 319 319 319 320 321 321 322 324 326 326 325
325 326 326 327 327 326 327 327 327 327 326 325 325 326 325 325 324 321 318 318 319 322 323 323 323 323 322 321 320 319 319 319 319 319 320 321 321 322 326 326 324 323
325 326 326 326 327 327 327 327 327 327 326 325 324 326 325 323 321 317 314 318 322 323 323 322 322 322 321 321 320 319 319 320 320 320 320 321 321 323 325 325 323 322
325 325 325 325 326 326 326 327 327 327 326 325 324 325 325 321 319 317 317 320 323 323 322 322 322 321 321 320 320 319 319 320 321 321 321 321 322 323 323 323 322 321
324 325 325 325 325 326 326 326 326 325 325 324 322 323 324 321 319 319 320 321 322 322 322 322 322 321 320 318 319 319 319 320 321 321 321 322 322 322 322 321 321 321
322 323 324 324 325 326 326 326 324 323 324 324 323 323 322 320 319 320 320 320 321 322 322 321 321 320 318 317 319 319 319 319 320 321 321 322 323 322 321 321 321 320
321 322 323 323 324 325 325 326 325 324 324 324 323 323 322 320 320 320 319 319 320 321 321 321 320 319 318 318 320 320 319 319 319 320 320 321 322 322 321 320 319 316
320 321 321 322 322 323 323 324 324 323 322 322 321 320 321 321 321 321 320 319 318 319 320 320 319 318 319 320 321 320 321 320 320 320 320 321 322 320 317 316 315 313
319 320 320 320 320 321 322 322 322 320 320 320 320 319 319 320 321 321 320 319 318 318 319 319 319 319 320 320 321 321 321 320 320 321 321 321 320 317 314 312 312 312
318 319 319 319 319 320 320 321 321 320 320 320 319 319 319 319 319 319 318 318 319 319 320 319 319 320 321 321 320 320 319 319 319 319 318 317 317 315 314 313 313 312
317 318 318 318 317 318 319 320 320 319 318 318 318 317 318 317 317 316 316 317 318 319 319 319 320 320 320 319 318 318 317 316 316 316 315 314 314 313 313 313 312 312

ECMWFNIL_850_thetae_093.txt.gz
Theta_e
330 330 329 329 330 330 330 330 330 331 332 331 331 331 331 330 331 331 330 330 330 329 330 329 329 330 330 329 327 327 328 331 331 330 330 330 330 330 330 329 329 330
329 329 329 329 329 329 330 330 329 330 332 331 331 331 331 331 331 330 331 330 330 330 330 330 329 330 329 327 327 328 329 330 330 330 330 330 330 329 330 330 329 329
327 328 329 329 328 328 329 329 328 329 331 331 331 331 331 331 330 329 330 330 329 329 329 329 329 328 327 327 328 329 329 330 330 329 329 329 329 329 329 330 329 328
327 328 329 329 328 328 329 328 326 329 331 331 330 331 331 331 330 329 330 330 329 329 328 329 328 327 327 328 329 328 329 330 330 329 329 329 329 329 329 329 329 328
327 327 328 328 328 328 328 327 325 327 330 330 330 331 331 330 330 330 330 330 329 327 327 328 328 327 328 329 328 327 328 330 329 329 329 329 329 328 328 328 328 328
326 327 327 327 327 327 326 326 326 327 328 329 330 330 330 330 330 330 330 329 328 327 328 329 328 328 328 328 327 327 328 329 328 327 328 328 327 326 326 327 328 327
324 326 326 326 326 327 326 326 325 324 325 327 329 330 330 329 328 328 329 328 328 328 329 330 329 328 328 327 326 327 328 328 326 325 326 325 324 325 325 326 326 326
323 324 325 325 325 326 328 327 324 324 325 327 329 329 329 328 327 328 328 329 329 329 329 329 329 329 328 327 326 326 325 323 322 323 324 324 324 324 324 325 325 325
323 321 323 324 325 327 328 327 324 326 329 329 329 329 328 327 328 328 329 329 329 329 329 329 329 328 328 327 325 324 322 321 320 320 322 323 323 323 323 324 324 324
325 323 324 325 326 327 327 327 327 328 329 329 328 328 327 327 329 330 329 330 329 329 329 328 328 327 326 326 325 325 323 321 320 320 320 322 323 323 323 324 324 324
326 326 327 326 326 327 326 326 327 328 329 329 328 325 325 327 329 328 329 330 329 329 328 327 326 326 325 325 325 325 323 321 321 322 322 323 323 323 324 325 325 325
326 327 328 326 326 326 326 326 327 328 329 329 328 325 324 326 328 327 328 328 328 328 327 327 326 325 325 325 324 323 322 321 323 324 323 322 322 323 324 326 325 325
327 328 328 328 327 326 327 327 326 327 328 328 328 326 325 326 327 326 327 327 327 327 326 326 326 326 326 325 324 322 321 322 324 323 322 322 322 322 323 325 325 325
326 327 328 328 328 327 327 327 327 327 327 327 327 326 325 327 328 326 326 327 326 326 326 326 326 326 326 324 323 321 322 323 323 322 322 322 322 322 322 324 325 325
325 326 327 327 328 327 327 327 327 327 326 327 327 326 326 328 328 327 327 326 326 326 326 325 325 324 324 323 321 322 322 322 321 321 322 322 322 322 321 322 325 325
324 325 325 326 327 327 327 327 328 328 327 328 328 328 328 328 327 327 326 326 326 326 325 322 322 323 323 322 322 321 321 321 321 321 321 321 322 322 321 323 325 326
324 324 324 325 325 326 326 327 327 327 328 328 328 328 328 327 326 326 326 326 325 324 322 321 322 323 323 322 321 321 320 320 320 319 320 321 321 321 321 323 326 325
324 324 324 324 325 325 325 325 325 327 328 328 328 328 327 327 326 326 326 325 324 322 322 322 323 323 323 322 321 320 319 319 319 319 320 321 321 321 322 324 325 323
323 323 323 324 324 324 324 324 325 326 327 327 327 327 327 326 325 324 324 323 322 322 323 323 323 323 323 322 321 320 319 319 319 319 320 321 321 322 323 324 323 322
320 321 321 322 323 323 323 323 324 325 326 327 327 326 326 324 323 322 322 322 322 322 322 322 323 323 322 321 321 320 319 320 320 320 320 321 322 323 323 322 321 321
318 318 319 319 320 322 322 323 324 324 324 324 324 325 324 322 321 321 322 323 323 322 322 322 322 322 321 320 321 320 319 320 321 321 321 321 322 323 322 321 321 321
318 318 317 317 318 320 321 322 324 324 324 323 324 323 322 321 320 320 320 322 322 322 322 322 321 321 321 320 319 319 319 320 321 321 321 322 322 322 321 321 321 319
317 317 317 317 318 319 321 321 322 322 322 321 321 319 319 320 320 317 318 320 321 321 321 321 321 321 321 318 318 318 319 320 321 321 321 322 322 321 321 320 318 314
317 317 317 317 317 319 320 320 320 320 319 319 318 316 317 319 319 318 318 319 319 320 320 321 321 320 319 318 318 319 319 320 321 321 321 321 321 321 319 317 315 313
317 317 317 317 317 318 319 319 319 319 318 318 317 316 316 318 319 319 319 318 318 318 319 319 320 319 319 319 319 320 320 319 319 319 318 318 318 317 315 314 313 312
317 317 316 316 316 316 317 317 317 317 317 317 316 316 317 317 318 318 318 318 318 318 319 319 319 319 319 319 319 319 319 317 316 316 315 314 314 314 313 313 312 312

ECMWFNIL_850_thetae_096.txt.gz
Theta_e
329 329 329 330 329 329 329 329 328 326 326 327 327 327 328 329 331 332 332 332 332 332 332 332 330 330 330 331 330 330 329 329 328 327 326 328 329 330 329 329 329 330
328 327 328 329 330 330 328 328 328 326 325 325 325 326 327 329 330 331 331 332 332 332 332 331 329 328 329 330 330 330 329 329 327 326 326 328 329 329 328 328 329 330
325 326 327 329 330 330 329 328 327 327 326 325 324 324 326 328 329 330 331 331 331 331 331 330 329 329 329 330 330 329 329 327 326 327 328 330 329 328 328 328 329 330
324 325 328 329 330 330 330 330 328 327 327 325 323 324 325 327 328 330 330 331 331 331 330 330 330 330 330 330 330 329 327 326 327 329 330 329 328 329 330 329 329 329
325 325 327 328 329 330 330 330 330 329 329 327 324 324 327 328 328 328 328 329 331 331 330 330 331 331 330 329 329 329 329 329 330 330 329 328 329 329 330 328 328 329
325 325 327 327 328 329 330 330 330 330 329 328 326 325 328 328 327 328 328 329 331 330 330 330 331 330 329 327 328 330 331 330 330 329 328 328 328 329 328 327 328 328
326 324 325 327 327 328 329 329 329 329 329 328 326 326 328 327 326 327 327 329 330 329 330 330 329 330 329 328 329 330 331 331 330 328 327 327 328 330 329 329 329 329
326 323 323 326 327 327 327 329 330 330 330 329 327 328 328 327 327 327 327 329 329 329 330 330 329 330 330 330 330 329 330 331 329 326 326 328 330 331 331 330 330 330
326 323 322 325 327 327 327 329 330 330 330 329 328 329 329 328 328 327 327 328 328 328 329 329 330 331 329 330 329 328 328 329 328 326 327 330 331 331 331 330 330 330
327 325 324 326 328 327 327 328 329 329 330 330 329 330 329 328 328 326 325 326 327 327 326 327 330 330 329 329 329 327 327 328 328 327 328 329 328 328 329 329 330 330
327 327 327 327 327 328 328 328 329 330 330 330 330 330 329 328 327 325 326 328 329 327 325 326 329 329 328 329 328 328 327 326 326 325 325 326 326 326 326 327 328 329
326 327 328 327 327 328 328 328 329 329 330 330 330 329 328 328 327 326 327 329 329 329 327 326 327 327 328 329 328 328 327 325 324 322 322 324 325 325 325 325 327 328
325 326 328 328 327 328 328 329 329 329 330 330 330 329 327 326 326 327 328 328 329 329 327 325 326 327 328 328 328 327 326 323 321 320 321 324 326 326 324 323 326 328
324 325 327 327 328 327 327 328 329 328 328 329 330 329 327 326 327 328 329 328 328 328 326 325 326 327 326 327 327 325 323 319 319 321 324 325 327 326 323 323 327 329
324 324 325 326 327 327 327 327 327 327 328 328 329 330 328 327 328 329 329 328 327 327 326 325 326 327 325 325 326 324 319 317 320 323 324 325 325 325 323 324 327 329
324 324 324 325 325 326 326 327 327 327 327 328 328 329 329 327 327 328 328 327 326 325 325 325 326 325 324 324 324 322 319 319 322 323 323 323 323 322 321 323 325 326
323 323 324 324 324 324 325 326 326 326 327 327 326 327 328 327 326 327 328 327 325 325 324 324 324 324 323 323 321 320 321 321 322 322 322 322 322 321 319 320 323 325
320 322 323 323 324 324 324 324 325 325 327 327 326 327 328 327 327 327 328 327 325 324 322 322 323 323 323 323 322 322 322 321 321 321 321 322 323 322 320 319 322 325
318 320 321 322 322 323 323 323 324 324 325 326 326 326 327 327 326 326 327 326 324 322 321 321 323 323 323 322 321 321 321 320 320 320 321 322 322 322 321 321 323 326
318 319 320 321 322 322 323 323 323 323 323 323 323 324 325 325 325 325 325 323 322 323 322 323 323 324 323 321 320 320 319 319 320 320 320 322 321 321 322 323 324 324
318 319 320 320 321 321 321 322 322 322 322 321 321 322 322 322 321 322 323 322 321 322 322 323 323 323 322 321 320 320 319 319 320 320 320 321 321 322 324 324 322 321
317 319 319 319 319 320 320 320 320 320 319 319 320 321 321 320 321 322 322 322 321 321 321 322 322 322 321 320 321 321 320 319 320 321 321 321 321 323 324 323 320 319
316 317 318 319 319 320 319 319 319 318 317 317 318 320 321 321 320 320 319 317 317 319 321 321 320 321 321 320 319 319 319 319 320 321 322 322 322 322 323 321 319 319
315 316 317 317 318 319 319 318 318 317 317 317 318 319 320 319 316 315 316 316 315 317 320 320 318 320 321 320 318 318 319 319 320 321 322 322 321 321 321 319 318 319
315 315 315 315 316 317 317 317 317 316 316 316 317 318 317 316 316 315 316 317 318 319 320 319 318 319 320 319 318 318 319 320 321 320 320 320 319 319 320 319 317 318
314 314 314 314 314 315 315 315 315 315 315 316 316 316 316 317 317 316 314 316 318 319 319 319 319 319 319 318 318 319 319 319 318 317 317 317 317 317 317 317 316 315

ECMWFNIL_850_thetae_099.txt.gz
Theta_e
331 331 331 331 330 330 330 330 331 332 332 332 333 333 333 334 333 332 332 333 333 332 331 331 331 331 331 332 332 331 331 331 331 330 329 329 329 330 331 331 329 328
331 331 330 329 329 329 331 331 332 332 331 331 332 332 333 334 333 332 331 333 333 332 332 332 331 331 331 332 333 333 332 331 330 329 328 329 330 330 330 330 329 328
331 330 330 329 329 330 331 332 332 332 331 331 330 329 330 333 332 331 331 333 333 332 332 331 331 331 331 331 332 333 332 330 329 328 329 330 330 329 328 328 328 328
330 330 330 329 329 330 330 330 331 331 330 330 330 328 329 331 331 331 332 333 332 332 331 331 331 331 331 331 331 332 331 330 329 329 330 329 328 328 327 327 328 328
329 330 330 330 331 331 330 330 330 330 330 330 330 329 329 330 330 331 331 332 332 332 331 331 331 330 330 329 330 330 331 330 330 330 330 328 327 327 327 327 328 328
328 330 329 329 330 330 330 330 331 330 330 330 330 329 329 330 331 331 331 332 332 332 331 331 330 329 329 329 330 330 330 330 330 330 329 328 327 328 328 327 328 327
328 329 329 328 328 329 329 329 329 329 329 329 329 329 329 330 331 330 331 332 332 331 331 330 329 329 329 330 330 330 329 329 330 330 329 328 328 329 328 328 329 328
327 328 328 327 327 327 328 327 326 327 327 326 327 329 329 330 331 330 330 332 332 331 331 329 328 328 329 329 329 329 329 329 330 329 328 328 329 328 327 328 328 327
326 327 328 328 326 326 327 327 326 327 327 326 326 328 329 330 330 329 330 331 332 331 330 328 327 327 328 328 328 328 328 329 330 329 327 328 327 326 326 327 327 327
325 326 327 328 327 327 327 327 327 327 327 325 325 327 329 330 330 329 330 331 331 330 328 325 325 326 327 326 326 325 326 328 328 327 326 327 327 327 327 327 327 327
324 325 327 327 328 328 327 327 327 328 327 326 326 327 328 328 329 329 330 330 329 328 327 325 325 325 325 325 324 324 326 327 327 327 327 327 328 328 328 328 328 328
324 325 326 327 327 328 327 327 328 328 328 327 327 328 329 328 328 328 329 329 329 327 326 326 326 326 325 325 325 325 324 325 327 328 327 328 328 328 328 329 329 328
324 325 326 327 327 327 327 327 328 328 328 327 327 328 328 327 327 328 328 329 329 328 327 327 328 328 326 325 326 326 325 325 327 327 326 327 328 327 326 328 329 329
324 324 325 326 326 326 327 327 328 328 328 327 328 329 328 327 327 327 327 327 327 328 328 328 328 327 326 326 326 327 326 326 326 326 326 327 327 327 327 327 328 329
322 323 324 325 325 325 325 326 326 327 327 327 327 328 329 328 327 326 327 327 327 327 328 328 327 325 325 326 326 326 326 326 325 326 326 327 328 329 329 329 329 329
321 323 324 324 324 324 324 325 325 325 326 326 327 327 328 328 327 327 328 328 327 327 326 326 326 325 326 326 326 325 325 325 325 325 326 327 328 329 330 330 329 328
319 321 323 323 324 324 324 324 324 325 325 326 326 326 327 327 328 327 328 328 327 326 326 325 325 325 325 325 325 325 324 324 324 325 326 327 327 327 329 329 327 326
319 320 321 322 323 323 324 324 323 323 323 324 325 326 326 327 327 327 327 327 326 325 325 324 324 324 325 324 323 323 323 324 324 324 325 324 325 325 326 327 326 325
319 320 320 321 321 322 323 323 322 322 321 322 323 324 325 325 325 326 326 326 324 322 322 322 323 324 325 324 322 321 322 323 323 323 323 323 324 324 325 326 326 325
319 319 319 319 320 321 322 321 321 321 321 320 321 322 323 322 322 323 324 324 323 320 319 321 323 324 324 323 322 321 321 321 321 322 323 324 325 325 325 326 326 326
318 319 319 319 319 319 320 319 319 320 320 320 320 321 321 320 319 320 321 321 321 321 320 321 323 323 323 321 320 320 319 320 322 323 324 325 325 325 325 325 326 326
316 317 318 319 319 318 318 317 318 319 320 320 321 321 321 320 320 320 318 316 317 319 319 320 321 322 322 320 320 320 320 321 323 324 323 324 324 324 324 324 325 325
314 315 316 317 317 317 317 317 317 318 319 320 320 319 318 318 318 318 317 316 316 316 317 318 319 320 321 320 320 320 319 320 321 321 322 323 324 324 324 324 324 324
313 313 314 315 316 315 315 316 316 317 318 319 318 316 315 316 316 317 316 316 316 317 317 316 317 319 320 320 319 318 318 319 319 320 321 322 322 323 323 323 323 322
312 312 312 313 314 314 314 315 315 315 316 317 317 317 316 315 316 316 316 316 317 317 317 314 313 316 319 319 318 318 318 319 319 320 320 319 319 320 320 320 320 320
312 312 312 313 313 313 313 313 314 314 315 315 316 316 316 316 315 315 316 316 317 318 318 316 313 313 315 317 318 318 319 318 318 319 318 316 316 317 317 317 318 318

ECMWFNIL_850_thetae_102.txt.gz
Theta_e
331 331 331 331 330 330 331 331 331 331 332 333 333 332 332 331 332 332 331 331 331 330 331 332 332 333 333 332 331 331 332 333 332 332 332 331 331 331 331 330 329 329
330 331 331 330 330 330 330 331 331 332 332 331 331 331 331 331 331 331 331 331 330 330 330 331 331 332 332 332 332 331 332 333 332 333 332 332 332 332 332 330 329 330
329 330 330 330 330 331 331 331 332 331 331 330 330 329 329 330 330 330 330 330 330 328 328 330 331 332 332 332 332 331 331 332 332 332 332 332 332 331 331 330 329 330
327 328 329 329 330 331 331 331 331 331 330 328 327 326 327 328 329 329 330 330 329 329 329 330 331 331 332 332 331 331 331 332 332 332 332 331 330 329 329 329 329 329
326 327 327 328 329 329 330 330 329 329 328 326 325 325 325 327 328 329 329 329 329 329 330 330 331 332 331 331 331 331 331 332 332 332 331 330 329 328 328 327 328 327
324 325 326 326 327 328 328 328 329 328 327 327 326 325 325 327 328 328 328 328 329 329 330 330 331 331 331 331 331 331 331 331 332 331 330 329 329 327 327 326 326 326
323 324 324 325 327 328 328 328 328 328 328 327 326 326 326 326 325 325 325 326 327 328 330 330 330 331 331 330 329 330 330 330 330 330 329 329 329 328 327 327 327 328
323 323 324 326 327 328 328 329 328 327 328 327 326 325 326 326 325 324 324 325 325 327 330 331 330 330 330 328 329 329 328 327 326 325 325 325 326 327 327 328 329 329
323 324 325 327 327 327 328 328 328 327 327 327 327 326 327 327 326 324 323 324 324 326 330 330 329 329 329 329 329 328 328 327 326 325 324 324 326 327 327 328 329 329
323 325 326 326 326 326 327 328 327 327 327 327 327 327 327 327 325 324 324 325 325 326 329 330 329 329 329 330 329 328 328 328 327 327 327 327 328 328 328 328 328 329
323 325 326 326 326 326 327 328 327 327 327 327 326 326 327 327 326 325 325 326 326 326 327 328 328 328 329 329 329 327 327 326 327 327 327 327 328 328 329 328 328 329
322 323 324 325 325 325 325 327 327 327 327 326 326 326 328 327 326 326 326 326 326 326 325 326 328 328 328 329 329 327 326 326 327 326 325 326 326 327 328 327 328 328
320 321 323 323 323 323 324 325 326 326 326 326 326 327 328 328 327 326 326 327 327 327 327 327 327 327 327 328 329 328 326 326 325 325 325 325 325 325 326 327 328 328
318 320 322 322 323 323 323 324 325 325 326 325 326 327 328 328 327 326 326 327 327 327 327 327 327 327 326 326 328 328 326 325 326 325 325 325 325 325 326 327 328 328
317 319 321 322 323 323 324 324 324 325 325 325 326 327 327 327 328 327 327 327 327 326 326 327 327 327 326 325 326 327 326 326 326 326 326 325 326 326 327 327 327 328
318 319 320 322 322 323 322 322 322 323 324 325 326 326 326 326 327 327 326 326 327 327 327 327 326 326 327 326 326 325 325 325 325 325 326 325 326 326 327 327 327 327
318 318 320 321 321 321 321 321 321 321 322 323 324 324 325 325 325 325 325 325 326 326 327 327 326 325 325 326 325 324 324 324 324 325 325 325 325 325 325 326 327 326
317 317 318 319 319 320 320 320 320 320 321 321 322 322 322 323 324 324 324 323 324 324 324 324 324 324 324 324 324 324 324 324 324 324 324 323 324 325 324 325 326 326
316 316 316 317 318 318 319 319 319 320 320 320 320 320 320 321 321 322 322 322 321 321 322 322 322 323 323 322 322 322 323 323 323 322 323 322 323 324 324 324 326 326
315 316 315 316 317 318 318 319 318 319 320 320 320 320 319 319 319 320 321 320 319 318 319 321 322 322 322 321 321 320 321 321 321 322 322 323 323 324 324 325 325 324
314 315 315 316 316 317 318 318 318 318 318 319 319 318 318 317 316 317 318 318 317 317 318 320 321 320 320 319 319 320 320 320 320 320 322 322 323 323 324 324 324 324
313 314 314 315 316 316 316 317 318 317 317 317 317 317 317 317 316 316 316 317 317 317 317 319 319 319 318 317 317 319 320 319 319 318 320 321 322 323 324 324 323 323
312 313 314 314 315 315 315 315 316 316 316 316 316 316 316 316 316 316 316 317 317 316 316 317 317 318 319 318 317 318 318 317 317 317 318 319 320 321 322 323 323 323
312 312 313 313 314 315 315 315 315 315 316 316 315 315 315 315 316 316 316 317 317 315 314 314 314 315 317 318 318 318 318 316 315 315 316 317 317 318 319 321 322 322
312 312 313 313 313 314 314 314 314 314 314 315 315 315 315 315 315 315 315 316 317 316 315 314 313 313 314 316 317 318 318 317 316 316 316 316 316 316 316 318 319 319
310 311 311 311 312 312 312 312 313 313 313 313 313 313 314 314 314 314 314 314 315 315 315 315 315 314 314 315 316 316 316 315 315 315 315 316 316 316 315 316 317 317

ECMWFNIL_850_thetae_108.txt.gz
Theta_e
326 326 327 328 328 328 328 328 327 327 328 327 327 326 325 324 323 323 323 323 323 323 324 326 328 328 328 328 328 329 329 329 328 329 329 330 331 331 332 331 331 331
324 324 325 326 326 327 327 327 326 327 327 326 326 325 324 324 324 324 324 323 323 324 324 326 328 328 329 329 329 329 329 328 328 329 330 331 330 331 331 331 331 331
322 322 323 323 325 325 326 326 327 327 327 326 326 325 324 324 324 323 323 324 324 324 325 326 326 327 328 328 329 329 329 329 329 329 329 330 330 331 331 331 331 330
321 321 322 324 325 326 326 327 327 327 327 326 326 325 324 324 324 323 324 324 324 325 326 326 325 326 327 328 329 329 329 329 329 329 330 330 330 331 331 331 331 330
322 323 323 324 325 325 326 326 327 327 326 326 325 325 325 325 324 324 324 324 324 325 326 326 326 328 328 329 330 330 329 329 329 329 330 330 330 330 330 330 331 331
322 323 324 324 324 324 324 325 326 326 326 325 325 325 326 325 324 324 323 324 324 324 325 326 327 328 328 328 329 328 329 328 328 329 329 329 328 329 330 330 330 330
322 322 323 323 323 323 323 324 325 325 326 325 325 326 326 325 324 324 324 325 325 324 324 325 325 326 326 327 328 328 328 326 325 327 329 328 327 328 329 330 329 329
321 321 322 323 323 323 322 322 323 325 325 325 325 326 327 325 324 324 325 325 325 324 324 324 324 325 326 327 327 327 327 326 323 324 325 327 329 329 328 326 326 326
321 321 322 322 322 323 322 322 323 325 325 324 324 325 326 326 325 325 325 325 326 325 325 325 325 326 327 328 327 326 327 328 326 325 324 323 325 327 325 324 324 324
322 322 322 322 322 322 322 323 323 324 324 323 323 324 324 325 326 325 326 326 326 326 326 326 327 326 327 327 326 326 327 328 327 328 327 324 323 324 323 323 324 323
323 323 322 322 322 322 322 323 323 323 322 322 322 322 322 323 325 325 325 325 326 326 325 326 327 326 326 326 326 326 327 327 326 326 327 326 326 326 325 326 325 323
322 322 321 321 320 320 321 321 322 321 321 320 321 322 322 322 322 323 324 324 324 325 325 326 327 326 326 326 326 325 326 326 325 326 326 326 326 325 325 327 328 327
321 320 320 320 319 319 320 320 320 319 320 321 321 321 321 321 321 322 323 323 324 325 326 326 325 324 325 324 325 325 324 325 325 325 325 326 326 325 324 326 328 327
320 319 319 319 319 320 320 320 319 319 319 320 319 320 320 321 322 322 323 323 324 324 324 325 324 324 324 323 323 324 324 324 324 324 325 325 325 326 326 326 327 326
318 318 318 319 319 319 320 320 320 319 318 318 318 319 320 321 321 322 323 323 323 323 323 323 323 323 322 322 322 322 323 323 323 322 324 324 324 324 325 325 326 326
317 317 318 318 318 318 318 319 319 319 318 318 318 318 318 318 319 319 321 321 321 321 320 320 321 321 321 321 321 322 322 322 322 322 322 322 323 323 324 325 326 326
316 317 317 318 318 317 317 317 317 317 317 317 316 316 316 316 316 318 319 320 320 319 319 319 319 319 319 319 320 320 319 319 320 321 323 323 323 324 324 325 325 325
316 317 318 318 317 317 316 316 316 316 316 316 316 316 316 316 316 317 319 319 319 318 318 317 317 318 318 317 317 317 317 317 317 319 321 322 321 322 323 323 322 322
315 317 317 317 317 316 316 316 316 316 315 316 316 315 315 315 315 316 317 317 317 317 318 317 317 318 318 318 318 316 315 315 315 316 318 318 317 317 319 321 322 322
314 315 316 316 316 315 315 315 315 315 315 315 315 315 315 314 314 314 315 315 316 316 317 316 316 316 317 318 318 318 316 314 314 314 314 314 314 314 316 319 321 321
314 315 315 315 315 315 315 314 314 314 314 314 314 315 315 314 314 314 314 314 314 315 315 315 315 315 316 316 317 317 317 316 315 314 314 314 315 315 315 317 319 320
314 314 314 314 314 314 314 313 313 313 313 313 313 313 314 314 314 314 314 314 314 314 314 314 314 314 315 315 316 317 317 317 317 317 317 317 317 317 317 317 318 319
313 313 313 313 313 313 312 312 312 312 312 312 312 312 312 312 313 313 313 313 313 313 313 313 312 312 313 313 314 315 315 315 316 316 317 317 317 317 317 317 317 318
311 312 312 311 311 311 311 310 310 310 310 310 310 311 311 311 311 311 311 311 311 310 310 311 310 310 311 311 312 312 313 313 314 314 315 315 315 315 315 315 315 316
310 310 310 310 310 309 309 308 308 307 307 308 308 309 309 309 309 309 309 308 307 307 307 307 308 308 308 309 310 310 311 311 312 312 313 313 313 313 313 313 313 314
307 307 307 307 307 307 306 306 305 304 304 305 305 305 305 305 305 305 304 303 302 302 303 303 304 304 304 305 306 307 308 309 310 310 310 311 312 311 312 312 312 312

ECMWFNIL_850_thetae_111.txt.gz
Theta_e
326 326 326 327 327 327 327 327 326 325 325 325 326 326 325 325 323 323 323 322 322 322 323 324 324 324 325 325 326 327 327 328 328 328 328 328 328 329 329 329 330 330
324 324 324 324 324 324 325 325 323 323 325 326 326 325 325 324 323 323 323 322 322 323 324 324 325 326 326 326 327 327 326 327 327 327 328 328 329 329 329 329 329 330
322 322 322 322 323 323 323 322 322 324 326 326 326 325 324 324 323 323 323 322 322 323 324 325 326 327 327 327 327 327 326 326 326 327 328 329 329 329 329 329 330 330
322 322 322 322 322 323 322 322 322 324 326 326 325 324 323 324 323 323 322 323 323 323 323 324 326 326 326 327 327 327 327 327 327 328 328 328 329 329 329 329 330 330
322 322 322 322 322 322 322 322 323 324 325 325 325 323 323 324 323 323 323 324 324 324 323 323 324 325 326 326 327 327 327 326 325 327 328 328 329 328 328 329 329 329
322 322 322 322 322 322 323 322 323 324 325 325 325 324 324 325 324 324 324 324 324 324 324 323 324 326 327 326 326 326 326 325 323 325 325 326 326 326 326 328 328 328
321 322 322 322 322 322 322 322 322 323 324 325 324 324 325 325 325 324 324 324 325 324 324 324 325 326 327 326 326 326 327 326 325 325 324 323 323 324 324 325 325 326
321 321 321 321 322 321 321 322 322 323 324 324 323 323 324 325 325 325 325 325 325 325 324 325 326 326 326 325 325 326 326 326 326 327 326 324 322 323 324 323 324 324
321 321 321 321 322 322 322 322 322 322 321 321 321 321 322 323 323 324 324 324 324 325 325 325 325 325 325 325 325 325 325 326 326 326 326 325 324 323 323 323 324 324
321 322 322 321 321 321 321 321 321 320 320 320 319 319 320 321 322 322 322 323 324 324 324 324 324 325 325 324 324 325 325 325 326 325 325 326 326 325 325 325 326 324
322 322 321 321 320 320 320 320 319 318 319 319 319 318 319 320 321 322 322 323 323 324 324 324 324 324 324 324 324 324 324 324 326 326 326 326 325 325 325 327 328 326
321 320 320 319 319 319 319 318 318 318 318 318 318 319 319 320 321 321 322 323 323 324 324 323 323 323 323 323 323 323 323 324 325 326 326 325 325 325 325 326 327 327
320 319 319 319 319 319 319 318 318 317 317 318 319 320 320 320 321 321 321 322 322 322 322 322 322 322 322 321 322 322 322 323 323 324 324 324 325 325 326 326 326 326
319 319 319 319 319 319 318 317 317 317 317 318 318 319 319 319 320 320 320 320 320 320 320 320 319 319 320 320 320 320 321 322 322 322 323 324 324 325 325 325 325 325
319 319 319 319 319 318 317 317 317 317 317 317 317 317 318 319 320 320 320 319 319 318 318 317 317 317 317 317 317 317 318 320 320 320 320 321 322 322 322 322 323 324
318 317 318 318 317 317 317 316 316 316 316 316 316 316 317 318 319 319 319 318 318 317 317 316 316 317 318 316 315 315 315 317 317 317 317 318 319 319 319 320 321 322
317 316 316 316 316 316 316 316 316 315 315 315 315 316 316 317 318 318 317 317 317 317 317 317 317 319 319 318 316 316 315 315 315 315 315 315 316 316 317 318 320 321
317 316 316 316 316 316 315 315 315 315 315 315 315 315 315 315 316 316 316 316 317 316 316 316 317 318 318 318 317 317 316 316 315 314 314 314 315 315 316 318 320 320
317 316 316 315 315 315 315 315 314 314 314 315 314 314 314 314 314 315 315 315 315 315 315 315 315 316 316 317 317 317 317 317 316 316 316 316 317 317 318 319 320 320
316 316 315 315 314 314 314 314 314 314 314 314 314 314 314 314 314 314 314 314 314 314 314 314 314 314 315 315 315 316 316 317 316 316 317 317 318 318 319 319 319 319
315 315 314 314 314 313 313 313 313 313 313 313 314 314 314 314 313 313 313 313 313 313 313 313 313 313 313 313 314 314 315 315 315 316 316 316 316 317 318 318 318 318
314 314 313 313 313 312 312 312 312 312 312 312 312 313 313 313 313 312 312 312 312 312 312 312 311 311 311 312 312 312 313 313 313 314 314 314 314 315 315 316 316 316
313 313 313 312 312 312 312 311 311 311 311 311 311 311 311 311 310 310 310 310 310 310 310 310 309 309 310 310 310 311 311 312 312 312 312 313 313 313 313 313 313 313
312 312 312 311 311 310 310 309 309 309 309 310 310 310 309 308 307 307 306 306 306 306 306 306 306 306 306 307 308 309 310 310 310 311 311 311 310 310 310 311 310 310
310 309 309 308 308 307 307 307 307 307 307 307 307 306 305 304 303 303 303 302 302 302 302 302 302 302 302 303 304 305 306 307 307 308 309 308 308 308 308 308 308 308
307 307 306 305 305 304 304 304 304 304 304 303 303 303 302 302 301 301 300 300 299 299 299 299 299 298 298 299 299 300 301 302 303 304 304 305 305 306 306 306 306 306

ECMWFNIL_850_thetae_114.txt.gz
Theta_e
329 327 325 324 323 322 323 323 322 323 323 323 324 325 325 324 323 323 322 322 322 322 322 322 322 323 323 324 325 326 326 326 326 326 326 326 326 326 327 327 327 327
328 324 322 322 322 322 322 322 322 322 322 323 325 325 325 323 323 323 323 322 322 322 322 322 321 322 323 325 325 325 326 326 325 325 327 327 326 327 327 327 327 327
324 322 321 321 321 321 322 323 322 321 322 323 325 325 324 323 323 323 323 323 322 323 322 321 322 323 324 325 324 325 326 325 323 324 324 325 326 327 327 326 327 327
322 321 321 321 321 322 322 322 322 322 323 324 324 324 324 324 324 324 324 323 323 323 322 322 323 324 324 324 325 325 326 325 325 325 325 323 324 325 326 325 326 327
321 321 320 321 322 322 322 322 322 322 323 323 324 324 323 324 324 324 323 323 323 323 323 323 324 324 324 324 325 325 325 326 326 326 327 325 322 323 324 324 323 324
321 320 321 321 322 322 321 321 321 321 322 322 322 323 322 323 324 323 323 323 323 324 323 323 323 324 324 324 325 325 325 325 325 326 327 325 323 322 323 323 323 323
320 320 320 321 321 321 321 321 321 321 321 321 321 321 321 322 323 323 323 323 323 323 323 323 323 324 324 324 324 325 325 325 324 324 325 325 325 324 324 325 325 324
320 320 320 321 321 321 321 321 321 320 320 319 319 320 321 321 321 321 322 322 322 323 323 323 323 323 323 324 324 324 324 324 325 325 325 325 325 324 325 326 327 326
320 320 320 321 321 321 320 320 320 319 319 319 318 319 320 320 321 321 321 322 322 322 323 323 323 322 322 322 322 322 323 324 324 324 324 325 325 325 325 326 326 327
320 320 321 320 320 320 319 319 319 318 318 318 318 319 320 320 321 321 321 321 321 321 322 322 322 321 321 321 321 322 322 323 323 323 324 324 324 324 325 326 326 326
320 320 320 319 318 318 318 318 318 317 318 319 319 319 320 320 321 321 321 320 320 321 321 320 320 320 319 319 321 321 321 321 322 323 323 323 322 323 324 325 325 326
320 319 318 318 318 318 318 317 317 318 319 319 319 319 319 320 320 320 320 319 319 319 319 318 318 317 316 317 318 319 319 319 319 320 321 320 320 320 321 322 323 324
318 318 318 318 318 317 317 317 318 318 318 318 318 319 319 320 319 319 318 318 318 317 317 316 316 315 315 315 316 317 316 316 316 317 318 318 318 319 320 320 321 322
318 318 318 318 317 317 317 317 317 316 316 316 317 318 318 319 319 318 317 317 317 316 316 316 316 315 315 315 316 316 316 315 315 315 316 316 317 318 320 319 320 320
319 318 318 317 317 316 316 316 315 315 315 316 316 317 318 318 318 317 317 317 317 316 316 316 316 315 315 315 315 315 315 314 314 315 315 316 317 318 319 319 320 320
318 317 317 317 316 316 315 315 315 315 315 315 316 316 317 316 316 316 316 317 316 316 316 316 315 315 315 316 315 315 316 316 315 315 315 316 317 318 318 319 319 319
316 316 316 316 315 315 315 315 315 314 314 315 315 315 315 315 315 315 315 315 315 315 315 315 314 314 314 315 315 315 316 316 315 315 315 315 316 316 317 318 318 317
315 315 315 315 315 315 314 314 314 314 314 314 314 314 314 314 314 314 314 314 314 314 314 314 313 313 314 314 314 314 315 315 315 315 315 315 314 314 316 317 316 316
316 315 315 315 314 314 314 314 314 314 314 314 314 313 313 313 313 313 313 313 313 313 313 312 312 312 312 312 312 313 313 313 314 314 315 314 314 314 314 315 315 315
315 315 314 314 313 313 313 313 313 313 313 313 313 313 313 313 313 313 312 312 312 312 312 311 311 310 311 311 311 311 311 312 312 312 313 313 313 313 313 313 313 313
314 314 313 313 313 313 313 313 313 313 313 313 313 312 312 312 312 311 311 311 310 310 310 310 309 309 309 309 309 310 310 310 310 311 311 311 311 311 311 310 310 310
314 313 313 312 312 312 312 312 312 312 311 311 311 311 311 310 310 309 308 308 308 308 308 307 306 306 306 307 307 308 308 309 309 309 309 309 309 309 308 308 308 309
313 312 312 312 312 311 311 311 311 310 310 310 309 309 308 307 306 306 305 304 304 303 303 302 301 301 301 302 303 304 305 306 306 307 307 306 306 306 305 305 305 306
312 311 311 311 310 310 310 310 309 309 308 307 307 306 305 304 303 302 301 300 299 299 298 298 298 298 298 298 298 299 300 301 302 302 303 303 303 302 302 302 302 302
310 309 309 309 308 308 308 307 307 306 305 304 304 303 302 300 299 299 298 297 297 297 296 296 296 296 296 296 296 296 297 297 298 298 298 299 299 300 300 300 300 300
308 307 307 306 306 305 305 304 303 303 302 301 301 300 299 298 297 297 296 296 296 295 296 295 295 295 295 295 295 295 295 296 296 296 296 296 297 297 298 298 298 299

ECMWFNIL_850_thetae_117.txt.gz
Theta_e
331 330 328 324 322 321 320 319 318 320 321 321 321 322 323 323 323 323 323 322 322 322 322 321 322 323 323 323 323 324 325 325 325 326 326 326 325 324 325 326 326 326
330 328 325 323 321 321 319 318 319 321 322 321 322 322 323 323 323 323 323 322 322 322 322 322 323 323 323 323 324 325 325 325 325 326 327 326 325 324 325 325 325 325
329 326 323 322 321 319 319 320 321 322 322 322 321 322 322 323 323 323 323 322 323 323 322 322 323 323 323 323 324 324 325 324 324 325 326 326 325 325 325 325 325 325
326 323 321 321 320 319 320 321 321 321 321 320 320 321 322 323 323 323 323 323 323 323 323 323 323 324 324 324 324 324 324 325 324 324 325 325 325 325 325 326 326 326
323 322 321 320 320 321 321 321 320 320 320 320 320 321 322 322 322 322 323 323 323 323 323 323 323 323 324 323 323 323 324 325 325 324 325 325 324 324 325 325 325 326
321 320 319 319 321 321 321 320 320 320 320 320 320 321 321 321 321 322 322 322 322 323 323 323 322 322 322 322 322 323 323 324 324 324 324 324 324 324 325 325 325 326
320 320 319 320 321 321 320 320 320 320 320 319 320 320 321 321 321 321 321 321 322 322 322 322 321 321 321 321 321 322 322 323 323 323 323 323 323 324 324 325 325 325
319 320 320 320 321 321 320 320 320 319 319 319 319 320 321 321 321 320 320 321 322 322 321 320 320 320 320 320 320 320 321 322 322 321 321 321 322 323 323 324 324 325
320 320 320 320 321 320 320 319 319 319 318 318 319 320 321 321 321 320 320 321 321 320 319 318 317 318 318 318 317 318 318 319 319 319 319 320 320 321 321 322 323 323
320 321 321 321 320 319 318 318 318 318 319 319 319 320 320 320 320 319 319 320 319 318 317 316 316 316 317 317 316 315 315 315 316 317 318 319 320 320 320 321 321 322
321 321 321 319 318 318 318 318 319 319 319 319 320 320 320 319 319 319 318 318 317 317 316 316 315 315 315 316 315 314 314 314 315 316 317 319 319 320 320 320 320 320
321 320 319 318 317 317 318 318 319 318 318 318 319 319 319 319 318 318 317 317 317 316 316 316 315 314 314 314 314 314 314 314 315 317 318 318 319 319 319 319 319 318
320 318 317 317 317 318 318 318 317 316 317 317 318 319 319 318 318 317 317 317 317 316 316 316 315 314 314 314 315 315 315 315 315 316 317 318 318 318 318 317 317 317
318 317 316 317 317 317 317 316 315 315 316 317 317 317 317 317 317 317 316 316 316 316 315 315 314 314 314 315 315 315 315 315 314 314 315 316 317 317 316 316 316 316
316 315 316 316 316 316 315 315 315 315 316 316 316 316 316 316 315 315 315 315 315 314 314 314 314 313 313 314 314 314 314 314 314 313 314 315 316 315 315 315 315 315
315 315 316 316 315 315 315 315 315 315 315 315 315 315 315 314 314 314 314 314 314 313 313 313 313 312 312 312 312 312 313 313 313 313 313 313 313 314 314 313 313 314
315 316 316 315 315 315 314 314 314 314 314 314 314 314 314 313 313 313 313 313 313 313 312 312 311 311 311 311 311 311 311 312 312 312 312 312 312 312 312 312 312 311
315 315 315 315 314 314 314 314 314 314 314 313 313 313 313 313 313 312 312 312 312 312 311 311 310 309 309 310 310 310 310 310 311 311 311 311 310 311 311 310 310 310
315 315 314 314 314 314 314 313 313 313 313 313 313 312 312 312 312 311 311 311 310 310 309 309 308 307 307 308 308 308 308 309 309 309 309 309 308 308 308 308 309 309
315 314 314 313 313 313 313 313 313 313 313 312 312 312 311 311 310 310 309 309 308 307 307 305 305 304 305 305 305 305 306 306 307 307 306 306 306 305 305 305 305 305
314 313 313 313 313 313 313 313 313 312 312 311 311 310 309 309 308 307 306 305 304 303 303 301 301 301 301 301 301 302 302 303 303 303 302 302 301 301 301 300 301 301
313 313 312 312 312 312 312 312 311 311 310 309 308 308 307 305 304 303 302 301 300 299 299 298 298 298 298 298 298 298 298 298 299 299 298 298 298 298 298 298 298 298
312 312 312 311 311 311 311 310 310 309 308 306 306 305 303 302 301 299 298 298 297 297 297 296 296 296 296 296 296 296 296 296 296 296 297 297 297 297 297 297 298 298
312 311 311 311 310 310 310 309 308 306 304 304 303 302 300 299 298 297 296 296 296 296 295 295 295 295 295 295 295 295 295 295 295 295 295 296 296 296 296 297 297 297
310 310 310 309 309 308 307 306 304 303 302 301 300 299 298 297 296 296 296 295 295 295 295 295 294 294 294 294 295 295 295 295 295 295 295 295 295 295 295 295 296 296
309 309 308 308 307 305 304 303 302 301 300 299 298 297 296 296 295 295 295 295 294 294 294 294 294 294 294 294 294 294 295 295 295 295 294 295 294 294 294 295 295 295

ECMWFNIL_850_thetae_120.txt.gz
Theta_e
329 329 328 326 325 325 323 321 320 320 320 320 320 321 323 323 323 323 322 322 322 322 322 322 323 322 323 324 323 325 327 327 326 325 325 326 326 326 326 327 327 328
328 328 326 324 324 323 321 319 320 320 319 319 320 321 322 323 322 322 322 322 322 322 323 323 323 323 324 324 323 325 326 326 326 326 326 326 326 326 326 326 326 327
327 326 324 323 322 322 321 320 320 320 319 320 321 322 322 322 322 323 323 323 323 323 323 323 323 323 323 322 322 324 325 324 324 324 325 325 325 325 325 325 325 325
325 324 323 322 321 320 320 320 320 319 320 320 321 322 322 322 323 322 322 322 323 323 323 322 322 322 321 321 322 323 323 323 323 323 323 323 324 324 325 324 325 325
324 322 321 321 320 320 320 320 320 319 320 321 321 321 321 322 322 322 322 322 322 322 322 321 321 321 320 320 321 321 321 321 321 321 321 321 322 322 323 323 324 324
322 320 320 320 321 320 320 320 320 320 320 321 321 321 321 321 321 321 322 322 322 321 321 320 320 320 319 318 318 319 319 319 319 319 320 320 320 320 321 322 323 323
321 320 320 321 321 320 320 320 320 320 320 320 321 321 320 320 320 321 321 321 320 320 319 319 318 318 317 317 316 315 315 316 317 318 319 319 319 320 320 321 321 322
320 320 320 321 320 320 320 319 319 319 320 320 321 321 320 320 320 320 321 320 318 317 317 317 316 316 316 316 314 313 313 315 316 317 318 319 319 319 319 320 320 319
320 320 321 320 319 319 319 319 319 319 320 320 321 320 320 320 319 319 319 318 317 316 316 316 315 315 315 314 313 313 314 315 317 318 318 319 319 318 318 318 318 317
320 320 320 319 319 319 319 319 319 319 319 320 320 320 319 319 318 318 317 317 316 316 316 316 315 314 314 314 314 314 315 316 317 318 318 318 317 317 316 316 316 316
321 320 319 318 318 318 318 318 318 318 318 319 319 319 319 318 318 317 317 316 316 315 316 315 314 314 314 314 314 314 314 315 316 317 317 316 315 315 315 315 315 315
321 319 318 318 319 318 318 317 317 317 317 318 318 318 318 317 317 317 316 316 316 315 315 314 314 313 313 314 314 314 314 314 314 315 315 314 315 314 314 314 314 313
319 318 318 318 318 317 317 316 316 316 316 317 317 317 317 316 316 316 315 315 315 314 314 313 313 313 312 313 313 313 313 313 313 313 313 313 313 313 313 313 312 312
318 318 318 317 316 316 315 315 315 316 316 316 316 315 315 315 315 314 314 314 314 313 313 313 312 312 312 312 312 312 312 312 312 312 312 312 312 312 312 312 312 312
317 317 317 316 315 315 315 315 315 315 315 315 315 314 314 314 314 314 313 313 313 312 312 312 312 311 311 311 311 311 311 311 311 311 311 311 311 310 310 310 311 311
316 316 316 315 315 315 315 315 315 315 314 314 314 314 314 313 313 313 312 312 312 311 311 311 310 310 309 309 309 310 310 310 310 310 309 309 309 309 309 309 309 309
315 316 315 315 315 315 314 314 314 314 314 314 313 313 313 313 312 312 312 311 311 310 309 308 307 307 306 306 307 307 308 308 308 307 307 306 305 305 305 305 305 306
315 315 315 314 314 314 314 314 314 314 313 313 313 312 312 312 311 311 310 310 309 307 306 304 303 303 303 303 303 303 304 304 304 303 302 301 300 300 300 301 301 301
314 314 314 314 313 313 313 313 313 313 313 312 312 311 311 310 310 309 308 307 305 303 301 300 300 300 299 300 300 299 300 300 300 299 298 298 298 297 297 298 298 298
313 313 313 312 312 313 313 313 313 313 312 311 311 310 309 308 307 306 304 302 300 299 298 297 297 297 297 297 297 297 297 297 297 296 296 296 296 296 296 296 297 297
313 313 312 312 312 313 313 312 312 312 311 310 309 307 306 304 302 301 299 298 297 297 296 296 296 296 296 296 296 296 296 296 296 295 296 296 295 295 295 296 296 296
313 313 313 312 313 312 312 311 311 310 308 307 306 304 302 300 298 297 297 296 296 296 295 295 295 295 295 295 295 295 296 297 296 295 296 296 296 296 295 295 296 296
313 313 312 312 312 311 311 310 309 307 306 304 302 300 298 297 297 296 295 295 295 295 295 295 295 295 295 295 295 295 297 298 298 297 297 297 297 296 296 295 295 295
312 312 312 311 311 310 309 308 306 304 303 301 299 298 297 296 296 295 295 295 295 295 295 294 295 295 294 295 295 295 297 299 299 298 299 299 298 297 297 296 295 295
312 311 311 311 310 309 307 305 303 302 300 298 297 296 296 295 295 295 294 294 294 294 295 294 294 295 294 295 295 294 296 299 299 298 298 299 299 299 298 297 295 295
311 310 310 309 308 306 304 302 301 299 298 297 296 296 295 295 294 295 294 294 294 294 294 294 294 294 294 294 295 294 295 297 298 298 298 299 299 299 298 297 296 295